     2              OBSERVATION DATA    GPS                 RINEX VERSION / TYPE
teqc 1997Jul24 19970902 21:17:38UTC                         PGM / RUN BY / DATE
                                                            COMMENT
BIT 2 OF LLI FLAGS DATA COLLECTED UNDER A-S CONDITION       COMMENT
BIT 2 OF LLI FLAGS DATA COLLECTED UNDER A-S CONDITION       COMMENT
Original Marker Name: 55496.YUMA                            COMMENT
Campaign Name: Salt. Tr. Crust. Monit. May-Jun 1986         COMMENT
4-Character Station Name: YUMA                              COMMENT
6-Character Antenna Code: TI4100                            COMMENT
Vertical Measurement Point: PAE                             COMMENT
Vertical Offset to Rinex Ref. Point: 0.0000                 COMMENT
Radial Measurement Point: RRP                               COMMENT
Radial Offset to Rinex Ref. Point: 0.0000                   COMMENT
Antenna Height from Field Measurement: 1.4150 m             COMMENT
Original XYZ: -2197478.5462 -4889611.5158 3444783.6672      COMMENT
New XYZ position is based on association with SCEC monument COMMENT
E1C9S0R6+0011. Position of that monument is believed to be  COMMENT
valid to within 1 m horizontally; vertical accuracy         COMMENT
should be no worse than 3-times this value.                 COMMENT
                                                            COMMENT
Revised Rinex header created by UCSD GPS archive for        COMMENT
GSAC on 12-Apr-1999 (1999:102) 01:17:31 GMT                 COMMENT
For assistance contact dagnew@ucsd.edu or hjohnson@ucsd.edu COMMENT
                                                            COMMENT
YUMA NCMN 1983                                              MARKER NAME
5 NATIONAL GEODETIC SURVEY                                  OBSERVER / AGENCY
UT04 TI 4100 1.0                                            REC # / TYPE / VERS
108 TI 4100                                                 ANT # / TYPE
 -2196778.0000 -4887337.0000  3448425.0000                  APPROX POSITION XYZ
        1.4150        0.0000        0.0000                  ANTENNA: DELTA H/E/N
     1     1     0                                          WAVELENGTH FACT L1/2
     4    P1    P2    L1    L2                              # / TYPES OF OBSERV
     6                                                      INTERVAL
  1986     6    11     3    36   59.000000                  TIME OF FIRST OBS
  1986     6    11     4    59   59.000000                  TIME OF LAST OBS
     0                                                      # OF SATELLITES
                                                            END OF HEADER
 86  6 11  3 36 59.0800000  0  4G12G13G 9G 7
  20933212.926    20933217.731    18303015.185 8 -36164120.976 8
  21141059.296    21141063.716    45178793.645 8 -59381055.935 9
  22337560.786    22337565.146    76343584.697 9 -97813967.606 8
  25723311.900    25723315.559     1394866.538 9  -4782360.319 8
 86  6 11  3 37  5.0800000  0  4G12G13G 9G 7
  20932957.504    20932962.298    18301672.907 9 -36165166.907 8
  21142342.316    21142345.913    45185531.201 8 -59375805.898 8
  22341735.893    22341740.395    76365522.677 8 -97796873.080 8
  25719815.341    25719818.982     1376487.833 9  -4796681.374 7
 86  6 11  3 37 11.0800000  0  4G12G13G 9G 7
  20932708.600    20932713.784    18300356.778 8 -36166192.454 7
  21143624.941    21143628.939    45192274.908 9 -59370551.058 8
  22345912.246    22345916.506    76387473.099 8 -97779768.866 8
  25716318.930    25716322.955     1358117.312 9  -4810996.066 7
 86  6 11  3 37 17.0800000  0  4G12G13G 9G 7
  20932462.041    20932467.551    18299066.790 8 -36167197.638 7
  21144909.534    21144913.018    45199024.848 9 -59365291.360 8
  22350092.434    22350095.761    76409435.962 8 -97762654.950 8
  25712823.813    25712829.721     1339755.664 8  -4825303.848 7
 86  6 11  3 37 23.0800000  0  4G12G13G 9G 7
  20932220.288    20932225.178    18297802.909 9 -36168182.482 7
  21146194.837    21146198.919    45205780.978 9 -59360026.836 9
  22354273.421    22354278.540    76431411.211 9 -97745531.376 8
                  25709338.580                    -4839601.237 7
 86  6 11  3 37 29.0800000  0  4G12G13G 9G 7
  20931986.127    20931992.171    18296565.096 8 -36169147.010 8
  21147481.805    21147486.600    45212543.341 9 -59354757.462 9
  22358458.819    22358461.393    76453398.819 8 -97728398.164 8
  25705783.583    25705849.563     1285176.816 9  -4853882.763 7
 86  6 11  3 37 35.0800000  0  4G12G13G 9G 7
  20931755.306    20931760.324    18295353.484 8 -36170091.122 7
  21148770.605    21148773.053    45219311.861 9 -59349483.291 8
  22362644.552    22362647.826    76475398.804 9 -97711255.339 8
  25702361.465    25702367.309     1266874.138 8  -4868144.238 8
 86  6 11  3 37 41.0800000  0  4G12G13G 9G 7
  20931530.598    20931534.656    18294168.109 8 -36171014.782 8
  21150060.336    21150062.742    45226086.551 8 -59344204.305 7
  22366833.611    22366837.680    76497411.239 8 -97694102.786 9
  25698884.120    25698888.921     1248596.488 8  -4882386.556 7
 86  6 11  3 37 47.0800000  0  4G12G13G 9G 7
  20931309.377    20931315.190    18293008.883 8 -36171918.069 8
  21151351.025    21151353.631    45232867.382 9 -59338920.538 8
  22371024.458    22371028.550    76519436.125 8 -97676940.533 8
  25695408.743    25695415.393     1230339.360 9  -4896612.879 7
 86  6 11  3 37 53.0800000  0  4G12G13G 9G 7
  20931094.286    20931098.165    18291875.875 8 -36172800.942 8
  21152640.856    21152645.036    45239654.344 9 -59333632.002 8
  22375217.910    22375221.980    76541473.336 8 -97659768.685 9
  25691937.615    25691944.080     1212098.068 8  -4910826.863 8
 86  6 11  3 37 59.0800000  0  4G12G13G 9G 7
  20930883.598    20930888.869    18290769.040 8 -36173663.405 9
  21153934.192    21153937.729    45246447.479 9 -59328338.644 9
  22379414.203    22379417.864    76563522.878 8 -97642587.225 8
  25688469.568    25688474.014     1193869.301 8  -4925031.106 8
 86  6 11  3 38  5.0800000  0  4G12G13G 9G 7
  20930677.181    20930682.406    18289688.476 9 -36174505.405 7
  21155228.100    21155231.738    45253246.794 9 -59323040.482 8
  22383610.794    22383616.504    76585584.748 8 -97625396.171 8
  25685003.156    25685006.729     1175650.797 8  -4939227.337 8
 86  6 11  3 38 11.0800000  0  4G12G13G 9G 7
  20930477.760    20930482.345    18288634.151 8 -36175326.962 8
  21156522.467    21156526.263    45260052.277 9 -59317737.513 8
  22387812.490    22387817.439    76607658.912 7 -97608195.515 8
  25681537.022    25681542.105     1157441.001 8  -4953416.783 8
 86  6 11  3 38 17.0800000  0  4G12G13G 9G 7
  20930281.058    20930287.016    18287606.122 8 -36176128.015 7
  21157818.601    21157821.866    45266863.870 8 -59312429.768 7
  22392016.158    22392020.004    76629745.399 8 -97590985.265 8
  25678074.182    25678079.212     1139240.454 7  -4967599.037 7
 86  6 11  3 38 23.0800000  0  4G12G13G 9G 7
  20930091.011    20930095.801    18286604.341 9 -36176908.632 8
  21159115.565    21159119.568    45273681.656 8 -59307117.203 8
  22396220.169    22396225.448    76651844.174 8 -97573765.456 8
                  25674614.054     1121054.232 7
 86  6 11  3 38 29.0800000  0  4G12G13G 9G 7
  20929905.109    20929909.199    18285628.897 9 -36177668.707 8
  21160413.781    21160417.211    45280505.630 9 -59301799.824 8
  22400428.617    22400433.165    76673955.213 8 -97556536.067 8
  25671157.516    25671162.627     1102889.387 9  -4935367.000 7
 86  6 11  3 38 35.0800000  0  4G12G13G 9G 7
  20929724.739    20929728.450    18284679.797 8 -36178408.264 8
  21161715.194    21161718.152    45287335.799 9 -59296477.620 8
  22404637.609    22404642.300    76696078.498 8 -97539297.155 9
  25667705.691    25667710.027     1084750.662 8  -4949501.095 8
 86  6 11  3 38 41.0800000  0  4G12G13G 9G 7
  20929548.364    20929554.478    18283756.951 8 -36179127.366 8
  21163015.149    21163018.657    45294172.114 8 -59291150.611 8
  22408850.464    22408854.297    76718213.917 8 -97522048.780 8
  25664258.497    25664262.732     1066636.619 8  -4963616.431 8
 86  6 11  3 38 47.0800000  0  4G12G13G 9G 7
  20929378.253    20929383.963    18282860.371 8 -36179825.996 8
  21164317.722    21164320.594    45301014.569 8 -59285818.828 8
  22413064.893    22413069.213    76740361.471 7 -97504790.946 8
  25660815.497    25660820.465     1048543.170 8  -4977715.216 9
 86  6 11  3 38 53.0800000  0  4G12G13G 9G 7
  20929213.125    20929218.083    18281990.055 9 -36180504.164 8
  21165620.367    21165624.498    45307863.070 8 -59280482.321 8
  22417281.441    22417285.589    76762521.194 8 -97487523.644 8
  25657374.200    25657379.885     1030465.575 8  -4991801.643 8
 86  6 11  3 38 59.0800000  0  4G12G13G 9G 7
  20929052.680    20929056.812    18281146.011 8 -36181161.856 8
  21166925.822    21166927.437    45314717.550 8 -59275141.175 8
  22421500.849    22421504.597    76784692.946 8 -97470246.953 9
  25653936.714    25653942.947     1012400.393 8  -5005878.400 9
 86  6 11  3 39  5.0800000  0  4G12G13G 9G 7
  20928895.968    20928901.462    18280328.170 8 -36181799.127 8
  21168230.195    21168233.628    45321577.962 9 -59269795.390 9
  22425722.466    22425727.135    76806876.752 8 -97452960.864 8
  25650501.126    25650505.418      994345.469 8  -5019947.183 8
 86  6 11  3 39 11.0800000  0  4G12G13G 9G 7
  20928745.993    20928750.046    18279536.596 9 -36182415.946 7
  21169536.135    21169540.404    45328444.343 8 -59264444.974 8
  22429946.195    22429949.634    76829072.501 7 -97435665.471 8
  25647067.800    25647072.830      976299.380 7  -5034009.062 8
 86  6 11  3 39 17.0800000  0  4G12G13G 9G 7
  20928600.000    20928604.648    18278771.194 7 -36183012.356 8
  21170845.183    21170849.103    45335316.612 9 -59259089.952 8
  22434171.443    22434175.767    76851280.254 7 -97418360.745 8
  25643635.919    25643641.034      958262.978 7  -5048063.408 8
 86  6 11  3 39 23.0800000  0  4G12G13G 9G 7
  20928458.550    20928463.955    18278032.029 9 -36183588.321 8
  21172154.635    21172156.955    45342194.848 8 -59253730.285 9
  22438400.898    22438404.850    76873499.868 8 -97401046.751 8
                  25640211.213                    -5062106.103 8
 86  6 11  3 39 29.0800000  0  4G12G13G 9G 7
  20928323.926    20928329.783    18277319.111 9 -36184143.856 8
  21173462.806    21173467.087    45349079.020 9 -59248365.997 9
  22442631.095    22442635.649    76895731.334 8 -97383723.525 8
  25636776.751    25636788.513      904074.133 8  -5076131.612 8
 86  6 11  3 39 35.0800000  0  4G12G13G 9G 7
  20928192.936    20928197.744    18276632.441 8 -36184678.918 8
  21174775.837    21174777.716    45355969.156 9 -59242997.050 8
  22446862.437    22446868.265    76917974.728 7 -97366391.011 8
  25633359.020    25633366.182      886101.019 7  -5090136.634 8
 86  6 11  3 39 41.0800000  0  4G12G13G 9G 7
  20928067.037    20928073.620    18275972.056 8 -36185193.503 7
  21176087.581    21176089.869    45362865.229 8 -59237623.488 8
  22451098.588    22451103.257    76940229.957 7 -97349049.283 8
  25629943.691    25629950.392      868152.544 7  -5104122.427 8
 86  6 11  3 39 47.0800000  0  4G12G13G 9G 7
  20927946.458    20927951.510    18275337.877 8 -36185687.675 8
  21177401.648    21177402.283    45369767.203 8 -59232245.330 7
  22455334.967    22455341.340    76962496.960 7 -97331698.375 7
  25626532.401    25626539.231      850224.471 7  -5118092.350 7
 86  6 11  3 39 53.0800000  0  4G12G13G 9G 7
  20927830.858    20927836.155    18274729.909 8 -36186161.418 9
  21178715.569    21178718.787    45376675.139 8 -59226862.523 8
  22459575.407    22459578.972    76984775.784 8 -97314338.243 7
  25623125.337    25623129.667      832312.188 7  -5132049.950 8
 86  6 11  3 39 59.0800000  0  4G12G13G 9G 7
  20927720.191    20927725.581    18274148.328 8 -36186614.589 7
  21180030.087    21180034.682    45383589.044 9 -59221475.063 8
  22463817.482    22463821.318    77007066.420 8 -97296968.927 8
  25619717.866    25619724.135      814412.544 6  -5145997.723 8
 86  6 11  3 40  5.0800000  0  4G12G13G 9G 7
  20927614.375    20927620.517    18273593.072 8 -36187047.252 8
  21181348.117    21181350.745    45390508.864 8 -59216082.992 8
  22468061.130    22468065.196    77029368.845 9 -97279590.418 8
  25616312.400    25616319.199      796523.343 6  -5159937.360 8
 86  6 11  3 40 11.0800000  0  4G12G13G 9G 7
  20927513.581    20927519.708    18273064.035 9 -36187459.494 7
  21182666.030    21182669.041    45397434.530 8 -59210686.360 7
  22472308.441    22472311.505    77051683.021 7 -97262202.748 8
  25612910.255    25612917.554      778643.185 6  -5173869.939 9
 86  6 11  3 40 17.0800000  0  4G12G13G 9G 7
  20927418.766    20927422.628    18272561.307 8 -36187851.222 7
  21183985.898    21183987.747    45404366.009 9 -59205285.205 8
  22476556.785    22476560.649    77074008.852 8 -97244806.004 9
  25609509.518    25609517.046      760773.182 7  -5187794.627 8
 86  6 11  3 40 23.0800000  0  4G12G13G 9G 7
  20927327.233    20927332.258    18272084.731 8 -36188222.569 8
  21185305.053    21185307.842    45411303.260 9 -59199879.549 9
  22480807.214    22480811.596    77096346.250 8 -97227400.231 8
                  25606119.020                    -5201707.155 8
 86  6 11  3 40 29.0800000  0  4G12G13G 9G 7
  20927241.807    20927245.734    18271634.423 8 -36188573.467 8
  21186626.382    21186628.941    45418246.311 9 -59194469.374 9
  22485059.792    22485064.030    77118695.382 8 -97209985.343 8
  25602659.588    25602725.510      706742.613 7  -5215602.005 9
 86  6 11  3 40 35.0800000  0  4G12G13G 9G 7
  20927160.738    20927166.891    18271210.296 8 -36188903.955 9
  21187949.263    21187950.842    45425195.042 9 -59189054.783 8
  22489313.801    22489318.811    77141055.942 8 -97192561.522 8
  25599330.839    25599337.043      688937.422 7  -5229476.092 8
 86  6 11  3 40 41.0800000  0  4G12G13G 9G 7
  20927085.451    20927091.047    18270812.510 8 -36189213.932 7
  21189271.241    21189274.450    45432149.612 9 -59183635.637 8
  22493571.744    22493576.149    77163428.138 8 -97175128.650 7
  25595948.238    25595953.415      671157.465 7  -5243330.996 9
 86  6 11  3 40 47.0800000  0  4G12G13G 9G 7
  20927014.456    20927019.537    18270440.914 9 -36189503.481 8
  21190596.559    21190599.339    45439109.942 8 -59178212.009 7
  22497832.550    22497834.830    77185811.840 7 -97157686.797 8
  25592568.071    25592575.087      653397.288 8  -5257170.085 8
 86  6 11  3 40 53.0800000  0  4G12G13G 9G 7
  20926949.253    20926953.096    18270095.584 8 -36189772.571 8
  21191921.789    21191925.901    45446076.115 9 -59172783.816 7
  22502093.806    22502097.013    77208207.017 8 -97140236.018 8
  25589191.717    25589198.977      635652.961 8  -5270996.819 8
 86  6 11  3 40 59.0800000  0  4G12G13G 9G 7
  20926888.786    20926892.250    18269776.571 9 -36190021.146 9
  21193248.395    21193252.377    45453048.093 9 -59167351.101 8
  22506357.084    22506361.266    77230613.769 8 -97122776.204 8
  25585819.333    25585824.376      617921.338 7  -5284813.665 8
 86  6 11  3 41  5.0800000  0  4G12G13G 9G 7
  20926832.308    20926837.467    18269483.856 8 -36190249.238 9
  21194576.746    21194579.712    45460025.891 8 -59161913.851 9
  22510624.921    22510627.513    77253032.001 8 -97105307.462 8
  25582446.770    25582452.386      600200.242 7  -5298622.316 8
 86  6 11  3 41 11.0800000  0  4G12G13G 9G 7
  20926781.894    20926786.910    18269217.503 8 -36190456.775 8
  21195904.381    21195908.222    45467009.481 9 -59156472.100 8
  22514892.227    22514896.181    77275461.721 7 -97087829.753 9
  25579075.818    25579080.117      582488.415 8  -5312423.728 9
 86  6 11  3 41 17.0800000  0  4G12G13G 9G 7
  20926736.344    20926740.491    18268977.550 7 -36190643.747 7
  21197234.679    21197238.476    45473998.738 9 -59151025.912 8
  22519162.601    22519165.751    77297902.992 7 -97070343.045 8
  25575706.340    25575711.462      564787.372 8  -5326216.753 8
 86  6 11  3 41 23.0800000  0  4G12G13G 9G 7
  20926695.634    20926698.743    18268764.048 9 -36190810.116 9
  21198566.206    21198569.745    45480993.872 9 -59145575.162 7
  22523434.743    22523439.491    77320355.807 8 -97052847.346 8
                  25572347.664                    -5339996.798 8
 86  6 11  3 41 29.0800000  0  4G12G13G 9G 7
  20926660.786    20926665.483    18268576.913 9 -36190955.925 8
  21199898.395    21199902.383    45487994.843 9 -59140119.864 8
  22527709.385    22527713.545    77342820.060 8 -97035342.738 8
  25568980.272    25568986.180      510843.340 7  -5353758.340 8
 86  6 11  3 41 35.0800000  0  4G12G13G 9G 7
  20926628.787    20926634.135    18268416.240 9 -36191081.133 8
  21201231.884    21201235.526    45495001.702 8 -59134659.963 7
  22531985.973    22531990.420    77365295.785 7 -97017829.187 8
  25565624.394    25565630.933      493209.661 8  -5367498.852 9
 86  6 11  3 41 41.0800000  0  4G12G13G 9G 7
  20926604.592    20926607.516    18268281.918 8 -36191185.796 9
  21202566.305    21202570.614    45502014.317 9 -59129195.584 7
  22536266.038    22536269.190    77387782.887 8 -97000306.778 9
  25562275.900    25562279.991      475600.691 8  -5381220.122 9
 86  6 11  3 41 47.0800000  0  4G12G13G 9G 7
  20926583.449    20926587.461    18268173.940 8 -36191269.942 9
  21203902.702    21203904.568    45509032.663 8 -59123726.743 8
  22540546.719    22540550.938    77410281.253 8 -96982775.593 8
  25558926.318    25558933.673      458011.962 7  -5394925.624 9
 86  6 11  3 41 53.0800000  0  4G12G13G 9G 7
  20926567.351    20926571.543    18268092.154 8 -36191333.655 8
  21205237.502    21205242.180    45516056.647 8 -59118253.515 8
  22544829.189    22544835.331    77432790.836 8 -96965235.654 9
  25555581.687    25555589.243      440438.891 7  -5408618.919 9
 86  6 11  3 41 59.0800000  0  4G12G13G 9G 7
  20926557.259    20926561.878    18268036.601 8 -36191376.960 8
  21206576.145    21206579.442    45523086.192 9 -59112775.944 8
  22549115.716    22549119.954    77455311.515 8 -96947687.076 8
  25552241.264    25552246.888      422878.491 8  -5422302.344 8
 86  6 11  3 42  5.0800000  0  4G12G13G 9G 7
  20926551.661    20926555.577    18268007.269 8 -36191399.807 8
  21207914.312    21207918.668    45530121.298 9 -59107294.038 8
  22553402.963    22553406.518    77477843.311 8 -96930129.849 8
  25548902.901    25548907.981      405328.672 8  -5435977.531 9
 86  6 11  3 42 11.0800000  0  4G12G13G 9G 7
  20926552.663    20926556.219    18268004.149 8 -36191402.232 8
  21209253.713    21209258.820    45537161.976 8 -59101807.797 8
  22557694.033    22557696.634    77500386.268 7 -96912563.907 8
  25545564.480    25545569.674      387788.319 8  -5449645.334 9
 86  6 11  3 42 17.0800000  0  4G12G13G 9G 7
  20926555.328    20926560.116    18268027.325 8 -36191384.177 8
  21210595.225    21210599.137    45544208.230 9 -59096317.213 8
  22561985.743    22561988.866    77522940.394 7 -96894989.271 8
  25542227.872    25542233.370      370259.155 8  -5463304.416 9
 86  6 11  3 42 23.0800000  0  4G12G13G 9G 7
  20926564.428    20926570.262    18268076.803 8 -36191345.618 8
  21211937.228    21211941.154    45551260.106 8 -59090822.248 8
  22566278.535    22566283.147    77545505.626 8 -96877405.975 8
                  25538901.905                    -5476950.124 9
 86  6 11  3 42 29.0800000  0  4G12G13G 9G 7
  20926578.477    20926584.127    18268152.636 7 -36191286.534 8
  21213280.318    21213284.029    45558317.498 8 -59085322.976 7
  22570574.338    22570579.619    77568081.902 7 -96859814.064 8
  25535567.447    25535573.155      316513.944 7  -5490576.926 9
 86  6 11  3 42 35.0800000  0  4G12G13G 9G 7
  20926598.102    20926602.865    18268254.683 9 -36191207.008 8
  21214625.008    21214628.878    45565380.411 9 -59079819.399 8
  22574874.189    22574876.784    77590669.112 7 -96842213.656 8
  25532244.853    25532251.199      299053.346 8  -5504182.568 9
 86  6 11  3 42 41.0800000  0  4G12G13G 9G 7
  20926622.832    20926628.260    18268383.028 7 -36191107.006 7
  21215968.957    21215972.340    45572448.915 9 -59074311.467 8
  22579174.066    22579178.599    77613267.317 8 -96824604.661 9
  25528927.130    25528932.232      281616.804 8  -5517769.081 8
 86  6 11  3 42 47.0800000  0  4G12G13G 9G 7
  20926652.149    20926657.574    18268537.640 8 -36190986.543 8
  21217316.224    21217319.937    45579522.895 8 -59068799.285 8
  22583475.273    22583479.984    77635876.574 7 -96806987.063 8
  25525613.086    25525619.290      264200.812 8  -5531339.989 9
 86  6 11  3 42 53.0800000  0  4G12G13G 9G 7
  20926686.960    20926691.124    18268718.549 8 -36190845.560 9
  21218662.692    21218666.676    45586602.418 9 -59063282.772 8
  22587780.537    22587783.854    77658496.825 6 -96789360.900 8
  25522302.212    25522308.007      246800.584 8  -5544898.600 9
 86  6 11  3 42 59.0800000  0  4G12G13G 9G 7
  20926725.223    20926731.502    18268925.891 7 -36190683.993 6
  21220011.304    21220014.558    45593687.565 9 -59057761.872 7
  22592087.096    22592091.108    77681128.041 8 -96771726.192 9
  25518994.599    25518999.321      229413.306 8  -5558447.125 9
 86  6 11  3 43  5.0800000  0  4G12G13G 9G 7
  20926770.427    20926775.604    18269159.581 8 -36190501.909 8
  21221360.657    21221364.666    45600778.317 9 -59052236.606 8
  22596395.510    22596399.258    77703770.248 7 -96754082.917 8
  25515687.466    25515692.419      212036.739 8  -5571987.299 9
 86  6 11  3 43 11.0800000  0  4G12G13G 9G 7
  20926820.252    20926825.944    18269419.700 8 -36190299.209 8
  21222711.614    21222715.976    45607874.782 8 -59046706.891 8
  22600706.483    22600710.895    77726423.472 7 -96736431.062 8
  25512382.586    25512387.483      194670.161 8  -5585519.694 9
 86  6 11  3 43 17.0800000  0  4G12G13G 9G 7
  20926874.728    20926879.543    18269706.310 8 -36190075.883 9
  21224063.038    21224066.828    45614977.003 9 -59041172.686 8
  22605018.787    22605023.071    77749087.717 7 -96718770.613 8
  25509078.707    25509086.023      177315.523 9  -5599042.794 9
 86  6 11  3 43 23.0800000  0  4G12G13G 9G 7
  20926934.193    20926939.227    18270019.334 8 -36189831.971 8
  21225415.135    21225419.487    45622084.842 9 -59035634.117 8
  22609333.989    22609337.700    77771762.946 8 -96701101.607 9
                  25505787.054                    -5612551.765 8
 86  6 11  3 43 29.0800000  0  4G12G13G 9G 7
  20926999.386    20927004.774    18270358.696 8 -36189567.528 7
  21226768.573    21226772.593    45629198.186 8 -59030091.259 8
  22613651.195    22613655.685    77794449.025 8 -96683424.153 7
  25502486.499    25502490.186      123808.427 8  -5626041.287 8
 86  6 11  3 43 35.0800000  0  4G12G13G 9G 7
  20927069.179    20927073.769    18270724.518 9 -36189282.476 7
  21228124.251    21228127.504    45636317.040 9 -59024544.081 7
  22617970.181    22617973.934    77817145.959 9 -96665738.234 7
  25499198.730    25499203.567      106524.435 8  -5639509.351 9
 86  6 11  3 43 41.0800000  0  4G12G13G 9G 7
  20927144.302    20927148.907    18271116.704 8 -36188976.877 8
  21229479.207    21229483.507    45643441.441 9 -59018992.597 7
  22622291.565    22622295.161    77839853.715 7 -96648043.880 8
  25495913.897    25495919.063       89265.023 8  -5652958.219 8
 86  6 11  3 43 47.0800000  0  4G12G13G 9G 7
  20927223.090    20927227.910    18271535.242 8 -36188650.743 7
  21230835.966    21230838.933    45650571.326 9 -59013436.847 7
  22626615.473    22626618.569    77862572.339 8 -96630341.067 8
  25492632.843    25492638.137       72025.655 9  -5666391.499 8
 86  6 11  3 43 53.0800000  0  4G12G13G 9G 7
  20927309.098    20927311.535    18271980.183 8 -36188304.040 8
  21232194.569    21232197.192    45657706.674 9 -59007876.822 8
  22630940.551    22630944.771    77885301.592 8 -96612629.965 8
  25489355.561    25489360.428       54802.064 8  -5679812.471 8
 86  6 11  3 43 59.0800000  0  4G12G13G 9G 7
  20927398.015    20927402.084    18272451.499 8 -36187936.776 8
  21233552.139    21233556.122    45664847.409 9 -59002312.614 8
  22635267.172    22635271.297    77908041.589 7 -96594910.477 7
  25486080.473    25486085.297       37591.495 9  -5693223.306 8
 86  6 11  3 44  5.0800000  0  4G12G13G 9G 7
  20927491.812    20927496.726    18272949.138 9 -36187549.001 7
  21234912.857    21234915.794    45671993.540 8 -58996744.195 7
  22639596.943    22639600.269    77930792.254 8 -96577182.693 9
  25482808.755    25482812.763       20391.663 9  -5706625.767 8
 86  6 11  3 44 11.0800000  0  4G12G13G 9G 7
  20927591.973    20927597.366    18273473.057 9 -36187140.770 7
  21236272.459    21236275.784    45679145.071 9 -58991171.553 8
  22643928.378    22643932.228    77953553.548 9 -96559446.633 7
  25479537.002    25479542.111        3201.947 9  -5720020.346 8
 86  6 11  3 44 17.0800000  0  4G12G13G 9G 7
  20927696.942    20927702.128    18274023.336 8 -36186711.972 7
  21237634.780    21237638.491    45686301.965 9 -58985594.769 7
  22648261.437    22648266.688    77976325.386 7 -96541702.328 7
  25476268.682    25476272.862      -13975.392 8  -5733405.289 8
 86  6 11  3 44 23.0800000  0  4G12G13G 9G 7
  20927805.334    20927810.810    18274599.919 8 -36186262.696 8
  21238998.046    21239002.228    45693464.179 8 -58980013.823 8
  22652597.912    22652601.545    77999107.845 8 -96523949.766 8
                  25473006.625                    -5746775.637 9
 86  6 11  3 44 29.0800000  0  4G12G13G 9G 7
  20927920.477    20927925.380    18275202.710 8 -36185792.984 8
  21240362.056    21240366.152    45700631.690 8 -58974428.744 8
  22656933.481    22656939.011    78021900.709 8 -96506189.093 8
  25469742.206    25469746.619      -67305.707 8  -5760126.179 8
 86  6 11  3 44 35.0800000  0  4G12G13G 9G 7
  20928041.598    20928044.804    18275831.767 8 -36185302.800 9
  21241726.552    21241730.706    45707804.465 9 -58968839.565 9
  22661273.319    22661277.372    78044703.960 8 -96488420.336 8
  25466486.921    25466491.270      -84411.436 9  -5773455.304 8
 86  6 11  3 44 41.0800000  0  4G12G13G 9G 7
  20928165.347    20928170.915    18276487.179 8 -36184792.087 7
  21243093.330    21243096.936    45714982.603 9 -58963246.209 8
  22665614.978    22665619.193    78067517.829 8 -96470643.302 8
  25463236.718    25463241.287     -101492.154 8  -5786765.339 8
 86  6 11  3 44 47.0800000  0  4G12G13G 9G 7
  20928294.932    20928300.056    18277168.967 7 -36184260.832 9
  21244458.838    21244463.067    45722166.162 9 -58957648.634 9
  22669958.326    22669962.084    78090342.075 7 -96452858.171 8
  25459990.735    25459994.961     -118553.416 9  -5800059.823 9
 86  6 11  3 44 53.0800000  0  4G12G13G 9G 7
  20928429.326    20928435.433    18277877.135 8 -36183709.004 7
  21245827.145    21245831.645    45729355.021 8 -58952046.922 8
  22674302.711    22674306.961    78113176.821 8 -96435064.866 7
  25456746.384    25456752.112     -135598.852 8  -5813341.977 9
 86  6 11  3 44 59.0800000  0  4G12G13G 9G 7
  20928569.550    20928574.644    18278611.758 8 -36183136.590 7
  21247196.853    21247200.137    45736549.251 8 -58946441.018 8
  22678650.387    22678654.931    78136022.011 9 -96417263.426 8
  25453506.554    25453511.165     -152631.251 9  -5826613.965 8
 86  6 11  3 45  5.0800000  0  4G12G13G 9G 7
  20928714.910    20928720.040    18279372.727 8 -36182543.614 7
  21248567.162    21248570.690    45743748.893 8 -58940830.926 9
  22682999.902    22683003.538    78158877.620 9 -96399453.852 7
  25450266.037    25450272.167     -169652.676 8  -5839877.422 8
 86  6 11  3 45 11.0800000  0  4G12G13G 9G 7
  20928864.524    20928868.644    18280160.190 9 -36181930.005 9
  21249935.993    21249941.911    45750953.912 9 -58935216.621 8
  22687350.040    22687355.471    78181743.706 7 -96381636.140 8
  25447029.470    25447035.082     -186663.635 9  -5853132.716 8
 86  6 11  3 45 17.0800000  0  4G12G13G 9G 7
  20929019.192    20929024.804    18280974.015 8 -36181295.868 7
  21251308.968    21251314.098    45758164.270 9 -58929598.159 9
  22691705.151    22691710.244    78204620.161 8 -96363810.335 7
  25443793.903    25443799.575     -203661.540 8  -5866377.842 8
 86  6 11  3 45 23.0800000  0  4G12G13G 9G 7
  20929179.326    20929183.790    18281814.212 9 -36180641.162 7
  21252682.474    21252687.101    45765379.952 9 -58923975.549 8
  22696060.547    22696064.505    78227506.896 8 -96345976.510 8
                  25440564.005     -220639.889 8
 86  6 11  3 45 29.0800000  0  4G12G13G 9G 7
  20929344.279    20929349.075    18282680.825 9 -36179965.881 7
  21254056.908    21254062.171    45772600.922 9 -58918348.829 8
  22700416.947    22700422.104    78250403.934 8 -96328134.661 7
  25437338.202    25437341.915     -237592.107 9  -5826445.713 8
 86  6 11  3 45 35.0800000  0  4G12G13G 9G 7
  20929515.285    20929518.557    18283573.811 9 -36179270.052 7
  21255431.792    21255435.696    45779827.156 8 -58912717.986 7
  22704776.385    22704779.896    78273311.236 7 -96310284.821 8
  25434118.191    25434121.988     -254516.518 9  -5839633.585 8
 86  6 11  3 45 41.0800000  0  4G12G13G 9G 7
  20929689.342    20929692.822    18284493.148 9 -36178553.677 7
  21256808.194    21256811.754    45787058.610 9 -58907083.075 8
  22709136.571    22709140.729    78296228.741 8 -96292427.026 7
  25430900.997    25430905.855     -271416.624 9  -5852801.996 7
 86  6 11  3 45 47.0800000  0  4G12G13G 9G 7
  20929869.426    20929873.912    18285438.828 8 -36177816.795 8
  21258186.055    21258189.614    45794295.249 8 -58901444.142 7
  22713499.835    22713503.646    78319156.383 9 -96274561.338 7
  25427689.156    25427693.019     -288296.913 9  -5865955.463 8
 86  6 11  3 45 53.0800000  0  4G12G13G 9G 7
  20930054.091    20930058.008    18286410.675 9 -36177059.501 7
  21259563.600    21259567.390    45801536.956 9 -58895801.247 9
  22717865.802    22717869.302    78342094.046 8 -96256687.831 8
  25424479.454    25424484.413     -305161.422 9  -5879096.639 8
 86  6 11  3 45 59.0800000  0  4G12G13G 9G 7
  20930245.004    20930247.529    18287408.737 8 -36176281.788 7
  21260942.664    21260946.925    45808783.782 9 -58890154.377 7
  22722231.120    22722236.535    78365041.796 7 -96238806.475 8
  25421273.530    25421277.815     -322012.821 8  -5892227.597 7
 86  6 11  3 46  5.0800000  0  4G12G13G 9G 7
  20930438.894    20930442.002    18288433.098 8 -36175483.595 8
  21262322.899    21262326.675    45816035.731 9 -58884503.508 7
  22726600.902    22726603.175    78387999.590 9 -96220917.296 8
  25418068.621    25418072.450     -338853.236 9  -5905349.993 8
 86  6 11  3 46 11.0800000  0  4G12G13G 9G 7
  20930638.261    20930643.103    18289483.738 9 -36174664.920 8
  21263703.479    21263708.627    45823292.851 9 -58878848.605 8
  22730970.482    22730973.623    78410967.436 8 -96203020.268 7
  25414865.380    25414870.188     -355683.029 9  -5918464.116 7
 86  6 11  3 46 17.0800000  0  4G12G13G 9G 7
  20930843.740    20930849.185    18290560.734 8 -36173825.693 8
  21265086.278    21265090.949    45830555.221 9 -58873189.612 7
  22735343.749    22735347.825    78433945.375 7 -96185115.375 7
  25411666.335    25411670.488     -372499.233 8  -5931567.650 7
 86  6 11  3 46 23.0800000  0  4G12G13G 9G 7
  20931053.667    20931058.090    18291664.200 9 -36172965.853 8
  21266468.718    21266473.186    45837822.906 9 -58867526.466 9
  22739718.561    22739720.900    78456933.378 8 -96167202.652 8
                  25408474.172                    -5944655.206 7
 86  6 11  3 46 29.0800000  0  4G12G13G 9G 7
  20931269.258    20931273.285    18292794.131 8 -36172085.397 7
  21267852.735    21267856.727    45845095.802 9 -58861859.289 9
  22744094.513    22744098.226    78479931.499 8 -96149282.034 8
  25405278.285    25405285.598     -425527.251 8  -5957721.815 7
 86  6 11  3 46 35.0800000  0  4G12G13G 9G 7
  20931488.285    20931492.764    18293950.447 8 -36171184.368 7
  21269238.247    21269243.133    45852373.978 9 -58856187.979 8
  22748472.684    22748475.972    78502939.635 9 -96131353.617 8
  25402093.889    25402098.054     -442267.939 8  -5970766.512 7
 86  6 11  3 46 41.0800000  0  4G12G13G 9G 7
  20931713.372    20931717.307    18295133.194 8 -36170262.752 8
  21270623.134    21270627.620    45859657.371 9 -58850512.599 7
  22752853.828    22752856.976    78525957.876 7 -96113417.332 7
  25398913.157    25398916.434     -458984.552 9  -5983792.044 7
 86  6 11  3 46 47.0800000  0  4G12G13G 9G 7
  20931943.939    20931948.472    18296342.282 8 -36169320.599 7
  21272010.579    21272014.460    45866945.918 9 -58844833.215 8
  22757235.860    22757239.058    78548986.045 9 -96095473.305 7
  25395735.716    25395739.249     -475680.811 9  -5996802.096 7
 86  6 11  3 46 53.0800000  0  4G12G13G 9G 7
  20932178.974    20932183.154    18297577.661 8 -36168357.962 7
  21273398.224    21273403.528    45874239.550 8 -58839149.861 8
  22761619.574    22761622.850    78572024.060 8 -96077521.621 7
  25392561.306    25392564.696     -492361.260 9  -6009799.869 7
 86  6 11  3 46 59.0800000  0  4G12G13G 9G 7
  20932419.384    20932423.838    18298839.294 8 -36167374.884 9
  21274787.081    21274791.506    45881538.212 9 -58833462.594 8
  22766004.491    22766009.462    78595071.841 9 -96059562.300 7
  25389389.303    25389393.638     -509028.385 8  -6022787.233 7
 86  6 11  3 47  5.0800000  0  4G12G13G 9G 7
  20932664.083    20932668.259    18300127.357 9 -36166371.194 7
  21276176.443    21276181.197    45888841.945 9 -58827771.374 9
  22770392.263    22770397.079    78618129.568 8 -96041595.240 8
  25386219.883    25386223.655     -525684.119 9  -6035765.725 7
 86  6 11  3 47 11.0800000  0  4G12G13G 9G 7
  20932913.510    20932918.914    18301441.767 9 -36165346.980 6
  21277567.440    21277572.651    45896150.720 9 -58822076.214 8
  22774783.565    22774787.640    78641197.078 9 -96023620.566 8
  25383052.358    25383056.388     -542328.940 9  -6048735.706 8
 86  6 11  3 47 17.0800000  0  4G12G13G 9G 7
  20933169.816    20933173.939    18302782.547 8 -36164302.200 7
  21278959.611    21278965.122    45903464.527 9 -58816377.147 8
  22779172.727    22779177.593    78664274.451 8 -96005638.207 7
  25379886.706    25379891.031     -558959.556 9  -6061694.629 7
 86  6 11  3 47 23.0800000  0  4G12G13G 9G 7
  20933429.085    20933433.748    18304149.698 9 -36163236.904 8
  21280352.524    21280356.820    45910783.397 9 -58810674.129 8
  22783567.824    22783571.198    78687361.468 8 -95987648.325 8
                  25376731.353                    -6074637.050 7
 86  6 11  3 47 29.0800000  0  4G12G13G 9G 7
  20933694.177    20933699.022    18305543.200 8 -36162151.048 8
  21281745.810    21281750.622    45918107.321 9 -58804967.161 8
  22787962.348    22787967.114    78710458.243 8 -95969650.827 8
  25373570.932    25373573.880     -611740.636 8  -6087558.174 9
 86  6 11  3 47 35.0800000  0  4G12G13G 9G 7
  20933964.757    20933969.620    18306962.978 8 -36161044.734 8
  21283140.527    21283145.438    45925436.365 8 -58799256.222 8
  22792359.456    22792363.238    78733564.750 8 -95951645.769 8
  25370419.926    25370426.130     -628294.863 8  -6100457.579 7
 86  6 11  3 47 41.0800000  0  4G12G13G 9G 7
  20934238.875    20934244.826    18308409.092 8 -36159917.892 8
  21284536.705    21284541.258    45932770.475 8 -58793541.323 8
  22796757.037    22796762.932    78756680.904 8 -95933633.188 7
  25367275.374    25367280.211     -644824.111 9  -6113337.898 8
 86  6 11  3 47 47.0800000  0  4G12G13G 9G 7
  20934518.705    20934524.542    18309881.599 8 -36158770.479 8
  21285933.940    21285937.706    45940109.564 9 -58787822.547 8
  22801158.386    22801163.524    78779806.665 8 -95915613.122 8
  25364134.729    25364138.113     -661334.102 9  -6126202.812 7
 86  6 11  3 47 53.0800000  0  4G12G13G 9G 7
  20934806.312    20934810.535    18311380.464 8 -36157602.534 7
  21287330.491    21287334.097    45947453.597 8 -58782099.926 8
  22805561.901    22805565.390    78802942.017 8 -95897585.562 8
  25360995.336    25360999.050     -677828.326 8  -6139055.449 7
 86  6 11  3 47 59.0800000  0  4G12G13G 9G 7
  20935096.126    20935100.231    18312905.607 8 -36156414.095 8
  21288728.218    21288733.866    45954802.603 8 -58776373.433 8
  22809964.925    22809969.595    78826086.980 8 -95879550.531 9
  25357857.930    25357863.849     -694309.178 8  -6151897.677 8
 86  6 11  3 48  5.0800000  0  4G12G13G 9G 7
  20935390.681    20935396.107    18314457.080 8 -36155205.173 8
  21290128.591    21290132.473    45962156.639 8 -58770643.004 9
  22814371.061    22814376.376    78849241.564 8 -95861508.007 7
  25354723.587    25354730.551     -710778.484 8  -6164730.888 8
 86  6 11  3 48 11.0800000  0  4G12G13G 9G 7
  20935691.368    20935695.490    18316034.904 9 -36153975.693 7
  21291529.156    21291533.656    45969515.600 8 -58764908.752 8
  22818779.854    22818784.107    78872405.650 7 -95843458.065 8
  25351592.880    25351598.627     -727236.440 8  -6177555.273 9
 86  6 11  3 48 17.0800000  0  4G12G13G 9G 7
  20935996.512    20936000.963    18317639.119 9 -36152725.658 8
  21292929.991    21292933.510    45976879.566 9 -58759170.590 8
  22823190.053    22823194.436    78895579.290 7 -95825400.704 8
  25348464.004    25348469.750     -743679.598 8  -6190368.100 8
 86  6 11  3 48 23.0800000  0  4G12G13G 9G 7
  20936306.595    20936311.545    18319269.718 8 -36151455.062 8
  21294332.953    21294336.917    45984248.593 9 -58753428.498 8
  22827600.125    22827606.024    78918762.496 7 -95807335.849 7
                  25345340.178     -760100.698 8
 86  6 11  3 48 29.0800000  0  4G12G13G 9G 7
  20936622.797    20936626.833    18320926.653 9 -36150163.940 8
  21295734.961    21295739.349    45991622.563 9 -58747682.552 9
  22832013.302    22832019.402    78941955.151 7 -95789263.672 8
  25342220.317    25342224.051     -776494.178 8  -6150147.905 8
 86  6 11  3 48 35.0800000  0  4G12G13G 9G 7
  20936943.483    20936947.874    18322610.004 9 -36148852.228 8
  21297139.963    21297144.726    45999001.546 9 -58741932.689 8
  22836428.274    22836434.475    78965157.340 8 -95771184.048 8
  25339105.578    25339109.771     -792859.524 8  -6162900.102 8
 86  6 11  3 48 41.0800000  0  4G12G13G 9G 7
  20937267.466    20937271.784    18324319.739 9 -36147519.984 8
  21298544.260    21298548.829    46006385.484 8 -58736178.974 8
  22840846.105    22840850.945    78988368.924 8 -95753097.095 8
  25335995.516    25335999.855     -809200.438 8  -6175633.281 7
 86  6 11  3 48 47.0800000  0  4G12G13G 9G 7
  20937598.757    20937603.710    18326055.759 9 -36146167.229 7
  21299949.708    21299954.750    46013774.341 8 -58730421.421 8
  22845265.987    22845269.240    79011589.877 7 -95735002.847 8
  25332888.882    25332894.940     -825521.636 9  -6188351.086 8
 86  6 11  3 48 53.0800000  0  4G12G13G 9G 7
  20937934.064    20937937.431    18327818.081 8 -36144793.991 8
  21301357.591    21301362.646    46021168.106 9 -58724660.044 8
  22849686.435    22849689.411    79034820.275 7 -95716901.239 7
  25329787.593    25329791.661     -841827.017 9  -6201056.560 8
 86  6 11  3 48 59.0800000  0  4G12G13G 9G 7
  20938274.526    20938277.914    18329606.807 8 -36143400.174 7
  21302765.958    21302770.112    46028566.852 9 -58718894.772 8
  22854108.444    22854112.979    79058060.036 7 -95698792.351 8
  25326685.748    25326691.196     -858118.849 8  -6213751.489 7
 86  6 11  3 49  5.0800000  0  4G12G13G 9G 7
  20938619.583    20938624.690    18331421.907 9 -36141985.811 8
  21304175.127    21304178.867    46035970.608 9 -58713125.616 8
  22858532.217    22858536.566    79081309.186 7 -95680676.115 8
  25323588.537    25323594.344     -874399.015 8  -6226437.323 7
 86  6 11  3 49 11.0800000  0  4G12G13G 9G 7
  20938969.380    20938974.793    18333263.399 8 -36140550.869 7
  21305584.011    21305590.111    46043379.202 8 -58707352.696 8
  22862958.498    22862962.241    79104567.585 7 -95662552.696 8
  25320493.001    25320497.534     -890667.460 8  -6239114.025 8
 86  6 11  3 49 17.0800000  0  4G12G13G 9G 7
  20939325.568    20939330.674    18335131.197 9 -36139095.460 8
  21306994.496    21307001.441    46050792.634 9 -58701576.000 8
  22867385.766    22867390.926    79127835.220 8 -95644422.083 8
  25317399.297    25317405.139     -906920.485 8  -6251778.715 8
 86  6 11  3 49 23.0800000  0  4G12G13G 9G 7
  20939685.750    20939690.600    18337025.284 8 -36137619.539 8
  21308407.243    21308411.454    46058210.915 9 -58695795.517 8
  22871815.687    22871821.225    79151111.983 7 -95626284.336 8
                  25314315.885                    -6264425.755 8
 86  6 11  3 49 29.0800000  0  4G12G13G 9G 7
  20940051.386    20940056.208    18338945.691 8 -36136123.121 7
  21309819.338    21309823.817    46065633.962 9 -58690011.314 8
  22876245.725    22876251.267    79174397.899 9 -95608139.474 8
  25311228.759    25311233.362     -959387.558 9  -6277050.821 8
 86  6 11  3 49 35.0800000  0  4G12G13G 9G 7
  20940421.780    20940426.971    18340892.325 9 -36134606.259 7
  21311232.761    21311237.297    46073061.728 9 -58684223.450 8
  22880678.584    22880684.183    79197692.832 7 -95589987.581 8
  25308150.080    25308154.667     -975561.706 8  -6289654.048 8
 86  6 11  3 49 41.0800000  0  4G12G13G 9G 7
  20940796.891    20940800.230    18342865.246 9 -36133068.923 8
  21312646.996    21312651.592    46080494.318 9 -58678431.826 8
  22885114.133    22885119.817    79220996.927 8 -95571828.550 8
  25305077.095    25305081.883     -991712.152 7  -6302238.411 9
 86  6 11  3 49 47.0800000  0  4G12G13G 9G 7
  20941177.172    20941182.057    18344864.467 8 -36131511.095 9
  21314062.143    21314066.828    46087931.757 9 -58672636.418 9
  22889550.689    22889555.467    79244310.187 8 -95553662.377 9
  25302007.601    25302012.376    -1007842.429 8  -6314807.452 8
 86  6 11  3 49 53.0800000  0  4G12G13G 9G 7
  20941561.754    20941567.712    18346889.938 9 -36129932.803 9
  21315478.174    21315483.335    46095373.988 8 -58666837.285 9
  22893990.347    22893993.528    79267632.487 7 -95535489.157 7
  25298940.226    25298946.260    -1023956.708 7  -6327364.019 8
 86  6 11  3 49 59.0800000  0  4G12G13G 9G 7
  20941952.166    20941957.477    18348941.808 8 -36128333.946 8
  21316895.907    21316899.587    46102821.017 9 -58661034.391 9
  22898428.772    22898433.348    79290963.899 8 -95517308.835 8
  25295876.599    25295882.848    -1040057.389 8  -6339910.000 7
 86  6 11  3 50  5.0800000  0  4G12G13G 9G 7
  20942348.194    20942353.229    18351020.056 7 -36126714.528 8
  21318313.261    21318318.465    46110272.893 9 -58655227.744 9
  22902869.830    22902874.963    79314304.386 7 -95499121.447 8
  25292815.119    25292819.592    -1056146.142 8  -6352446.677 8
 86  6 11  3 50 11.0800000  0  4G12G13G 9G 7
  20942749.622    20942753.329    18353124.614 8 -36125074.614 8
  21319732.840    21319736.704    46117729.569 9 -58649417.339 8
  22907313.185    22907317.445    79337653.905 8 -95480927.014 8
  25289756.472    25289760.574    -1072222.795 8  -6364973.926 8
 86  6 11  3 50 17.0800000  0  4G12G13G 9G 7
  20943154.003    20943159.784    18355255.503 8 -36123414.181 7
  21321152.176    21321157.849    46125191.007 9 -58643603.238 8
  22911758.308    22911762.231    79361012.451 7 -95462725.552 7
  25286699.952    25286704.501    -1088283.268 9  -6377488.583 8
 86  6 11  3 50 23.0800000  0  4G12G13G 9G 7
  20943564.470    20943569.942    18357412.649 8 -36121733.287 8
  21322572.907    21322577.964    46132657.085 9 -58637785.511 8
  22916204.636    22916209.669    79384379.844 8 -95444517.205 8
                  25283654.110                    -6389985.061 8
 86  6 11  3 50 29.0800000  0  4G12G13G 9G 7
  20943980.248    20943986.144    18359596.145 8 -36120031.865 8
  21323995.213    21323999.740    46140128.021 9 -58631963.999 8
  22920653.789    22920658.247    79407756.190 8 -95426301.865 8
  25280601.960    25280607.441    -1140564.495 8  -6402459.746 8
 86  6 11  3 50 35.0800000  0  4G12G13G 9G 7
  20944401.586    20944404.720    18361806.036 9 -36118309.873 8
  21325417.489    21325422.947    46147603.773 9 -58626138.738 8
  22925103.441    22925108.147    79431141.464 8 -95408079.572 8
  25277560.748    25277565.563    -1156545.327 8  -6414911.453 9
 86  6 11  3 50 41.0800000  0  4G12G13G 9G 7
  20944826.487    20944831.281    18364042.294 8 -36116567.324 7
  21326841.798    21326846.297    46155084.329 9 -58620309.722 9
  22929555.819    22929560.393    79454535.789 7 -95389850.222 8
  25274525.212    25274529.847    -1172501.242 8  -6427344.603 8
 86  6 11  3 50 47.0800000  0  4G12G13G 9G 7
  20945257.501    20945262.320    18366304.972 8 -36114804.195 8
  21328266.565    21328270.032    46162569.741 9 -58614476.938 9
  22934009.188    22934014.000    79477938.925 8 -95371614.015 7
  25271493.072    25271496.134    -1188437.449 8  -6439762.424 8
 86  6 11  3 50 53.0800000  0  4G12G13G 9G 7
  20945692.366    20945696.447    18368593.965 7 -36113020.569 8
  21329692.361    21329695.758    46170059.837 9 -58608640.499 7
  22938464.084    22938468.451    79501350.898 8 -95353370.918 7
  25268463.108    25268467.658    -1204357.579 9  -6452167.724 8
 86  6 11  3 50 59.0800000  0  4G12G13G 9G 7
  20946132.216    20946138.701    18370909.269 8 -36111216.436 8
  21331117.642    21331122.027    46177554.669 9 -58602800.368 9
  22942919.934    22942926.155    79524771.742 7 -95335120.923 7
  25265436.241    25265440.605    -1220264.036 8  -6464562.350 9
 86  6 11  3 51  5.0800000  0  4G12G13G 9G 7
  20946578.965    20946583.365    18373250.855 7 -36109391.819 8
  21332544.756    21332548.076    46185054.098 9 -58596956.654 8
  22947379.386    22947383.684    79548201.203 8 -95316864.201 8
  25262410.835    25262417.634    -1236158.542 9  -6476947.677 8
 86  6 11  3 51 11.0800000  0  4G12G13G 9G 7
  20947028.690    20947034.500    18375618.735 8 -36107546.728 7
  21333972.718    21333977.346    46192558.222 9 -58591109.287 9
  22951839.598    22951843.886    79571639.444 8 -95298600.641 8
  25259389.965    25259394.330    -1252040.512 8  -6489323.221 8
 86  6 11  3 51 17.0800000  0  4G12G13G 9G 7
  20947485.050    20947490.133    18378012.891 9 -36105681.137 7
  21335401.694    21335406.402    46200067.019 9 -58585258.281 9
  22956301.884    22956306.066    79595086.391 8 -95280330.300 8
                  25256375.420                    -6501685.658 8
 86  6 11  3 51 23.0800000  0  4G12G13G 9G 7
  20947945.454    20947950.699    18380433.240 8 -36103795.169 8
  21336831.272    21336836.294    46207580.389 9 -58579403.696 8
  22960763.218    22960769.697    79618541.987 7 -95262053.204 8
  25253309.747    25253361.074    -1304169.099 7  -6514029.554 8
 86  6 11  3 51 29.0800000  0  4G12G13G 9G 7
  20948411.494    20948415.300    18382879.743 8 -36101888.779 8
  21338261.339    21338266.011    46215098.370 9 -58573545.538 9
  22965230.517    22965234.308    79642006.127 7 -95243769.464 8
  25250347.087    25250351.065    -1319981.636 8  -6526350.694 8
 86  6 11  3 51 35.0800000  0  4G12G13G 9G 7
  20948882.174    20948886.145    18385352.350 8 -36099962.074 7
  21339692.656    21339697.325    46222620.852 9 -58567683.851 9
  22969695.996    22969701.544    79665478.852 8 -95225479.032 8
  25247342.843    25247347.837    -1335765.189 7  -6538649.943 8
 86  6 11  3 51 41.0800000  0  4G12G13G 9G 7
  20949357.630    20949360.952    18387851.115 8 -36098015.000 8
  21341125.432    21341129.842    46230147.925 9 -58561818.606 9
  22974163.225    22974169.189    79688959.989 7 -95207182.037 8
  25244345.783    25244348.902    -1351525.095 9  -6550930.360 8
 86  6 11  3 51 47.0800000  0  4G12G13G 9G 7
  20949837.542    20949842.586    18390376.132 8 -36096047.432 8
  21342558.590    21342563.652    46237679.549 9 -58555949.806 8
  22978634.828    22978639.496    79712449.557 7 -95188878.492 8
  25241350.755    25241354.589    -1367265.400 8  -6563195.551 8
 86  6 11  3 51 53.0800000  0  4G12G13G 9G 7
  20950323.120    20950328.361    18392927.425 9 -36094059.421 8
  21343992.791    21343997.011    46245215.673 9 -58550077.497 9
  22983106.729    22983112.017    79735947.561 7 -95170568.351 9
  25238357.183    25238362.064    -1382989.698 8  -6575448.242 8
 86  6 11  3 51 59.0800000  0  4G12G13G 9G 7
  20950814.488    20950818.884    18395504.933 8 -36092050.961 8
  21345428.004    21345431.979    46252756.314 8 -58544201.674 8
  22987580.019    22987583.468    79759454.110 8 -95152251.560 8
  25235367.150    25235372.631    -1398700.262 8  -6587690.221 8
 86  6 11  3 52  5.0800000  0  4G12G13G 9G 7
  20951309.181    20951313.273    18398108.659 8 -36090022.086 9
  21346863.216    21346867.377    46260301.422 8 -58538322.350 9
  22992054.549    22992058.070    79782969.128 9 -95133928.167 9
  25232379.662    25232384.034    -1414398.604 9  -6599922.689 9
 86  6 11  3 52 11.0800000  0  4G12G13G 9G 7
  20951809.091    20951815.208    18400738.617 9 -36087972.768 8
  21348300.230    21348304.722    46267851.112 9 -58532439.502 9
  22996529.920    22996534.913    79806492.476 7 -95115598.290 8
  25229393.971    25229399.695    -1430084.224 8  -6612145.237 9
 86  6 11  3 52 17.0800000  0  4G12G13G 9G 7
  20952315.777    20952320.465    18403394.792 8 -36085903.014 8
  21349737.188    21349741.536    46275405.303 9 -58526553.108 8
  23001009.547    23001013.010    79830024.266 8 -95097261.844 9
                  25226418.460                    -6624354.219 8
 86  6 11  3 52 23.0800000  0  4G12G13G 9G 7
  20952825.574    20952831.047    18406077.223 8 -36083812.799 7
  21351175.261    21351180.883    46282964.110 9 -58520663.140 8
  23005487.153    23005493.075    79853564.411 8 -95078918.871 8
  25223338.458    25223441.141    -1482015.731 8  -6636544.059 8
 86  6 11  3 52 29.0800000  0  4G12G13G 9G 7
  20953341.273    20953346.980    18408785.980 8 -36081702.090 8
  21352615.682    21352619.258    46290527.560 9 -58514769.536 8
  23009968.639    23009973.125    79877113.018 8 -95060569.306 8
  25220465.050    25220470.903    -1497629.470 8  -6648710.713 8
 86  6 11  3 52 35.0800000  0  4G12G13G 9G 7
  20953861.618    20953866.143    18411520.925 8 -36079570.961 8
  21354055.703    21354060.065    46298095.489 9 -58508872.448 8
  23014451.846    23014457.380    79900669.946 7 -95042213.263 8
  25217500.522    25217503.698    -1513215.610 9  -6660855.350 8
 86  6 11  3 52 41.0800000  0  4G12G13G 9G 7
  20954387.392    20954391.377    18414282.100 8 -36077419.397 8
  21355495.719    21355501.111    46305667.888 8 -58502971.875 8
  23018936.078    23018942.172    79924235.235 8 -95023850.710 8
  25214537.197    25214542.867    -1528777.149 9  -6672981.225 8
 86  6 11  3 52 47.0800000  0  4G12G13G 9G 7
  20954916.949    20954921.560    18417069.478 8 -36075247.416 8
  21356937.520    21356942.512    46313244.781 9 -58497067.798 9
  23023421.695    23023426.394    79947808.825 8 -95005481.675 8
  25211580.947    25211585.558    -1544319.148 7  -6685091.871 8
 86  6 11  3 52 53.0800000  0  4G12G13G 9G 7
  20955452.818    20955456.398    18419883.169 8 -36073054.931 8
  21358380.878    21358386.080    46320826.286 8 -58491160.140 9
  23027908.064    23027914.393    79971390.713 8 -94987106.194 8
  25208625.526    25208630.137    -1559844.909 9  -6697189.848 9
 86  6 11  3 52 59.0800000  0  4G12G13G 9G 7
  20955994.221    20955998.783    18422723.114 8 -36070841.976 8
  21359824.810    21359829.005    46328412.246 8 -58485248.990 9
  23032399.124    23032402.529    79994980.745 8 -94968724.345 9
  25205674.399    25205678.366    -1575356.663 8  -6709276.924 8
 86  6 11  3 53  5.0800000  0  4G12G13G 9G 7
  20956538.937    20956544.106    18425589.461 8 -36068608.470 8
  21361268.651    21361274.549    46336002.833 9 -58479334.249 8
  23036888.863    23036894.220    80018579.185 8 -94950335.950 9
  25202724.502    25202729.828    -1590855.839 9  -6721354.206 8
 86  6 11  3 53 11.0800000  0  4G12G13G 9G 7
  20957089.640    20957093.707    18428482.050 8 -36066354.499 7
  21362714.073    21362718.796    46343598.027 9 -58473415.912 8
  23041381.591    23041385.919    80042185.927 8 -94931941.085 7
  25199778.097    25199783.022    -1606341.706 9  -6733421.085 9
 86  6 11  3 53 17.0800000  0  4G12G13G 9G 7
  20957644.318    20957648.292    18431401.008 8 -36064079.987 8
  21364160.267    21364165.305    46351197.819 9 -58467494.001 8
  23045875.615    23045879.098    80065800.915 7 -94913539.805 8
                  25196840.280                    -6745473.772 8
 86  6 11  3 53 23.0800000  0  4G12G13G 9G 7
  20958206.351    20958209.718    18434346.271 9 -36061784.974 8
  21365608.193    21365611.529    46358802.158 9 -58461568.546 8
  23050370.533    23050375.891    80089424.053 8 -94895132.156 8
  25193798.532    25193901.101    -1658074.916 8  -6757506.622 8
 86  6 11  3 53 29.0800000  0  4G12G13G 9G 7
  20958770.809    20958776.611    18437317.847 8 -36059469.469 7
  21367056.115    21367059.441    46366410.923 9 -58455639.635 8
  23054867.046    23054872.417    80113055.334 7 -94876718.168 8
  25190963.076    25190967.480    -1673487.217 9  -6769516.143 9
 86  6 11  3 53 35.0800000  0  4G12G13G 9G 7
  20959340.930    20959345.327    18440315.574 8 -36057133.568 8
  21368504.004    21368508.175    46374024.024 9 -58449707.331 8
  23059367.133    23059370.991    80136694.629 8 -94858297.952 8
  25188035.408    25188040.277    -1688870.927 9  -6781503.833 8
 86  6 11  3 53 41.0800000  0  4G12G13G 9G 7
  20959915.845    20959921.218    18443339.418 7 -36054777.323 8
  21369954.728    21369958.569    46381641.478 9 -58443771.659 8
  23063866.537    23063870.566    80160341.852 8 -94839871.545 9
  25185113.056    25185117.260    -1704230.977 9  -6793472.701 9
 86  6 11  3 53 47.0800000  0  4G12G13G 9G 7
  20960497.138    20960502.072    18446389.337 8 -36052400.770 8
  21371404.306    21371408.219    46389263.256 9 -58437832.612 8
  23068366.259    23068372.116    80183997.027 8 -94821438.944 8
  25182194.111    25182197.806    -1719571.628 8  -6805426.436 8
 86  6 11  3 53 53.0800000  0  4G12G13G 9G 7
  20961081.357    20961086.641    18449465.408 7 -36050003.829 8
  21372856.516    21372860.001    46396889.389 9 -58431890.156 8
  23072871.283    23072874.822    80207660.153 8 -94803000.137 8
  25179278.183    25179281.887    -1734895.960 9  -6817367.461 8
 86  6 11  3 53 59.0800000  0  4G12G13G 9G 7
  20961672.194    20961676.109    18452567.664 8 -36047586.490 7
  21374307.440    21374311.925    46404519.898 9 -58425944.306 9
  23077375.013    23077380.061    80231331.187 7 -94784555.186 8
  25176363.600    25176367.618    -1750206.397 9  -6829297.666 8
 86  6 11  3 54  5.0800000  0  4G12G13G 9G 7
  20962267.662    20962272.763    18455696.091 8 -36045148.745 8
  21375760.711    21375764.881    46412154.822 9 -58419995.007 9
  23081880.723    23081885.557    80255010.153 9 -94766104.036 8
  25173450.965    25173456.929    -1765504.155 9  -6841217.996 9
 86  6 11  3 54 11.0800000  0  4G12G13G 9G 7
  20962867.824    20962871.757    18458850.661 7 -36042690.639 8
  21377214.238    21377218.539    46419794.110 9 -58414042.318 9
  23086388.000    23086392.877    80278697.041 8 -94747646.725 8
  25170544.933    25170548.987    -1780788.239 9  -6853127.664 8
 86  6 11  3 54 17.0800000  0  4G12G13G 9G 7
  20963473.047    20963477.714    18462031.384 8 -36040212.154 8
  21378669.248    21378672.229    46427437.740 9 -58408086.241 8
  23090898.151    23090901.710    80302391.823 8 -94729183.267 8
                  25167639.744    -1796053.492 8
 86  6 11  3 54 23.0800000  0  4G12G13G 9G 7
  20964084.110    20964087.514    18465238.313 8 -36037713.244 7
  21380123.798    21380129.019    46435085.734 9 -58402126.767 8
  23095408.257    23095411.686    80326094.466 8 -94710713.677 8
  25164739.700    25164717.653    -1811292.970 9  -6810984.863 9
 86  6 11  3 54 29.0800000  0  4G12G13G 9G 7
  20964699.478    20964703.081    18468471.529 8 -36035193.863 8
  21381581.229    21381584.292    46442738.136 8 -58396163.852 8
  23099919.202    23099923.955    80349804.987 8 -94692237.944 8
  25161845.351    25161850.348    -1826502.138 9  -6822836.373 8
 86  6 11  3 54 35.0800000  0  4G12G13G 9G 7
  20965319.163    20965323.886    18471730.943 9 -36032654.065 8
  21383037.555    21383041.851    46450394.916 9 -58390197.536 8
  23104432.636    23104437.453    80373523.285 8 -94673756.142 8
  25158955.324    25158961.809    -1841682.906 8  -6834666.023 9
 86  6 11  3 54 41.0800000  0  4G12G13G 9G 7
  20965944.703    20965948.872    18475016.468 8 -36030093.917 8
  21384495.757    21384499.035    46458056.040 8 -58384227.814 9
  23108947.236    23108952.089    80397249.446 7 -94655268.226 8
  25156072.250    25156077.348    -1856839.600 9  -6846476.418 8
 86  6 11  3 54 47.0800000  0  4G12G13G 9G 7
  20966574.777    20966578.921    18478328.224 8 -36027513.324 8
  21385954.956    21385957.207    46465721.515 8 -58378254.710 9
  23113463.440    23113468.291    80420983.399 9 -94636774.243 7
  25153191.496    25153197.853    -1871976.548 8  -6858271.425 8
 86  6 11  3 54 53.0800000  0  4G12G13G 9G 7
  20967210.097    20967214.356    18481666.181 8 -36024912.318 8
  21387413.888    21387417.381    46473391.303 8 -58372278.258 8
  23117982.433    23117986.484    80444724.969 8 -94618274.313 8
  25150314.603    25150317.998    -1887097.213 8  -6870053.767 8
 86  6 11  3 54 59.0800000  0  4G12G13G 9G 7
  20967849.218    20967854.353    18485030.260 7 -36022290.962 8
  21388874.074    21388878.468    46481065.357 9 -58366298.474 9
  23122501.369    23122505.634    80468474.161 8 -94599768.460 8
  25147439.171    25147443.854    -1902203.837 8  -6881825.163 7
 86  6 11  3 55  5.0800000  0  4G12G13G 9G 7
  20968494.615    20968498.533    18488420.438 8 -36019649.266 8
  21390334.612    21390339.551    46488743.683 9 -58360315.360 8
  23127021.578    23127026.788    80492231.089 8 -94581256.566 8
  25144567.283    25144571.875    -1917297.496 9  -6893586.440 7
 86  6 11  3 55 11.0800000  0  4G12G13G 9G 7
  20969144.765    20969149.291    18491836.677 8 -36016987.253 8
  21391797.498    21391800.418    46496426.197 9 -58354328.983 8
  23131544.620    23131548.934    80515995.662 8 -94562738.710 7
  25141697.711    25141702.174    -1932377.156 9  -6905336.815 8
 86  6 11  3 55 17.0800000  0  4G12G13G 9G 7
  20969800.029    20969804.896    18495279.035 8 -36014304.883 7
  21393259.296    21393263.533    46504113.013 9 -58348339.265 8
  23136068.200    23136072.345    80539767.710 7 -94544215.041 8
                  25138835.349                    -6917072.013 8
 86  6 11  3 55 23.0800000  0  4G12G13G 9G 7
  20970460.900    20970462.994    18498747.502 8 -36011602.179 7
  21394723.900    21394727.135    46511804.073 9 -58342346.225 9
  23140593.316    23140597.942    80563547.368 8 -94525685.432 8
  25135971.879    25135975.440    -1983703.362 8  -6928786.445 9
 86  6 11  3 55 29.0800000  0  4G12G13G 9G 7
  20971125.772    20971128.502    18502242.171 8 -36008879.073 8
  21396187.043    21396192.082    46519499.432 9 -58336349.840 8
  23145119.722    23145124.608    80587334.596 8 -94507149.912 8
  25133115.787    25133121.438    -1998706.470 9  -6940477.159 8
 86  6 11  3 55 35.0800000  0  4G12G13G 9G 7
  20971795.464    20971799.373    18505762.983 7 -36006135.581 7
  21397653.020    21397656.842    46527199.023 9 -58330350.164 9
  23149647.398    23149652.824    80611129.393 8 -94488608.524 8
  25130266.139    25130271.369    -2013681.719 9  -6952145.786 8
 86  6 11  3 55 41.0800000  0  4G12G13G 9G 7
  20972470.230    20972474.637    18509309.837 8 -36003371.799 7
  21399119.082    21399123.006    46534902.820 9 -58324347.194 9
  23154177.978    23154181.894    80634931.578 7 -94470061.370 8
  25127421.501    25127426.923    -2028632.517 8  -6963795.743 9
 86  6 11  3 55 47.0800000  0  4G12G13G 9G 7
  20973150.684    20973154.331    18512882.812 8 -36000587.655 8
  21400585.088    21400589.626    46542610.872 9 -58318340.930 8
  23158708.365    23158713.447    80658741.239 8 -94451508.387 8
  25124580.483    25124585.899    -2043563.820 9  -6975430.519 8
 86  6 11  3 55 53.0800000  0  4G12G13G 9G 7
  20973834.765    20973838.743    18516481.868 8 -35997783.194 8
  21402053.046    21402057.423    46550323.140 9 -58312331.372 8
  23163240.839    23163245.097    80682558.342 8 -94432949.605 9
  25121741.893    25121745.919    -2058478.609 8  -6987052.418 9
 86  6 11  3 55 59.0800000  0  4G12G13G 9G 7
  20974525.369    20974528.958    18520107.011 8 -35994958.410 7
  21403521.026    21403525.200    46558039.609 8 -58306318.535 8
  23167774.162    23167778.406    80706382.773 8 -94414385.122 8
  25118906.813    25118911.026    -2073379.185 9  -6998663.255 8
 86  6 11  3 56  5.0800000  0  4G12G13G 9G 7
  20975218.847    20975223.093    18523758.312 8 -35992113.241 7
  21404991.189    21404994.896    46565760.274 9 -58300302.430 8
  23172308.617    23172313.597    80730214.657 8 -94395814.823 8
  25116074.481    25116078.192    -2088266.618 8  -7010263.843 9
 86  6 11  3 56 11.0800000  0  4G12G13G 9G 7
  20975919.497    20975924.531    18527435.698 8 -35989247.755 9
  21406460.731    21406464.959    46573485.082 8 -58294283.092 9
  23176846.948    23176850.764    80754053.840 8 -94377238.828 8
  25113244.122    25113248.349    -2103139.504 8  -7021853.091 9
 86  6 11  3 56 17.0800000  0  4G12G13G 9G 7
  20976624.199    20976628.010    18531139.134 8 -35986361.956 7
  21407930.855    21407934.795    46581214.109 9 -58288260.477 8
  23181383.147    23181387.471    80777900.533 8 -94358656.996 8
                  25110417.413    -2117992.046 8
 86  6 11  3 56 23.0800000  0  4G12G13G 9G 7
  20977333.566    20977338.529    18534868.761 8 -35983455.742 7
  21409403.703    21409407.955    46588947.320 9 -58282234.603 9
  23185921.638    23185926.935    80801754.513 8 -94340069.474 8
  25107595.081    25107598.875    -2132817.367 9  -6979813.148 8
 86  6 11  3 56 29.0800000  0  4G12G13G 9G 7
  20978049.298    20978052.379    18538624.465 8 -35980529.239 8
  21410875.750    21410878.954    46596684.641 9 -58276205.518 8
  23190462.596    23190467.219    80825615.784 8 -94321476.278 9
  25104780.779    25104784.943    -2147612.056 8  -6991341.508 8
 86  6 11  3 56 35.0800000  0  4G12G13G 9G 7
  20978768.793    20978771.713    18542406.272 9 -35977582.371 8
  21412348.242    21412353.181    46604426.152 9 -58270173.171 8
  23195004.461    23195009.193    80849484.368 8 -94302877.379 8
  25101970.712    25101974.461    -2162378.327 9  -7002847.176 8
 86  6 11  3 56 41.0800000  0  4G12G13G 9G 7
  20979492.644    20979497.021    18546214.263 8 -35974615.106 8
  21413821.603    21413827.125    46612171.984 9 -58264137.447 8
  23199548.902    23199553.457    80873360.210 8 -94284272.833 8
  25099164.896    25099169.254    -2177120.465 9  -7014334.543 9
 86  6 11  3 56 47.0800000  0  4G12G13G 9G 7
  20980222.607    20980227.392    18550048.291 8 -35971627.550 8
  21415297.139    21415301.101    46619921.987 9 -58258098.486 7
  23204093.772    23204097.945    80897243.216 7 -94265662.699 8
  25096363.793    25096368.573    -2191843.125 8  -7025806.736 9
 86  6 11  3 56 53.0800000  0  4G12G13G 9G 7
  20980957.688    20980961.619    18553908.349 8 -35968619.708 8
  21416772.588    21416776.750    46627676.107 9 -58252056.323 9
  23208640.551    23208643.955    80921133.443 8 -94247046.925 8
  25093565.652    25093569.666    -2206549.264 9  -7037266.062 9
 86  6 11  3 56 59.0800000  0  4G12G13G 9G 7
  20981697.366    20981700.226    18557794.396 7 -35965591.618 8
  21418249.555    21418252.672    46635434.263 8 -58246011.002 9
  23213187.744    23213191.305    80945030.757 7 -94228425.646 8
  25090770.260    25090773.543    -2221241.068 9  -7048714.218 9
 86  6 11  3 57  5.0800000  0  4G12G13G 9G 7
  20982440.933    20982446.397    18561706.436 8 -35962543.283 8
  21419726.148    21419731.011    46643196.452 9 -58239962.540 9
  23217736.926    23217740.337    80968935.251 7 -94209798.772 8
  25087976.682    25087980.374    -2235919.592 9  -7060152.012 7
 86  6 11  3 57 11.0800000  0  4G12G13G 9G 7
  20983189.521    20983194.550    18565644.445 8 -35959474.702 8
  21421204.231    21421208.579    46650962.671 9 -58233910.943 8
  23222286.630    23222291.046    80992846.620 7 -94191166.528 9
  25085185.252    25085189.253    -2250583.085 8  -7071578.108 7
 86  6 11  3 57 17.0800000  0  4G12G13G 9G 7
  20983944.081    20983948.759    18569608.492 9 -35956385.827 8
  21422683.486    21422688.092    46658732.936 9 -58227856.187 8
  23226837.422    23226843.116    81016765.062 7 -94172528.800 8
                  25082403.225                    -7082987.953 8
 86  6 11  3 57 23.0800000  0  4G12G13G 9G 7
  20984703.495    20984708.199    18573598.529 8 -35953276.711 9
  21424161.827    21424166.575    46666507.302 9 -58221798.236 8
  23231390.194    23231395.463    81040690.480 7 -94153885.611 8
  25079616.780    25079622.320    -2301495.577 9  -7094376.119 9
 86  6 11  3 57 29.0800000  0  4G12G13G 9G 7
  20985467.871    20985473.118    18577614.566 8 -35950147.329 8
  21425643.471    21425645.687    46674285.709 9 -58215737.132 8
  23235944.567    23235949.334    81064622.906 8 -94135236.962 9
  25076843.689    25076848.696    -2316079.550 9  -7105740.261 9
 86  6 11  3 57 35.0800000  0  4G12G13G 9G 7
  20986236.559    20986241.802    18581656.600 8 -35946997.691 8
  21427122.882    21427127.203    46682068.217 8 -58209672.842 9
  23240499.841    23240505.911    81088562.285 9 -94116582.913 8
  25074072.569    25074078.022    -2330635.217 8  -7117082.329 7
 86  6 11  3 57 41.0800000  0  4G12G13G 9G 7
  20987011.758    20987015.160    18585724.636 9 -35943827.797 8
  21428605.802    21428609.125    46689854.643 9 -58203605.500 9
  23245056.710    23245062.444    81112508.639 8 -94097923.407 7
  25071307.433    25071311.897    -2345167.059 8  -7128405.825 8
 86  6 11  3 57 47.0800000  0  4G12G13G 9G 7
  20987790.348    20987794.661    18589818.743 8 -35940637.585 8
  21430087.081    21430092.033    46697645.169 8 -58197534.960 8
  23249615.375    23249621.009    81136462.001 8 -94079258.460 8
  25068546.818    25068550.881    -2359679.287 9  -7139714.056 8
 86  6 11  3 57 53.0800000  0  4G12G13G 9G 7
  20988573.481    20988578.784    18593938.913 8 -35937427.062 8
  21431571.116    21431574.200    46705439.759 9 -58191461.265 7
  23254174.155    23254179.052    81160422.179 7 -94060588.189 8
  25065787.892    25065792.985    -2374174.830 9  -7151009.269 8
 86  6 11  3 57 59.0800000  0  4G12G13G 9G 7
  20989363.142    20989368.057    18598085.047 8 -35934196.306 8
  21433055.270    21433059.086    46713238.348 9 -58185384.431 9
  23258734.916    23258740.036    81184389.264 7 -94041912.535 8
  25063031.998    25063037.721    -2388655.852 9  -7162293.171 8
 86  6 11  3 58  5.0800000  0  4G12G13G 9G 7
  20990157.739    20990161.971    18602257.145 9 -35930945.324 8
  21434540.304    21434542.892    46721040.973 8 -58179304.455 7
  23263298.212    23263302.106    81208363.209 8 -94023231.541 9
  25060278.824    25060283.846    -2403123.385 9  -7173566.574 8
 86  6 11  3 58 11.0800000  0  4G12G13G 9G 7
  20990955.967    20990959.865    18606455.247 7 -35927674.067 8
  21436025.465    21436029.522    46728847.598 9 -58173221.370 8
  23267861.177    23267864.764    81232344.001 6 -94004545.195 7
  25057527.882    25057532.776    -2417575.456 9  -7184827.908 8
 86  6 11  3 58 17.0800000  0  4G12G13G 9G 7
  20991759.886    20991764.933    18610679.365 8 -35924382.544 8
  21437511.274    21437515.341    46736658.211 9 -58167135.176 9
  23272425.643    23272429.304    81256331.598 8 -93985853.560 8
                  25054787.317                    -7196072.404 8
 86  6 11  3 58 23.0800000  0  4G12G13G 9G 7
  20992567.840    20992573.600    18614929.370 9 -35921070.859 8
  21438998.572    21439002.381    46744472.819 9 -58161045.870 8
  23276991.609    23276996.000    81280325.983 8 -93967156.642 9
  25052043.131    25052046.707    -2468279.026 9  -7207294.826 7
 86  6 11  3 58 29.0800000  0  4G12G13G 9G 7
  20993381.525    20993387.086    18619205.298 8 -35917738.966 8
  21440486.985    21440489.650    46752291.390 9 -58154953.470 8
  23281558.359    23281563.952    81304327.010 7 -93948454.552 8
  25049308.386    25049311.119    -2482650.159 8  -7218493.107 8
 86  6 11  3 58 35.0800000  0  4G12G13G 9G 7
  20994199.854    20994205.471    18623507.179 8 -35914386.851 8
  21441974.884    21441979.265    46760113.860 8 -58148858.040 8
  23286127.667    23286131.776    81328334.708 7 -93929747.262 8
  25046577.912    25046582.643    -2496992.881 8  -7229669.251 9
 86  6 11  3 58 41.0800000  0  4G12G13G 9G 7
  20995023.909    20995031.017    18627835.040 8 -35911014.509 8
  21443464.357    21443468.551    46767940.212 9 -58142759.583 8
  23290697.011    23290701.506    81352348.965 8 -93911034.830 8
  25043853.293    25043858.295    -2511311.797 8  -7240826.841 9
 86  6 11  3 58 47.0800000  0  4G12G13G 9G 7
  20995852.460    20995858.709    18632188.810 8 -35907621.957 7
  21444954.029    21444958.955    46775770.498 9 -58136658.061 8
  23295269.026    23295273.515    81376369.897 8 -93892317.240 8
  25041131.491    25041137.401    -2525611.124 9  -7251969.163 8
 86  6 11  3 58 53.0800000  0  4G12G13G 9G 7
  20996685.651    20996691.060    18636568.509 8 -35904209.202 9
  21446445.820    21446449.028    46783604.793 8 -58130553.422 9
  23299841.189    23299846.575    81400397.499 7 -93873594.428 8
  25038414.655    25038419.385    -2539893.660 9  -7263098.389 8
 86  6 11  3 58 59.0800000  0  4G12G13G 9G 7
  20997524.950    20997529.822    18640974.022 8 -35900776.329 9
  21447937.582    21447940.891    46791442.999 9 -58124445.725 9
  23304415.678    23304419.119    81424431.639 8 -93854866.533 8
  25035698.821    25035703.572    -2554161.717 9  -7274216.357 8
 86  6 11  3 59  5.0800000  0  4G12G13G 9G 7
  20998368.388    20998372.047    18645405.377 8 -35897323.335 8
  21449429.060    21449432.823    46799285.061 9 -58118335.023 9
  23308990.044    23308993.312    81448472.201 9 -93836133.619 8
  25032988.121    25032991.331    -2568416.027 8  -7285323.595 9
 86  6 11  3 59 11.0800000  0  4G12G13G 9G 7
  20999216.673    20999221.694    18649862.591 7 -35893850.172 8
  21450922.271    21450926.385    46807130.948 8 -58112221.333 9
  23313565.294    23313568.383    81472519.306 7 -93817395.625 8
  25030276.900    25030281.899    -2582654.402 8  -7296418.416 8
 86  6 11  3 59 17.0800000  0  4G12G13G 9G 7
  21000069.829    21000073.833    18654345.787 8 -35890356.772 8
  21452415.674    21452420.089    46814980.788 9 -58106104.579 9
  23318143.636    23318146.903    81496572.969 8 -93798652.492 8
                  25027576.117                    -7307495.866 8
 86  6 11  3 59 23.0800000  0  4G12G13G 9G 7
  21000928.396    21000932.671    18658854.899 8 -35886843.191 8
  21453910.602    21453914.567    46822834.502 9 -58099984.809 9
  23322721.059    23322725.495    81520633.150 8 -93779904.319 7
  25024871.723    25024876.572    -2633067.009 8  -7318550.734 7
 86  6 11  3 59 29.0800000  0  4G12G13G 9G 7
  21001791.656    21001795.304    18663389.857 8 -35883309.448 8
  21455405.316    21455409.794    46830692.131 9 -58093861.968 7
  23327300.817    23327304.858    81544699.773 8 -93761151.103 7
  25022178.146    25022181.753    -2647222.737 9  -7329581.128 8
 86  6 11  3 59 35.0800000  0  4G12G13G 9G 7
  21002659.648    21002662.843    18667950.746 9 -35879755.514 7
  21456901.084    21456905.867    46838553.632 9 -58087736.143 8
  23331881.389    23331885.845    81568772.844 8 -93742392.873 6
  25019490.237    25019493.943    -2661349.619 9  -7340589.470 8
 86  6 11  3 59 41.0800000  0  4G12G13G 9G 7
  21003531.281    21003536.618    18672537.613 8 -35876181.338 8
  21458398.140    21458402.434    46846418.951 9 -58081607.315 8
  23336464.237    23336467.284    81592852.432 8 -93723629.559 8
  25016806.061    25016810.825    -2675453.240 8  -7351579.280 7
 86  6 11  3 59 47.0800000  0  4G12G13G 9G 7
  21004408.807    21004413.365    18677150.338 9 -35872586.990 7
  21459894.978    21459899.411    46854288.140 9 -58075475.491 7
  23341046.391    23341051.232    81616938.309 7 -93704861.338 7
  25014126.193    25014129.799    -2689537.241 9  -7362553.831 8
 86  6 11  3 59 53.0800000  0  4G12G13G 9G 7
  21005291.926    21005297.347    18681788.971 9 -35868972.492 8
  21461393.424    21461398.444    46862161.218 9 -58069340.618 8
  23345630.893    23345637.244    81641030.564 8 -93686088.156 7
  25011448.011    25011452.840    -2703604.441 8  -7373515.268 7
 86  6 11  3 59 59.0800000  0  4G12G13G 9G 7
  21006179.067    21006184.803    18686453.512 9 -35865337.774 7
  21462892.970    21462896.260    46870038.189 8 -58063202.716 8
  23350217.584    23350221.296    81665129.190 7 -93667310.007 7
  25008775.284    25008779.848    -2717656.815 8  -7384465.162 8
 86  6 11  4  0  5.0800000  0  4G12G13G 9G 7
  21007072.784    21007076.593    18691143.893 9 -35861682.923 8
  21464392.746    21464396.177    46877918.941 9 -58057061.862 9
  23354804.753    23354810.052    81689234.046 7 -93648527.001 7
  25006103.943    25006106.961    -2731695.215 8  -7395404.163 8
 86  6 11  4  0 11.0800000  0  4G12G13G 9G 7
  21007969.455    21007974.426    18695860.188 9 -35858007.911 8
  21465892.893    21465897.555    46885803.561 9 -58050918.008 8
  23359392.753    23359397.061    81713345.207 7 -93629739.078 7
  25003435.192    25003439.463    -2745717.227 9  -7406330.399 7
 86  6 11  4  0 17.0800000  0  4G12G13G 9G 7
  21008871.400    21008877.180    18700602.234 8 -35854312.803 8
  21467393.411    21467398.733    46893692.008 9 -58044771.161 8
  23363982.383    23363986.119    81737462.610 8 -93610946.295 7
                  25000775.742                    -7417238.736 8
 86  6 11  4  0 23.0800000  0  4G12G13G 9G 7
  21009778.900    21009785.081    18705370.021 8 -35850597.630 8
  21468895.905    21468900.038    46901584.206 8 -58038621.396 8
  23368572.164    23368577.823    81761586.242 7 -93592148.667 8
  24998111.744    24998118.763    -2795916.358 9  -7428124.110 8
 86  6 11  4  0 29.0800000  0  4G12G13G 9G 7
  21010691.078    21010696.423    18710163.594 8 -35846862.392 8
  21470397.341    21470402.876    46909480.152 9 -58032468.706 8
  23373164.226    23373169.117    81785715.947 7 -93573346.298 8
  24995461.288    24995465.509    -2809854.570 8  -7438985.052 8
 86  6 11  4  0 35.0800000  0  4G12G13G 9G 7
  21011609.017    21011613.603    18714982.957 9 -35843107.037 8
  21471901.637    21471906.256    46917379.877 8 -58026313.068 9
  23377757.600    23377762.003    81809851.823 8 -93554539.117 8
  24992813.630    24992817.895    -2823764.994 9  -7449823.946 7
 86  6 11  4  0 41.0800000  0  4G12G13G 9G 7
  21012530.236    21012534.350    18719828.039 9 -35839331.641 7
  21473404.723    21473409.528    46925283.239 8 -58020154.605 9
  23382351.012    23382355.560    81833993.696 7 -93535727.263 8
  24990170.539    24990175.372    -2837651.330 8  -7460644.447 8
 86  6 11  4  0 47.0800000  0  4G12G13G 9G 7
  21013456.853    21013461.362    18724698.885 9 -35835536.185 8
  21474909.030    21474915.117    46933190.355 8 -58013993.216 8
  23386946.195    23386950.049    81858141.677 8 -93516910.674 8
  24987532.353    24987536.313    -2851518.179 8  -7471449.773 8
 86  6 11  4  0 53.0800000  0  4G12G13G 9G 7
  21014388.533    21014393.894    18729595.412 8 -35831720.705 8
  21476414.866    21476420.219    46941101.190 9 -58007828.929 9
  23391542.923    23391547.468    81882295.642 8 -93498089.387 8
  24984896.142    24984900.777    -2865368.070 8  -7482241.895 7
 86  6 11  4  0 59.0800000  0  4G12G13G 9G 7
  21015325.909    21015329.803    18734517.733 8 -35827885.136 8
  21477921.109    21477925.971    46949015.803 7 -58001661.697 9
  23396140.858    23396143.888    81906455.527 7 -93479263.489 8
  24982264.281    24982268.083    -2879203.134 8  -7493022.458 8
 86  6 11  4  1  5.0800000  0  4G12G13G 9G 7
  21016267.429    21016272.821    18739465.814 9 -35824029.483 9
  21479428.424    21479433.015    46956934.133 9 -57995491.570 8
  23400739.346    23400744.044    81930621.483 8 -93460432.890 8
  24979634.422    24979638.755    -2893023.945 8  -7503791.906 8
 86  6 11  4  1 11.0800000  0  4G12G13G 9G 7
  21017213.819    21017218.383    18744439.673 8 -35820153.753 8
  21480935.140    21480940.751    46964856.259 8 -57989318.490 8
  23405338.315    23405342.672    81954793.434 8 -93441597.605 8
  24977006.481    24977011.246    -2906827.762 8  -7514548.128 8
 86  6 11  4  1 17.0800000  0  4G12G13G 9G 7
  21018164.224    21018169.559    18749439.302 9 -35816257.936 8
  21482445.454    21482448.274    46972782.124 9 -57983142.491 8
  23409940.151    23409943.829    81978971.427 7 -93422757.610 8
                  24974384.795    -2920607.968 7
 86  6 11  4  1 23.0800000  0  4G12G13G 9G 7
  21019121.833    21019127.082    18754464.733 9 -35812342.019 7
  21483952.752    21483957.412    46980711.705 8 -57976963.572 9
  23414541.901    23414546.124    82003155.305 8 -93403913.010 8
  24971768.473    24971772.709    -2934358.203 8  -7472536.922 8
 86  6 11  4  1 29.0800000  0  4G12G13G 9G 7
  21020082.511    21020087.273    18759515.907 9 -35808406.031 8
  21485462.809    21485466.912    46988645.028 8 -57970781.782 8
  23419144.987    23419150.564    82027345.145 8 -93385063.784 8
  24969156.901    24969162.224    -2948076.956 7  -7483226.827 8
 86  6 11  4  1 35.0800000  0  4G12G13G 9G 7
  21021049.145    21021053.671    18764592.843 8 -35804449.975 9
  21486973.161    21486977.372    46996582.001 9 -57964597.119 9
  23423748.484    23423753.221    82051540.832 8 -93366209.999 8
  24966551.912    24966557.208    -2961767.390 8  -7493895.194 8
 86  6 11  4  1 41.0800000  0  4G12G13G 9G 7
  21022019.426    21022025.657    18769695.529 9 -35800473.864 7
  21488483.738    21488488.537    47004522.743 8 -57958409.527 9
  23428354.213    23428359.136    82075742.450 8 -93347351.592 8
  24963952.246    24963956.081    -2975434.084 9  -7504544.529 7
 86  6 11  4  1 47.0800000  0  4G12G13G 9G 7
  21022996.925    21022999.992    18774823.968 9 -35796477.671 8
  21489995.696    21490000.465    47012467.176 9 -57952219.061 8
  23432961.210    23432965.224    82099949.946 8 -93328488.602 7
  24961355.731    24961359.164    -2989081.076 8  -7515178.550 7
 86  6 11  4  1 53.0800000  0  4G12G13G 9G 7
  21023975.788    21023981.629    18779978.109 9 -35792461.454 7
  21491507.687    21491512.468    47020415.265 9 -57946025.740 9
  23437569.424    23437573.563    82124163.250 8 -93309621.100 8
  24958761.415    24958765.480    -3002711.025 9  -7525799.284 8
 86  6 11  4  1 59.0800000  0  4G12G13G 9G 7
  21024962.591    21024966.801    18785158.012 8 -35788425.167 8
  21493021.371    21493025.868    47028367.072 8 -57939829.520 9
  23442177.379    23442181.307    82148382.428 9 -93290749.017 7
  24956170.162    24956176.516    -3016325.950 9  -7536408.316 8
 86  6 11  4  2  5.0800000  0  4G12G13G 9G 7
  21025952.515    21025958.074    18790363.625 9 -35784368.867 8
  21494535.045    21494539.533    47036322.474 8 -57933630.500 8
  23446785.309    23446790.607    82172607.329 8 -93271872.456 8
  24953582.489    24953587.455    -3029926.522 8  -7547006.160 7
 86  6 11  4  2 11.0800000  0  4G12G13G 9G 7
  21026948.058    21026952.829    18795594.878 9 -35780292.544 8
  21496049.478    21496053.649    47044281.544 9 -57927428.627 9
  23451398.050    23451402.059    82196837.943 7 -93252991.453 8
  24950998.421    24951002.283    -3043509.720 8  -7557590.469 8
 86  6 11  4  2 17.0800000  0  4G12G13G 9G 7
  21027949.496    21027953.579    18800851.803 8 -35776196.253 7
  21497565.443    21497570.306    47052244.275 9 -57921223.910 8
  23456010.363    23456013.955    82221074.245 8 -93234106.036 8
                  24948417.343    -3057069.238 8
 86  6 11  4  2 23.0800000  0  4G12G13G 9G 7
  21028954.860    21028958.485    18806134.415 9 -35772079.936 8
  21499081.060    21499085.041    47060210.619 9 -57915016.359 8
  23460623.609    23460628.210    82245316.148 8 -93215216.234 8
  24945842.048    24945853.512    -3070597.320 8  -7494089.157 8
 86  6 11  4  2 29.0800000  0  4G12G13G 9G 7
  21029964.112    21029968.428    18811442.659 7 -35767943.642 8
  21500598.382    21500602.915    47068180.533 8 -57908806.038 9
  23465236.555    23465241.924    82269563.631 8 -93196322.087 8
  24943274.605    24943279.870    -3084094.167 9  -7504606.196 7
 86  6 11  4  2 35.0800000  0  4G12G13G 9G 7
  21030978.098    21030984.043    18816776.634 8 -35763787.289 8
  21502115.034    21502118.826    47076154.054 9 -57902592.902 8
  23469852.694    23469857.125    82293816.701 8 -93177423.588 8
  24940711.169    24940716.163    -3097562.741 8  -7515101.667 8
 86  6 11  4  2 41.0800000  0  4G12G13G 9G 7
  21031997.989    21032003.012    18822136.213 8 -35759610.993 8
  21503633.182    21503637.471    47084131.096 8 -57896377.029 8
  23474468.975    23474473.164    82318075.390 7 -93158520.701 8
  24938153.171    24938157.650    -3111007.667 8  -7525578.228 8
 86  6 11  4  2 47.0800000  0  4G12G13G 9G 7
  21033024.055    21033028.523    18827521.357 8 -35755414.792 8
  21505152.963    21505155.734    47092111.805 9 -57890158.279 8
  23479086.015    23479090.852    82342339.660 8 -93139613.470 8
  24935597.863    24935603.658    -3124432.829 9  -7536039.379 7
 86  6 11  4  2 53.0800000  0  4G12G13G 9G 7
  21034053.674    21034058.880    18832932.194 8 -35751198.544 8
  21506670.251    21506675.453    47100096.242 8 -57883936.645 8
  23483704.665    23483708.824    82366609.442 8 -93120701.952 7
  24933046.249    24933052.000    -3137840.897 9  -7546487.229 8
 86  6 11  4  2 59.0800000  0  4G12G13G 9G 7
  21035086.629    21035092.303    18838368.664 7 -35746962.343 8
  21508191.192    21508195.305    47108084.203 9 -57877712.251 8
  23488325.180    23488328.301    82390884.836 7 -93101786.054 8
  24930498.898    24930502.017    -3151233.836 8  -7556923.276 8
 86  6 11  4  3  5.0800000  0  4G12G13G 9G 7
  21036127.557    21036131.732    18843830.785 8 -35742706.151 8
  21509711.702    21509716.122    47116075.829 8 -57871485.019 7
  23492944.102    23492950.193    82415165.768 9 -93082865.860 8
  24927951.433    24927956.397    -3164611.961 9  -7567347.776 8
 86  6 11  4  3 11.0800000  0  4G12G13G 9G 7
  21037171.349    21037176.395    18849318.547 9 -35738429.959 8
  21511232.237    21511237.203    47124070.966 8 -57865255.038 8
  23497566.559    23497570.910    82439452.109 8 -93063941.435 8
  24925410.547    24925415.283    -3177972.051 8  -7577758.225 9
 86  6 11  4  3 17.0800000  0  4G12G13G 9G 7
  21038220.724    21038226.271    18854831.914 8 -35734133.834 8
  21512754.916    21512760.200    47132069.678 8 -57859022.269 9
  23502189.280    23502192.543    82463743.878 9 -93045012.782 8
                  24922872.970    -3191307.336 8
 86  6 11  4  3 23.0800000  0  4G12G13G 9G 7
  21039274.606    21039278.987    18860370.836 7 -35729817.790 8
  21514278.052    21514283.026    47140071.949 7 -57852786.736 8
  23506811.813    23506817.867    82488040.994 8 -93026079.955 7
  24920340.500    24920342.302    -3204611.703 8  -7532458.916 8
 86  6 11  4  3 29.0800000  0  4G12G13G 9G 7
  21040333.333    21040338.667    18865935.311 8 -35725481.840 9
  21515801.017    21515806.057    47148077.653 9 -57846548.514 9
  23511437.029    23511441.581    82512343.522 8 -93007142.919 9
  24917815.013    24917819.093    -3217884.420 8  -7542801.249 8
 86  6 11  4  3 35.0800000  0  4G12G13G 9G 7
  21041397.565    21041402.967    18871525.306 8 -35721125.999 8
  21517325.898    21517330.574    47156086.881 9 -57840307.563 8
  23516062.283    23516066.290    82536651.342 8 -92988201.763 8
  24915294.250    24915298.970    -3231128.812 9  -7553121.044 8
 86  6 11  4  3 41.0800000  0  4G12G13G 9G 7
  21042465.980    21042470.208    18877140.830 8 -35716750.263 9
  21518849.766    21518855.578    47164099.696 8 -57834063.808 8
  23520688.481    23520693.558    82560964.490 8 -92969256.451 9
  24912779.437    24912783.500    -3244349.610 9  -7563422.965 8
 86  6 11  4  3 47.0800000  0  4G12G13G 9G 7
  21043538.937    21043544.617    18882781.881 8 -35712354.647 8
  21520376.123    21520379.561    47172116.004 7 -57827817.328 8
  23525315.728    23525321.434    82585282.820 7 -92950307.104 8
  24910265.968    24910270.850    -3257550.788 9  -7573709.589 9
 86  6 11  4  3 53.0800000  0  4G12G13G 9G 7
  21044617.929    21044622.795    18888448.449 9 -35707939.133 8
  21521901.500    21521906.696    47180135.710 8 -57821568.211 8
  23529947.205    23529950.566    82609606.408 8 -92931353.662 8
  24907757.883    24907762.534    -3270734.717 8  -7583982.767 8
 86  6 11  4  3 59.0800000  0  4G12G13G 9G 7
  21045699.708    21045705.737    18894140.442 8 -35703503.815 9
  21523428.993    21523432.303    47188158.925 8 -57815316.351 8
  23534574.063    23534579.309    82633935.251 9 -92912396.127 8
  24905252.114    24905257.778    -3283903.343 9  -7594244.039 7
 86  6 11  4  4  5.0800000  0  4G12G13G 9G 7
  21046788.825    21046793.537    18899857.959 8 -35699048.609 8
  21524955.677    21524961.472    47196185.658 8 -57809061.744 9
  23539204.403    23539210.303    82658269.222 8 -92893434.585 8
  24902749.093    24902753.443    -3297056.896 9  -7604493.546 9
 86  6 11  4  4 11.0800000  0  4G12G13G 9G 7
  21047881.977    21047886.583    18905601.031 8 -35694573.485 9
  21526484.767    21526489.004    47204215.834 9 -57802804.462 8
  23543836.947    23543842.801    82682608.323 7 -92874469.038 9
  24900249.192    24900254.471    -3310191.930 9  -7614728.634 8
 86  6 11  4  4 17.0800000  0  4G12G13G 9G 7
  21048979.576    21048984.369    18911369.693 8 -35690078.427 8
  21528011.924    21528016.807    47212249.513 8 -57796544.453 7
  23548470.027    23548474.302    82706952.614 8 -92855499.463 7
                  24897754.798    -3323301.446 9
 86  6 11  4  4 23.0800000  0  4G12G13G 9G 7
  21050082.347    21050086.326    18917163.878 7 -35685563.478 9
  21529541.798    21529547.432    47220286.635 9 -57790281.755 8
  23553103.544    23553108.890    82731302.124 8 -92836525.818 9
  24895266.571    24895270.148    -3336379.598 9  -7578577.583 9
 86  6 11  4  4 29.0800000  0  4G12G13G 9G 7
  21051189.000    21051193.954    18922983.491 8 -35681028.719 8
  21531072.180    21531076.814    47228327.289 8 -57784016.304 9
  23557736.932    23557743.050    82755656.694 8 -92817548.238 8
  24892785.012    24892787.560    -3349425.931 9  -7588743.554 8
 86  6 11  4  4 35.0800000  0  4G12G13G 9G 7
  21052300.926    21052306.794    18928828.574 8 -35676474.105 9
  21532604.343    21532607.976    47236371.413 8 -57777748.156 9
  23562372.960    23562378.421    82780016.234 8 -92798566.773 8
  24890305.888    24890310.596    -3362443.990 8  -7598887.488 9
 86  6 11  4  4 41.0800000  0  4G12G13G 9G 7
  21053418.939    21053422.794    18934699.087 8 -35671899.675 9
  21534135.393    21534139.807    47244418.950 8 -57771477.345 8
  23567009.932    23567014.822    82804380.883 8 -92779581.342 8
  24887834.089    24887838.941    -3375438.475 9  -7609013.041 8
 86  6 11  4  4 47.0800000  0  4G12G13G 9G 7
  21054540.815    21054546.400    18940595.014 8 -35667305.450 9
  21535666.640    21535671.556    47252469.819 7 -57765203.934 7
  23571646.598    23571651.363    82828750.470 8 -92760592.038 7
  24885364.465    24885369.131    -3388413.268 9  -7619123.269 9
 86  6 11  4  4 53.0800000  0  4G12G13G 9G 7
  21055668.767    21055672.036    18946516.477 8 -35662691.327 7
  21537199.931    21537204.354    47260524.172 8 -57758927.813 9
  23576285.288    23576289.702    82853125.130 8 -92741598.801 8
  24882900.192    24882904.000    -3401370.748 9  -7629219.995 7
 86  6 11  4  4 59.0800000  0  4G12G13G 9G 7
  21056799.566    21056805.295    18952463.386 8 -35658057.363 8
  21538733.231    21538737.110    47268582.022 8 -57752648.964 8
  23580925.399    23580928.864    82877504.771 8 -92722601.671 8
  24880436.094    24880441.214    -3414312.736 9  -7639304.661 8
 86  6 11  4  5  5.0800000  0  4G12G13G 9G 7
  21057937.254    21057940.683    18958435.783 9 -35653403.551 7
  21540265.880    21540272.042    47276643.338 8 -57746367.419 8
  23585565.901    23585569.628    82901889.297 8 -92703600.748 7
  24877976.200    24877980.752    -3427239.225 9  -7649377.241 8
 86  6 11  4  5 11.0800000  0  4G12G13G 9G 7
  21059077.214    21059081.940    18964433.622 8 -35648729.920 8
  21541801.277    21541806.128    47284708.067 8 -57740083.210 9
  23590205.334    23590211.145    82926278.759 7 -92684595.969 8
  24875520.141    24875525.521    -3440146.955 9  -7659435.209 8
 86  6 11  4  5 17.0800000  0  4G12G13G 9G 7
  21060224.366    21060228.989    18970456.762 7 -35644036.552 8
  21543336.859    21543341.968    47292776.085 8 -57733796.440 8
  23594847.172    23594852.564    82950673.159 7 -92665587.345 7
                  24873068.992    -3453028.547 8
 86  6 11  4  5 23.0800000  0  4G12G13G 9G 7
  21061373.165    21061378.887    18976505.307 9 -35639323.402 8
  21544872.871    21544877.604    47300847.524 8 -57727507.009 9
  23599492.312    23599495.463    82975072.393 8 -92646574.966 8
  24870624.323    24870627.685    -3465878.338 9  -7616433.121 8
 86  6 11  4  5 29.0800000  0  4G12G13G 9G 7
  21062529.803    21062535.213    18982579.296 8 -35634590.422 8
  21546409.737    21546414.117    47308922.411 8 -57721214.880 8
  23604135.784    23604139.903    82999476.474 7 -92627558.795 8
  24868184.519    24868188.755    -3478696.057 8  -7626420.953 8
 86  6 11  4  5 35.0800000  0  4G12G13G 9G 7
  21063691.181    21063696.617    18988678.674 9 -35629837.670 8
  21547946.102    21547950.398    47317000.742 8 -57714920.072 9
  23608779.003    23608784.047    83023885.426 8 -92608538.838 7
  24865750.009    24865753.787    -3491485.649 9  -7636387.359 8
 86  6 11  4  5 41.0800000  0  4G12G13G 9G 7
  21064856.951    21064861.155    18994803.458 8 -35625065.115 8
  21549483.794    21549488.515    47325082.447 8 -57708622.640 8
  23613425.681    23613430.605    83048299.122 7 -92589515.188 8
  24863321.540    24863326.348    -3504251.746 8  -7646334.950 8
 86  6 11  4  5 47.0800000  0  4G12G13G 9G 7
  21066027.173    21066032.003    19000953.673 7 -35620272.732 8
  21551023.194    21551027.494    47333167.479 8 -57702322.605 8
  23618072.239    23618075.942    83072717.580 8 -92570487.787 7
  24860895.845    24860899.608    -3516998.018 9  -7656267.115 8
 86  6 11  4  5 53.0800000  0  4G12G13G 9G 7
  21067202.708    21067206.068    19007129.221 9 -35615460.617 7
  21552562.199    21552566.864    47341255.809 8 -57696020.013 8
  23622719.596    23622724.948    83097140.763 7 -92551456.764 8
  24858473.585    24858477.290    -3529726.917 9  -7666185.735 7
 86  6 11  4  5 59.0800000  0  4G12G13G 9G 7
  21068381.395    21068386.211    19013329.985 9 -35610628.843 9
  21554101.512    21554106.570    47349347.425 8 -57689714.866 7
  23627368.294    23627371.665    83121568.529 6 -92532422.117 8
  24856053.757    24856058.595    -3542440.256 9  -7676092.223 8
 86  6 11  4  6  5.0800000  0  4G12G13G 9G 7
  21069567.630    21069572.947    19019556.074 8 -35605777.358 8
  21555640.977    21555647.087    47357442.377 9 -57683407.106 8
  23632016.901    23632022.275    83146000.909 8 -92513383.917 8
  24853638.508    24853642.157    -3555137.890 9  -7685986.469 8
 86  6 11  4  6 11.0800000  0  4G12G13G 9G 7
  21070755.583    21070761.328    19025807.405 8 -35600906.187 9
  21557181.904    21557187.578    47365540.617 7 -57677096.790 8
  23636668.594    23636671.762    83170437.925 8 -92494342.069 7
                  24851225.406    -3567816.120 6
 86  6 11  4  6 17.0800000  0  4G12G13G 9G 7
  21071949.838    21071955.672    19032083.986 8 -35596015.347 8
  21558725.214    21558729.719    47373642.050 8 -57670783.971 8
  23641318.925    23641323.478    83194879.452 8 -92475296.731 8
                  24848817.812    -3580467.667 8
 86  6 11  4  6 23.0800000  0  4G12G13G 9G 7
  21073150.473    21073154.987    19038385.764 9 -35591104.880 8
  21560266.394    21560271.446    47381746.648 7 -57664468.705 8
  23645970.158    23645976.097    83219325.479 7 -92456247.867 9
  24846416.327    24846422.066    -3593087.275 9  -7651225.890 9
 86  6 11  4  6 29.0800000  0  4G12G13G 9G 7
  21074353.095    21074359.246    19044712.694 8 -35586174.794 8
  21561810.709    21561814.383    47389854.420 8 -57658150.960 8
  23650624.560    23650628.094    83243775.944 8 -92437195.568 8
  24844020.713    24844024.562    -3605675.032 9  -7661034.532 8
 86  6 11  4  6 35.0800000  0  4G12G13G 9G 7
  21075562.320    21075567.246    19051064.809 8 -35581225.094 8
  21563353.656    21563358.209    47397965.380 8 -57651830.726 8
  23655277.156    23655281.666    83268230.894 8 -92418139.759 8
  24841632.020    24841635.725    -3618234.792 8  -7670820.837 9
 86  6 11  4  6 41.0800000  0  4G12G13G 9G 7
  21076775.251    21076780.934    19057442.196 8 -35576255.709 8
  21564897.831    21564902.244    47406079.528 8 -57645508.012 9
  23659932.031    23659935.975    83292690.247 7 -92399080.519 8
  24839246.020    24839249.210    -3630771.125 9  -7680589.409 8
 86  6 11  4  6 47.0800000  0  4G12G13G 9G 7
  21077994.270    21077999.128    19063844.875 8 -35571266.600 8
  21566441.669    21566447.381    47414196.996 8 -57639182.703 8
  23664586.623    23664591.355    83317154.103 7 -92380017.761 8
  24836863.653    24836868.076    -3643287.489 9  -7690342.411 8
 86  6 11  4  6 53.0800000  0  4G12G13G 9G 7
  21079218.408    21079221.935    19070272.924 8 -35566257.734 8
  21567986.719    21567993.191    47422317.810 9 -57632854.800 8
  23669242.548    23669248.057    83341622.560 7 -92360951.439 8
  24834485.208    24834489.447    -3655786.383 9  -7700081.810 9
 86  6 11  4  6 59.0800000  0  4G12G13G 9G 7
  21080446.201    21080450.638    19076726.263 9 -35561229.161 8
  21569532.909    21569538.040    47430442.024 7 -57626524.249 8
  23673900.089    23673905.165    83366095.451 7 -92341881.650 8
  24832109.426    24832112.772    -3668269.390 9  -7709808.811 8
 86  6 11  4  7  5.0800000  0  4G12G13G 9G 7
  21081678.350    21081683.593    19083204.908 8 -35556180.869 8
  21571078.981    21571085.872    47438569.646 8 -57620191.031 8
  23678557.890    23678562.321    83390572.882 8 -92322808.333 8
  24829737.931    24829742.098    -3680736.391 9  -7719523.354 7
 86  6 11  4  7 11.0800000  0  4G12G13G 9G 7
  21082915.865    21082920.977    19089708.849 8 -35551112.867 9
  21572627.056    21572631.957    47446700.525 8 -57613855.282 8
  23683216.442    23683221.657    83415054.666 7 -92303731.622 8
                  24827372.880                    -7729222.183 8
 86  6 11  4  7 17.0800000  0  4G12G13G 9G 7
  21084158.817    21084164.459    19096238.002 9 -35546025.227 8
  21574174.402    21574180.223    47454834.679 9 -57607516.986 8
  23687876.787    23687880.438    83439540.781 8 -92284651.539 8
  24825015.596    24825008.202    -3729416.277 9  -7738899.883 8
 86  6 11  4  7 23.0800000  0  4G12G13G 9G 7
  21085406.909    21085410.722    19102792.345 8 -35540917.932 8
  21575723.182    21575728.935    47462972.098 9 -57601176.133 8
  23692536.805    23692541.257    83464031.282 7 -92265568.022 8
  24822648.024    24822653.193    -3741803.563 9  -7748552.151 8
 86  6 11  4  7 29.0800000  0  4G12G13G 9G 7
  21086658.413    21086663.284    19109371.921 9 -35535790.989 8
  21577272.482    21577277.447    47471112.744 9 -57594832.766 7
  23697197.810    23697202.804    83488526.095 7 -92246481.152 7
  24820297.381    24820301.878    -3754158.629 9  -7758179.494 8
 86  6 11  4  7 35.0800000  0  4G12G13G 9G 7
  21087915.536    21087919.581    19115976.765 9 -35530644.364 7
  21578822.715    21578827.211    47479256.636 9 -57588486.881 7
  23701860.203    23701864.617    83513025.281 8 -92227390.892 7
  24817950.945    24817955.226    -3766485.967 9  -7767784.806 8
 86  6 11  4  7 41.0800000  0  4G12G13G 9G 7
  21089176.571    21089180.408    19122606.852 8 -35525478.061 8
  21580372.416    21580377.445    47487403.765 9 -57582138.472 8
  23706521.563    23706528.864    83537528.697 9 -92208297.310 7
  24815609.990    24815613.298    -3778789.259 9  -7777371.773 8
 86  6 11  4  7 47.0800000  0  4G12G13G 9G 7
  21090442.015    21090448.057    19129262.169 8 -35520292.096 8
  21581923.820    21581928.333    47495554.121 8 -57575787.538 8
  23711186.668    23711191.562    83562036.425 7 -92189200.376 8
  24813272.826    24813276.377    -3791072.526 9  -7786943.146 8
 86  6 11  4  7 53.0800000  0  4G12G13G 9G 7
  21091715.098    21091719.900    19135942.749 9 -35515086.462 7
  21583475.673    21583480.311    47503707.801 9 -57569434.010 7
  23715850.573    23715855.874    83586548.320 8 -92170100.210 7
  24810937.995    24810943.349    -3803338.280 9  -7796500.874 8
 86  6 11  4  7 59.0800000  0  4G12G13G 9G 7
  21092990.973    21092995.747    19142648.341 8 -35509861.318 8
  21585027.123    21585032.790    47511864.606 9 -57563078.059 9
  23720516.033    23720520.535    83611064.338 8 -92150996.804 8
  24808607.514    24808610.953    -3815588.154 9  -7806046.211 7
 86  6 11  4  8  5.0800000  0  4G12G13G 9G 7
  21094271.168    21094275.881    19149378.895 8 -35504616.728 8
  21586580.505    21586584.921    47520024.509 8 -57556719.696 8
  23725182.318    23725187.084    83635584.444 8 -92131890.237 6
  24806279.981    24806283.161    -3827821.873 9  -7815578.979 8
 86  6 11  4  8 11.0800000  0  4G12G13G 9G 7
  21095557.542    21095562.105    19156134.470 8 -35499352.650 7
  21588132.815    21588138.668    47528187.483 9 -57550358.921 8
  23729849.519    23729854.175    83660108.478 8 -92112780.592 6
                  24803959.219                    -7825095.672 8
 86  6 11  4  8 17.0800000  0  4G12G13G 9G 7
  21096846.925    21096852.567    19162914.977 8 -35494069.127 7
  21589687.169    21589692.886    47536353.530 8 -57543995.773 8
  23734517.742    23734519.947    83684636.433 8 -92093667.893 8
  24801648.124    24801640.730    -3876349.629 9  -7834590.879 7
 86  6 11  4  8 23.0800000  0  4G12G13G 9G 7
  21098142.600    21098145.700    19169720.529 9 -35488766.112 8
  21591241.737    21591246.931    47544522.691 9 -57537630.185 8
  23739185.206    23739188.649    83709168.375 8 -92074552.091 8
  24799323.992    24799328.362    -3888502.644 9  -7844060.453 9
 86  6 11  4  8 29.0800000  0  4G12G13G 9G 7
  21099442.260    21099446.128    19176550.949 9 -35483443.700 8
  21592796.839    21592802.281    47552694.882 9 -57531262.252 8
  23743855.262    23743858.087    83733704.221 9 -92055433.255 9
  24797018.583    24797022.234    -3900623.276 9  -7853505.106 8
 86  6 11  4  8 35.0800000  0  4G12G13G 9G 7
  21100745.706    21100751.298    19183406.370 9 -35478101.818 7
  21594352.195    21594358.111    47560870.208 9 -57524891.853 8
  23748524.079    23748528.310    83758244.059 9 -92036311.292 8
  24794716.463    24794720.774    -3912715.405 9  -7862927.923 8
 86  6 11  4  8 41.0800000  0  4G12G13G 9G 7
  21102056.992    21102059.057    19190286.882 9 -35472740.380 7
  21595909.460    21595913.560    47569048.685 9 -57518519.014 9
  23753194.379    23753199.874    83782787.869 8 -92017186.260 8
  24792418.878    24792424.233    -3924784.587 8  -7872332.475 8
 86  6 11  4  8 47.0800000  0  4G12G13G 9G 7
  21103369.361    21103375.069    19197192.535 9 -35467359.350 7
  21597465.492    21597471.433    47577230.356 9 -57512143.683 7
  23757865.771    23757869.852    83807335.664 7 -91998058.104 7
  24790126.774    24790130.957    -3936833.842 9  -7881721.495 8
 86  6 11  4  8 53.0800000  0  4G12G13G 9G 7
  21104689.008    21104693.676    19204123.263 9 -35461958.778 7
  21599022.691    21599028.270    47585415.124 9 -57505765.950 8
  23762537.707    23762541.574    83831887.366 8 -91978926.908 8
  24787837.490    24787841.828    -3948865.389 9  -7891096.722 8
 86  6 11  4  8 59.0800000  0  4G12G13G 9G 7
  21106013.690    21106017.422    19211079.016 8 -35456538.710 8
  21600581.607    21600586.721    47593602.920 9 -57499385.835 7
  23767211.490    23767215.279    83856442.987 8 -91959792.656 8
  24785549.621    24785555.219    -3960880.860 9  -7900459.413 8
 86  6 11  4  9  5.0800000  0  4G12G13G 9G 7
  21107341.412    21107347.477    19218059.774 8 -35451099.167 8
  21602140.166    21602143.433    47601793.860 9 -57493003.290 7
  23771884.273    23771888.595    83881002.471 7 -91940655.396 8
  24783266.719    24783270.758    -3972879.669 9  -7909809.122 8
 86  6 11  4  9 11.0800000  0  4G12G13G 9G 7
  21108673.269    21108679.676    19225065.596 8 -35445640.077 8
  21603698.870    21603705.550    47609987.923 9 -57486618.297 8
  23776557.304    23776562.706    83905565.806 8 -91921515.127 7
                  24780990.701                    -7919142.297 8
 86  6 11  4  9 17.0800000  0  4G12G13G 9G 7
  21110012.683    21110015.853    19232096.434 9 -35440161.495 7
  21605259.570    21605265.884    47618185.053 9 -57480230.915 7
  23781233.069    23781237.634    83930132.939 8 -91902371.910 7
  24778674.415    24778718.387    -4021172.144 9  -7928453.478 8
 86  6 11  4  9 23.0800000  0  4G12G13G 9G 7
  21111355.283    21111359.376    19239152.269 9 -35434663.456 8
  21606820.702    21606825.068    47626385.337 9 -57473841.093 7
  23785908.539    23785912.111    83954703.918 8 -91883225.684 8
  24776444.985    24776451.268    -4033088.194 9  -7937738.731 8
 86  6 11  4  9 29.0800000  0  4G12G13G 9G 7
  21112702.401    21112706.985    19246233.006 9 -35429145.979 7
  21608380.053    21608385.761    47634588.646 9 -57467448.898 8
  23790585.733    23790589.956    83979278.645 7 -91864076.548 8
  24774184.304    24774189.799    -4044972.695 8  -7946998.986 8
 86  6 11  4  9 35.0800000  0  4G12G13G 9G 7
  21114054.188    21114059.217    19253338.652 9 -35423609.128 7
  21609942.625    21609948.322    47642794.990 9 -57461054.341 8
  23795262.837    23795267.397    84003857.040 8 -91844924.546 7
  24771928.176    24771933.294    -4056828.709 8  -7956237.424 7
 86  6 11  4  9 41.0800000  0  4G12G13G 9G 7
  21115411.102    21115414.870    19260469.242 8 -35418052.818 7
  21611505.184    21611508.820    47651004.395 9 -57454657.408 7
  23799940.733    23799944.749    84028439.044 8 -91825769.739 8
  24769676.966    24769682.430    -4068661.371 8  -7965457.672 8
 86  6 11  4  9 47.0800000  0  4G12G13G 9G 7
  21116772.651    21116778.419    19267624.719 8 -35412477.136 7
  21613067.609    21613074.142    47659216.797 9 -57448258.125 9
  23804618.509    23804623.382    84053024.787 7 -91806612.040 8
  24767428.915    24767433.237    -4080473.938 9  -7974662.269 8
 86  6 11  4  9 53.0800000  0  4G12G13G 9G 7
  21118140.235    21118143.375    19274804.993 9 -35406882.107 8
  21614630.320    21614635.382    47667432.164 9 -57441856.540 8
  23809297.959    23809302.454    84077614.084 8 -91787451.533 8
  24765185.584    24765188.351    -4092268.859 9  -7983853.105 9
 86  6 11  4  9 59.0800000  0  4G12G13G 9G 7
  21119509.624    21119515.553    19282010.229 9 -35401267.650 9
  21616195.841    21616200.337    47675650.599 8 -57435452.570 8
  23813977.809    23813983.389    84102206.962 8 -91768288.250 7
  24762943.882    24762947.544    -4104047.592 9  -7993031.325 8
 86  6 11  4 10  5.0800000  0  4G12G13G 9G 7
  21120886.854    21120891.440    19289240.375 9 -35395633.769 7
  21617759.001    21617765.286    47683872.091 8 -57429046.201 7
  23818659.346    23818662.975    84126803.504 7 -91749122.097 7
  24760705.090    24760708.759    -4115809.359 9  -8002196.330 8
 86  6 11  4 10 11.0800000  0  4G12G13G 9G 7
  21122267.776    21122271.446    19296495.401 8 -35389980.499 8
  21619323.376    21619329.585    47692096.526 9 -57422637.551 8
  23823340.092    23823344.394    84151403.453 8 -91729953.303 8
                  24758475.721                    -8011344.368 8
 86  6 11  4 10 17.0800000  0  4G12G13G 9G 7
  21123652.849    21123656.477    19303775.267 9 -35384307.870 8
  21620890.175    21620895.112    47700323.924 9 -57416226.586 8
  23828022.022    23828026.782    84176006.946 8 -91710781.764 8
  24756173.765    24756247.259    -4163784.665 8  -8020469.980 9
 86  6 11  4 10 23.0800000  0  4G12G13G 9G 7
  21125042.416    21125045.555    19311079.918 8 -35378615.932 7
  21622456.108    21622460.746    47708554.337 7 -57409813.277 9
  23832704.278    23832708.071    84200614.006 8 -91691607.428 8
  24754020.385    24754025.671    -4175462.312 8  -8029569.502 9
 86  6 11  4 10 29.0800000  0  4G12G13G 9G 7
  21126437.332    21126441.619    19318409.363 8 -35372904.685 8
  21624023.009    21624028.437    47716787.779 8 -57403397.604 8
  23837387.739    23837392.227    84225224.457 7 -91672430.460 9
  24751804.034    24751808.643    -4187107.938 8  -8038644.018 9
 86  6 11  4 10 35.0800000  0  4G12G13G 9G 7
  21127836.542    21127840.911    19325763.608 8 -35367174.100 8
  21625591.067    21625595.848    47725024.251 9 -57396979.573 8
  23842071.633    23842075.267    84249838.184 7 -91653250.927 8
  24749594.336    24749597.956    -4198725.559 9  -8047696.697 8
 86  6 11  4 10 41.0800000  0  4G12G13G 9G 7
  21129240.932    21129245.759    19333142.673 9 -35361424.183 9
  21627158.509    21627163.795    47733263.697 9 -57390559.229 9
  23846755.258    23846759.875    84274455.509 7 -91634068.593 9
  24747387.057    24747392.132    -4210319.883 9  -8056731.224 9
 86  6 11  4 10 47.0800000  0  4G12G13G 9G 7
  21130649.787    21130654.529    19340546.574 8 -35355654.910 8
  21628726.175    21628731.952    47741506.196 8 -57384136.504 9
  23851440.796    23851444.919    84299076.338 6 -91614883.543 8
  24745184.879    24745189.459    -4221894.123 9  -8065750.112 8
 86  6 11  4 10 53.0800000  0  4G12G13G 9G 7
  21132063.248    21132068.218    19347975.253 9 -35349866.328 7
  21630296.326    21630299.987    47749751.663 8 -57377711.456 9
  23856126.776    23856130.616    84323700.450 7 -91595695.926 8
  24742985.692    24742989.427    -4233450.599 8  -8074755.152 8
 86  6 11  4 10 59.0800000  0  4G12G13G 9G 7
  21133480.772    21133485.858    19355428.785 7 -35344058.373 7
  21631864.866    21631870.775    47758000.109 9 -57371284.097 9
  23860812.947    23860818.012    84348327.952 7 -91576505.670 7
  24740788.685    24740793.864    -4244990.713 9  -8083747.441 9
 86  6 11  4 11  5.0800000  0  4G12G13G 9G 7
  21134904.851    21134908.406    19362907.130 8 -35338231.094 8
  21633435.355    21633440.360    47766251.616 9 -57364854.350 9
  23865499.700    23865505.431    84372958.853 7 -91557312.768 8
  24738596.090    24738602.028    -4256513.453 8  -8092726.185 8
 86  6 11  4 11 11.0800000  0  4G12G13G 9G 7
  21136332.022    21136336.263    19370410.327 9 -35332384.451 8
  21635006.463    21635011.640    47774506.085 9 -57358422.295 9
  23870186.791    23870192.558    84397592.953 7 -91538117.367 8
                  24736413.311                    -8101687.534 8
 86  6 11  4 11 17.0800000  0  4G12G13G 9G 7
  21137765.231    21137769.143    19377938.322 8 -35326518.488 8
  21636578.455    21636583.786    47782763.486 8 -57351987.951 8
  23874876.228    23874880.221    84422230.501 7 -91518919.271 9
  24734126.045    24734228.845    -4304331.136 9  -8110626.003 8
 86  6 11  4 11 23.0800000  0  4G12G13G 9G 7
  21139202.216    21139206.988    19385490.977 9 -35320633.296 8
  21638149.711    21638154.784    47791023.825 9 -57345551.322 8
  23879564.568    23879569.644    84446871.225 7 -91499718.718 8
  24732048.449    24732053.550    -4315768.544 8  -8119538.058 9
 86  6 11  4 11 29.0800000  0  4G12G13G 9G 7
  21140644.009    21140648.994    19393068.404 8 -35314728.812 8
  21639720.954    21639726.750    47799287.084 8 -57339112.421 8
  23884255.832    23884259.647    84471515.417 7 -91480515.450 8
  24729878.120    24729883.288    -4327173.121 9  -8128425.123 9
 86  6 11  4 11 35.0800000  0  4G12G13G 9G 7
  21142090.557    21142095.267    19400670.548 8 -35308805.061 9
  21641295.030    21641300.345    47807553.316 9 -57332671.203 9
  23888945.290    23888949.221    84496162.554 7 -91461309.894 9
  24727714.037    24727718.048    -4338550.298 9  -8137290.441 8
 86  6 11  4 11 41.0800000  0  4G12G13G 9G 7
  21143543.081    21143545.218    19408297.424 8 -35302862.042 8
  21642868.150    21642874.026    47815822.428 9 -57326227.740 8
  23893636.421    23893640.616    84520812.951 8 -91442101.783 8
  24725551.568    24725557.859    -4349904.020 9  -8146137.491 8
 86  6 11  4 11 47.0800000  0  4G12G13G 9G 7
  21144997.925    21145002.952    19415948.949 8 -35296899.807 8
  21644443.142    21644447.782    47824094.426 8 -57319782.022 9
  23898327.241    23898332.635    84545465.999 8 -91422891.618 9
  24723396.224    24723400.975    -4361237.630 9  -8154968.867 9
 86  6 11  4 11 53.0800000  0  4G12G13G 9G 7
  21146459.321    21146464.550    19423625.156 8 -35290918.344 9
  21646017.518    21646022.511    47832369.314 9 -57313334.060 8
  23903020.256    23903023.818    84570122.687 7 -91403678.620 9
  24721242.984    24721247.213    -4372553.309 9  -8163786.268 8
 86  6 11  4 11 59.0800000  0  4G12G13G 9G 7
  21147924.812    21147928.394    19431325.998 8 -35284917.705 8
  21647592.624    21647597.917    47840647.195 9 -57306883.762 9
  23907712.038    23907716.554    84594782.497 7 -91384463.175 8
  24719092.630    24719097.710    -4383852.495 9  -8172590.823 8
 86  6 11  4 12  5.0800000  0  4G12G13G 9G 7
  21149394.995    21149399.078    19439051.440 9 -35278897.868 7
  21649167.841    21649172.862    47848927.989 9 -57300431.192 9
  23912404.938    23912409.469    84619444.798 8 -91365245.789 9
  24716945.896    24716950.863    -4395134.007 9  -8181381.598 8
 86  6 11  4 12 11.0800000  0  4G12G13G 9G 7
  21150869.555    21150874.571    19446801.592 9 -35272858.799 9
  21650744.845    21650749.998    47857211.619 9 -57293976.409 8
  23917098.688    23917103.363    84644110.634 8 -91346025.653 9
                  24714807.461                    -8190154.489 8
 86  6 11  4 12 17.0800000  0  4G12G13G 9G 7
  21152347.982    21152353.196    19454576.391 9 -35266800.506 8
  21652321.840    21652326.163    47865498.173 9 -57287519.361 8
  23921792.806    23921797.850    84668779.880 7 -91326802.868 9
  24712670.379    24712671.389    -4442711.667 9  -8198904.025 8
 86  6 11  4 12 23.0800000  0  4G12G13G 9G 7
  21153832.389    21153837.204    19462375.765 8 -35260723.066 8
  21653899.295    21653903.749    47873787.627 9 -57281060.040 9
                  23926493.469                   -91307578.131 8
  24710537.388    24710541.004    -4453906.295 9  -8207627.118 8
 86  6 11  4 12 29.0800000  0  4G12G13G 9G 7
  21155321.547    21155325.143    19470199.724 9 -35254626.494 8
  21655477.435    21655482.297    47882079.906 9 -57274598.525 9
                  23931188.573                   -91288350.849 8
  24708413.338    24708416.969    -4465069.368 9  -8216325.219 8
 86  6 11  4 12 35.0800000  0  4G12G13G 9G 7
  21156816.514    21156819.724    19478048.180 8 -35248510.801 8
  21657055.092    21657059.956    47890374.948 8 -57268134.852 9
  23935877.488    23935883.763    84620647.144 7 -91269121.636 8
  24706293.542    24706299.319    -4476204.201 9  -8225001.702 8
 86  6 11  4 12 41.0800000  0  4G12G13G 9G 7
  21158313.685    21158318.197    19485921.086 8 -35242376.073 8
  21658634.190    21658639.241    47898672.753 9 -57261669.029 9
  23940575.178    23940580.476    84645327.453 8 -91249890.228 8
  24704179.569    24704183.489    -4487315.809 9  -8233660.092 8
 86  6 11  4 12 47.0800000  0  4G12G13G 9G 7
  21159816.005    21159821.120    19493818.552 8 -35236222.194 8
  21660214.934    21660219.533    47906973.372 9 -57255201.004 8
  23945273.411    23945277.146    84670010.634 7 -91230656.580 7
  24702068.928    24702073.316    -4498407.146 9  -8242302.704 9
 86  6 11  4 12 53.0800000  0  4G12G13G 9G 7
  21161322.936    21161327.521    19501740.518 9 -35230049.255 8
  21661794.851    21661799.572    47915276.798 9 -57248730.807 9
  23949970.583    23949976.135    84694696.659 7 -91211420.714 8
  24699961.496    24699964.679    -4509480.471 8  -8250931.257 9
 86  6 11  4 12 59.0800000  0  4G12G13G 9G 7
  21162836.904    21162839.329    19509686.983 8 -35223857.191 8
  21663374.821    21663379.981    47923583.041 9 -57242258.401 9
  23954668.554    23954673.707    84719385.482 8 -91192182.674 8
  24697857.027    24697861.562    -4520537.097 8  -8259546.799 8
 86  6 11  4 13  5.0800000  0  4G12G13G 9G 7
  21164353.163    21164356.904    19517657.954 8 -35217646.042 8
  21664956.869    21664962.239    47931892.127 9 -57235783.793 8
  23959368.610    23959372.115    84744077.201 7 -91172942.362 8
  24695757.055    24695761.420    -4531575.675 9  -8268148.279 9
 86  6 11  4 13 11.0800000  0  4G12G13G 9G 7
  21165873.915    21165878.298    19525653.428 8 -35211415.806 8
  21666537.243    21666542.923    47940203.946 9 -57229307.052 8
  23964066.920    23964071.204    84768771.477 7 -91153700.071 8
                  24693664.848                    -8276731.583 8
 86  6 11  4 13 17.0800000  0  4G12G13G 9G 7
  21167399.791    21167403.303    19533673.334 9 -35205166.522 9
  21668120.150    21668125.109    47948518.544 9 -57222828.141 9
  23968767.238    23968770.865    84793468.577 8 -91134455.591 9
  24691571.608    24691573.687    -4578910.312 8  -8285291.216 8
 86  6 11  4 13 23.0800000  0  4G12G13G 9G 7
  21168931.131    21168935.359    19541717.651 8 -35198898.212 8
  21669703.515    21669707.097    47956836.031 8 -57216346.986 8
  23973466.197    23973470.890    84818168.274 8 -91115209.067 8
  24689487.146    24689490.720    -4589860.992 9  -8293824.212 9
 86  6 11  4 13 29.0800000  0  4G12G13G 9G 7
  21170466.907    21170470.776    19549786.452 9 -35192610.840 8
  21671285.851    21671291.929    47965156.333 9 -57209863.633 8
  23978167.932    23978172.304    84842870.686 8 -91095960.437 8
  24687408.328    24687413.340    -4600779.040 8  -8302332.175 8
 86  6 11  4 13 35.0800000  0  4G12G13G 9G 7
  21172005.489    21172011.461    19557879.642 8 -35186304.477 9
  21672869.972    21672874.855    47973479.400 8 -57203378.122 8
  23982868.566    23982873.861    84867575.852 8 -91076709.678 8
  24685335.179    24685341.061    -4611669.803 9  -8310818.478 9
 86  6 11  4 13 41.0800000  0  4G12G13G 9G 7
  21173549.852    21173555.923    19565997.254 8 -35179979.063 8
  21674453.721    21674459.086    47981805.274 8 -57196890.421 8
  23987568.900    23987574.588    84892283.528 8 -91057456.923 8
  24683268.451    24683272.119    -4622537.335 8  -8319286.676 8
 86  6 11  4 13 47.0800000  0  4G12G13G 9G 7
  21175100.624    21175106.052    19574139.256 7 -35173634.625 8
  21676039.967    21676044.469    47990133.880 9 -57190400.593 8
  23992272.668    23992276.581    84916993.882 8 -91038202.101 7
  24681203.682    24681208.676    -4633384.655 9  -8327739.118 9
 86  6 11  4 13 53.0800000  0  4G12G13G 9G 7
  21176654.687    21176658.843    19582305.696 8 -35167271.180 8
  21677625.273    21677629.659    47998465.260 9 -57183908.619 9
  23996975.778    23996979.769    84941706.887 8 -91018945.209 8
  24679143.554    24679148.192    -4644213.754 8  -8336177.377 8
 86  6 11  4 13 59.0800000  0  4G12G13G 9G 7
  21178213.359    21178216.828    19590496.576 8 -35160888.675 7
  21679211.172    21679214.814    48006799.468 9 -57177414.425 9
  24001677.694    24001682.262    84966422.455 8 -90999686.326 8
  24677085.153    24677090.028    -4655025.965 8  -8344602.468 9
 86  6 11  4 14  5.0800000  0  4G12G13G 9G 7
  21179776.695    21179780.821    19598711.856 7 -35154487.161 8
  21680797.629    21680802.379    48015136.407 8 -57170918.095 9
  24006382.540    24006386.045    84991140.598 8 -90980425.424 8
  24675031.473    24675035.904    -4665819.801 9  -8353013.242 8
 86  6 11  4 14 11.0800000  0  4G12G13G 9G 7
  21181345.498    21181349.280    19606951.523 8 -35148066.644 8
  21682384.175    21682389.051    48023476.084 9 -57164419.647 8
  24011086.723    24011091.438    85015861.199 8 -90961162.611 8
                  24672986.732                    -8361405.394 8
 86  6 11  4 14 17.0800000  0  4G12G13G 9G 7
  21182917.476    21182921.431    19615215.526 8 -35141627.161 8
  21683972.159    21683976.590    48031818.539 8 -57157919.040 8
  24015791.219    24015795.347    85040584.307 7 -90941897.859 8
  24670936.057    24670942.403    -4712912.216 9  -8369773.440 8
 86  6 11  4 14 23.0800000  0  4G12G13G 9G 7
  21184495.035    21184498.903    19623503.867 8 -35135168.713 7
  21685559.646    21685564.926    48040163.830 9 -57151416.200 8
  24020496.254    24020501.247    85065309.882 7 -90922631.176 8
  24668901.741    24668906.489    -4723616.864 8  -8378114.685 8
 86  6 11  4 14 29.0800000  0  4G12G13G 9G 7
  21186076.573    21186081.001    19631816.498 9 -35128691.337 8
  21687148.788    21687152.295    48048511.890 9 -57144911.229 8
  24025202.363    24025205.667    85090037.926 8 -90903362.577 8
  24666870.809    24666875.416    -4734289.953 8  -8386430.979 9
 86  6 11  4 14 35.0800000  0  4G12G13G 9G 7
  21187662.774    21187667.630    19640153.397 8 -35122195.069 8
  21688738.089    21688742.956    48056862.573 9 -57138404.181 9
  24029907.841    24029912.562    85114768.273 8 -90884092.185 8
  24664844.621    24664850.304    -4744934.866 9  -8394725.716 8
 86  6 11  4 14 41.0800000  0  4G12G13G 9G 7
  21189253.443    21189257.826    19648514.610 8 -35115679.826 8
  21690328.062    21690331.815    48065215.930 8 -57131895.074 9
  24034613.960    24034619.672    85139500.957 7 -90864819.961 7
  24662823.458    24662827.665    -4755556.422 9  -8403002.245 8
 86  6 11  4 14 47.0800000  0  4G12G13G 9G 7
  21190849.376    21190854.318    19656900.013 8 -35109145.742 8
  21691917.168    21691921.548    48073571.955 9 -57125383.876 9
  24039321.200    24039326.400    85164235.956 7 -90845545.935 8
  24660805.893    24660811.059    -4766157.715 8  -8411262.993 8
 86  6 11  4 14 53.0800000  0  4G12G13G 9G 7
  21192450.371    21192454.329    19665309.621 8 -35102592.807 8
  21693509.135    21693512.387    48081930.655 9 -57118870.606 9
  24044029.754    24044033.859    85188973.178 7 -90826270.173 9
  24658793.563    24658797.390    -4776740.886 9  -8419509.600 8
 86  6 11  4 14 59.0800000  0  4G12G13G 9G 7
  21194053.802    21194059.359    19673743.507 8 -35096020.947 8
  21695098.869    21695104.563    48090292.019 9 -57112355.271 9
  24048736.963    24048740.439    85213712.689 8 -90806992.642 9
  24656783.256    24656786.187    -4787307.039 9  -8427742.971 9
 86  6 11  4 15  5.0800000  0  4G12G13G 9G 7
  21195663.847    21195668.101    19682201.634 9 -35089430.201 8
  21696690.722    21696695.074    48098656.079 9 -57105837.806 8
  24053444.657    24053449.186    85238454.520 7 -90787713.289 9
  24654775.040    24654779.541    -4797854.479 8  -8435961.758 9
 86  6 11  4 15 11.0800000  0  4G12G13G 9G 7
  21197277.549    21197282.506    19690683.965 8 -35082820.595 8
  21698283.229    21698285.705    48107022.779 9 -57099318.307 8
  24058152.663    24058158.119    85263198.507 7 -90768432.265 8
                  24652776.266                    -8444161.537 8
 86  6 11  4 15 17.0800000  0  4G12G13G 9G 7
  21198896.950    21198901.932    19699190.343 9 -35076192.239 8
  21699876.402    21699879.998    48115392.105 9 -57092796.745 9
  24062862.188    24062866.210    85287944.620 7 -90749149.573 7
  24650775.531    24650782.910    -4844701.628 9  -8452336.777 8
 86  6 11  4 15 23.0800000  0  4G12G13G 9G 7
  21200520.297    21200525.355    19707720.877 9 -35069545.083 7
  21701468.226    21701472.354    48123764.088 8 -57086273.121 9
  24067571.172    24067576.787    85312692.879 7 -90729865.223 8
  24648785.447    24648790.888    -4855158.798 8  -8460485.227 9
 86  6 11  4 15 29.0800000  0  4G12G13G 9G 7
  21202149.657    21202152.653    19716275.605 8 -35062879.046 8
  21703062.467    21703066.528    48132138.637 9 -57079747.504 8
  24072281.415    24072285.499    85337443.262 8 -90710579.206 9
  24646801.769    24646806.846    -4865583.332 9  -8468608.617 9
 86  6 11  4 15 35.0800000  0  4G12G13G 9G 7
  21203781.763    21203785.516    19724854.553 8 -35056194.167 8
  21704655.938    21704660.746    48140515.966 9 -57073219.702 9
  24076991.449    24076996.021    85362195.851 8 -90691291.472 8
  24644824.172    24644828.169    -4875980.547 9  -8476710.339 8
 86  6 11  4 15 41.0800000  0  4G12G13G 9G 7
  21205418.391    21205422.832    19733457.743 8 -35049490.385 7
  21706250.873    21706255.441    48148896.016 9 -57066689.790 9
  24081701.264    24081706.685    85386950.627 8 -90672002.034 8
  24642849.482    24642853.993    -4886354.352 8  -8484793.830 8
 86  6 11  4 15 47.0800000  0  4G12G13G 9G 7
  21207060.454    21207064.581    19742085.084 7 -35042767.767 8
  21707846.569    21707851.272    48157278.746 8 -57060157.788 9
  24086413.821    24086418.242    85411707.546 7 -90652710.924 8
  24640879.360    24640884.192    -4896707.840 9  -8492861.471 8
 86  6 11  4 15 53.0800000  0  4G12G13G 9G 7
  21208707.069    21208709.625    19750736.445 8 -35036026.455 8
  21709442.544    21709445.993    48165664.132 9 -57053623.719 9
  24091124.767    24091130.319    85436466.442 7 -90633418.287 8
  24638913.023    24638916.793    -4907043.079 9  -8500914.893 9
 86  6 11  4 15 59.0800000  0  4G12G13G 9G 7
  21210357.322    21210360.991    19759411.929 8 -35029266.337 8
  21711038.206    21711042.474    48174052.136 9 -57047087.613 9
  24095836.406    24095842.014    85461227.296 7 -90614124.106 7
  24636949.131    24636953.057    -4917361.284 9  -8508955.044 8
 86  6 11  4 16  5.0800000  0  4G12G13G 9G 7
  21212011.723    21212017.137    19768111.537 8 -35022487.430 8
  21712635.438    21712639.362    48182442.759 8 -57040549.464 9
  24100548.379    24100553.545    85485990.138 8 -90594828.397 8
  24634989.306    24634993.556    -4927660.434 8  -8516980.355 8
 86  6 11  4 16 11.0800000  0  4G12G13G 9G 7
  21213673.048    21213677.031    19776835.215 9 -35015689.747 8
  21714231.715    21714237.183    48190835.942 9 -57034009.323 9
  24105260.703    24105266.148    85510754.921 8 -90575531.162 7
                  24633038.739                    -8524986.254 8
 86  6 11  4 16 17.0800000  0  4G12G13G 9G 7
  21215336.920    21215341.805    19785582.995 8 -35008873.290 8
  21715829.818    21715834.966    48199231.767 8 -57027467.110 9
  24109974.531    24109978.093    85535521.657 7 -90556232.405 8
  24631082.267    24631089.958    -4974263.090 9  -8532967.335 9
 86  6 11  4 16 23.0800000  0  4G12G13G 9G 7
  21217006.543    21217011.127    19794354.844 8 -35002038.092 7
  21717428.844    21717433.089    48207630.303 9 -57020922.797 8
  24114687.791    24114692.814    85560290.417 8 -90536932.070 8
  24629142.739    24629147.337    -4984470.767 9  -8540921.357 8
 86  6 11  4 16 29.0800000  0  4G12G13G 9G 7
  21218679.461    21218684.645    19803150.727 8 -34995184.152 8
  21719026.488    21719030.674    48216031.502 9 -57014376.406 8
  24119401.447    24119406.650    85585061.094 8 -90517630.266 8
  24627206.744    24627210.258    -4994646.394 9  -8548850.416 8
 86  6 11  4 16 35.0800000  0  4G12G13G 9G 7
  21220358.444    21220362.412    19811970.542 8 -34988311.567 9
  21720626.477    21720631.246    48224435.247 9 -57007828.025 8
  24124115.483    24124120.618    85609833.516 8 -90498327.081 7
  24625275.798    24625279.644    -5004794.444 9  -8556757.976 8
 86  6 11  4 16 41.0800000  0  4G12G13G 9G 7
  21222041.948    21222045.731    19820814.306 8 -34981420.321 8
  21722225.533    21722231.097    48232841.507 9 -57001277.707 8
  24128829.961    24128834.467    85634607.720 8 -90479022.499 8
  24623348.629    24623352.997    -5014919.144 9  -8564647.347 9
 86  6 11  4 16 47.0800000  0  4G12G13G 9G 7
  21223729.230    21223734.616    19829682.009 8 -34974510.428 8
  21723826.978    21723830.885    48241250.297 8 -56994725.388 9
  24133544.889    24133548.459    85659383.731 7 -90459716.503 7
  24621425.910    24621429.560    -5025023.453 8  -8572520.836 9
 86  6 11  4 16 53.0800000  0  4G12G13G 9G 7
  21225420.319    21225425.220    19838573.619 8 -34967581.887 8
  21725426.639    21725430.611    48249661.649 9 -56988171.076 9
  24138259.555    24138262.472    85684161.492 7 -90440409.158 8
  24619506.449    24619510.935    -5035109.515 9  -8580380.092 9
 86  6 11  4 16 59.0800000  0  4G12G13G 9G 7
  21227118.249    21227122.632    19847489.244 8 -34960634.655 8
  21727027.519    21727031.938    48258075.565 9 -56981614.781 9
  24142975.563    24142979.919    85708941.032 7 -90421100.430 8
  24617591.339    24617594.133    -5045178.093 9  -8588225.721 8
 86  6 11  4 17  5.0800000  0  4G12G13G 9G 7
  21228818.380    21228823.264    19856428.821 8 -34953668.748 8
  21728628.692    21728634.031    48266491.979 9 -56975056.532 9
  24147690.865    24147695.027    85733722.212 7 -90401790.414 7
  24615678.184    24615682.589    -5055227.345 9  -8596056.302 8
 86  6 11  4 17 11.0800000  0  4G12G13G 9G 7
  21230524.637    21230528.177    19865392.347 8 -34946684.192 7
  21730231.061    21730235.407    48274910.978 9 -56968496.271 9
  24152407.144    24152411.294    85758505.063 8 -90382479.086 9
                  24613773.441                    -8603867.053 8
 86  6 11  4 17 17.0800000  0  4G12G13G 9G 7
  21232234.756    21232239.126    19874379.813 8 -34939680.962 8
  21731833.904    21731839.160    48283332.596 9 -56961933.966 8
  24157122.566    24157127.918    85783289.618 8 -90363166.464 7
  24611869.676    24611871.663    -5101581.185 9  -8611652.667 8
 86  6 11  4 17 23.0800000  0  4G12G13G 9G 7
  21233949.026    21233952.794    19883391.197 8 -34932659.095 8
  21733437.718    21733440.468    48291756.796 9 -56955369.664 8
  24161838.076    24161843.986    85808075.916 8 -90343852.461 8
  24609974.948    24609977.452    -5111537.836 9  -8619411.074 8
 86  6 11  4 17 29.0800000  0  4G12G13G 9G 7
  21235668.533    21235674.032    19892426.503 8 -34925618.605 8
  21735040.487    21735044.334    48300183.496 9 -56948803.394 9
  24166555.853    24166561.991    85832863.770 7 -90324537.271 9
  24608086.385    24608089.926    -5121463.000 9  -8627144.580 8
 86  6 11  4 17 35.0800000  0  4G12G13G 9G 7
  21237392.617    21237397.519    19901485.671 8 -34918559.517 8
  21736644.137    21736649.138    48308612.746 9 -56942235.149 9
  24171273.685    24171278.972    85857653.313 8 -90305220.744 8
  24606203.022    24606206.940    -5131360.017 9  -8634856.532 8
 86  6 11  4 17 41.0800000  0  4G12G13G 9G 7
  21239121.627    21239126.038    19910568.723 8 -34911481.824 8
  21738249.228    21738252.881    48317044.573 8 -56935664.893 9
  24175991.463    24175996.199    85882444.553 8 -90285902.907 7
  24604324.155    24604328.161    -5141233.586 9  -8642550.230 9
 86  6 11  4 17 47.0800000  0  4G12G13G 9G 7
  21240852.923    21240859.481    19919675.674 7 -34904385.491 7
  21739853.706    21739858.768    48325479.029 9 -56929092.581 9
  24180709.124    24180714.410    85907237.364 8 -90266583.840 7
  24602448.927    24602452.747    -5151086.492 9  -8650227.815 8
 86  6 11  4 17 53.0800000  0  4G12G13G 9G 7
  21242591.433    21242597.405    19928806.524 8 -34897270.545 9
  21741459.590    21741462.966    48333916.121 9 -56922518.217 9
  24185427.872    24185432.045    85932031.777 8 -90247263.512 8
  24600577.749    24600582.347    -5160921.089 9  -8657891.133 8
 86  6 11  4 17 59.0800000  0  4G12G13G 9G 7
  21244333.435    21244338.433    19937961.278 8 -34890136.982 8
  21743065.620    21743069.454    48342355.750 9 -56915941.886 9
  24190145.978    24190151.424    85956827.657 8 -90227942.042 8
  24598709.388    24598713.698    -5170738.018 9  -8665540.674 8
 86  6 11  4 18  5.0800000  0  4G12G13G 9G 7
  21246080.185    21246085.312    19947139.802 7 -34882984.881 8
  21744672.662    21744675.611    48350797.911 9 -56909363.572 9
  24194865.488    24194869.594    85981625.068 8 -90208619.382 7
  24596844.945    24596849.058    -5180535.140 9  -8673174.792 8
 86  6 11  4 18 11.0800000  0  4G12G13G 9G 7
  21247830.371    21247836.443    19956342.063 9 -34875814.295 7
  21746279.478    21746284.097    48359242.594 9 -56902783.299 8
  24199584.929    24199588.049    86006423.884 8 -90189295.637 7
                  24594989.569                    -8680788.668 8
 86  6 11  4 18 17.0800000  0  4G12G13G 9G 7
  21249586.250    21249591.709    19965568.068 7 -34868625.195 9
  21747887.062    21747890.288    48367689.812 9 -56896201.053 9
  24204303.909    24204307.380    86031224.210 8 -90169970.697 8
  24593132.744    24593136.170    -5226633.717 9  -8688377.061 8
 86  6 11  4 18 23.0800000  0  4G12G13G 9G 7
  21251346.968    21251352.024    19974817.868 8 -34861417.555 7
  21749494.721    21749499.326    48376139.489 9 -56889616.880 9
  24209023.703    24209026.858    86056025.878 9 -90150644.732 8
  24591285.791    24591290.015    -5236337.252 8  -8695938.243 8
 86  6 11  4 18 29.0800000  0  4G12G13G 9G 7
  21253112.149    21253116.719    19984091.296 7 -34854191.509 8
  21751102.935    21751107.260    48384591.556 9 -56883030.857 9
  24213743.090    24213747.018    86080828.835 7 -90131317.744 7
  24589445.177    24589450.945    -5246008.708 9  -8703474.434 8
 86  6 11  4 18 35.0800000  0  4G12G13G 9G 7
  21254880.623    21254886.336    19993388.305 7 -34846947.088 8
  21752711.595    21752715.996    48393045.956 9 -56876442.999 8
  24218462.605    24218468.178    86105633.014 7 -90111989.816 7
  24587610.532    24587614.690    -5255652.676 9  -8710989.211 7
 86  6 11  4 18 41.0800000  0  4G12G13G 9G 7
  21256655.018    21256660.132    20002708.879 7 -34839684.304 7
  21754321.562    21754325.504    48401502.838 9 -56869853.212 8
  24223182.699    24223187.885    86130438.434 7 -90092660.926 7
  24585779.105    24585783.797    -5265273.446 9  -8718485.909 8
 86  6 11  4 18 47.0800000  0  4G12G13G 9G 7
  21258431.934    21258437.694    20012053.119 8 -34832403.095 8
  21755930.316    21755935.140    48409962.114 9 -56863261.584 8
  24227904.043    24227907.709    86155245.150 7 -90073331.016 8
  24583951.936    24583956.790    -5274873.701 9  -8725966.621 8
 86  6 11  4 18 53.0800000  0  4G12G13G 9G 7
  21260213.430    21260220.401    20021420.890 8 -34825103.522 7
  21757540.035    21757545.486    48418423.810 9 -56856668.040 8
  24232624.356    24232629.013    86180053.030 7 -90054000.216 8
  24582129.148    24582133.050    -5284455.478 9  -8733432.936 7
 86  6 11  4 18 59.0800000  0  4G12G13G 9G 7
  21262001.792    21262007.336    20030812.215 8 -34817785.612 8
  21759151.128    21759156.158    48426887.927 8 -56850072.623 9
  24237345.714    24237351.524    86204862.085 8 -90034668.482 7
  24580309.248    24580313.183    -5294019.664 8  -8740885.533 9
 86  6 11  4 19  5.0800000  0  4G12G13G 9G 7
  21263793.733    21263799.518    20040227.174 9 -34810449.279 8
  21760763.234    21760766.376    48435354.520 8 -56843475.276 9
  24242067.240    24242071.792    86229672.346 8 -90015335.804 7
  24578492.725    24578496.739    -5303563.646 9  -8748322.400 8
 86  6 11  4 19 11.0800000  0  4G12G13G 9G 7
  21265590.621    21265594.391    20049665.830 9 -34803094.490 7
  21762373.893    21762379.098    48443823.536 9 -56836876.045 9
  24246787.500    24246792.686    86254483.856 8 -89996002.170 8
                  24576686.827                    -8755738.622 7
 86  6 11  4 19 17.0800000  0  4G12G13G 9G 7
  21267390.576    21267394.516    20059128.189 7 -34795721.226 8
  21763986.107    21763990.752    48452295.014 9 -56830274.880 8
  24251509.320    24251515.286    86279296.600 8 -89976667.554 7
  24574876.061    24574880.274    -5349415.349 9  -8763128.891 9
 86  6 11  4 19 23.0800000  0  4G12G13G 9G 7
  21269196.395    21269199.935    20068614.157 7 -34788329.560 9
  21765598.686    21765603.739    48460769.051 9 -56823671.740 8
  24256232.402    24256236.818    86304110.539 8 -89957332.014 7
  24573079.334    24573081.563    -5358864.468 9  -8770491.850 8
 86  6 11  4 19 29.0800000  0  4G12G13G 9G 7
  21271005.534    21271010.105    20078123.729 8 -34780919.489 9
  21767211.855    21767215.755    48469245.550 8 -56817066.669 8
  24260953.492    24260958.721    86328925.636 8 -89937995.578 8
  24571286.981    24571290.400    -5368281.560 9  -8777829.832 8
 86  6 11  4 19 35.0800000  0  4G12G13G 9G 7
  21272819.196    21272823.752    20087656.834 7 -34773491.108 9
  21768825.949    21768829.112    48477724.524 8 -56810459.676 8
  24265676.407    24265680.433    86353741.856 7 -89918658.273 8
  24569500.131    24569505.515    -5377671.236 9  -8785146.458 8
 86  6 11  4 19 41.0800000  0  4G12G13G 9G 7
  21274638.808    21274642.592    20097213.539 8 -34766044.327 7
  21770439.068    21770444.029    48486205.940 9 -56803850.779 9
  24270399.583    24270403.497    86378559.223 7 -89899320.062 8
  24567717.775    24567722.259    -5387037.565 8  -8792444.893 8
 86  6 11  4 19 47.0800000  0  4G12G13G 9G 7
  21276461.514    21276467.557    20106793.757 8 -34758579.227 8
  21772054.045    21772059.107    48494689.809 9 -56797239.970 8
  24275121.094    24275126.291    86403377.651 8 -89879981.034 8
  24565938.624    24565944.234    -5396383.220 8  -8799727.209 8
 86  6 11  4 19 53.0800000  0  4G12G13G 9G 7
  21278288.338    21278293.354    20116397.542 8 -34751095.762 8
  21773667.893    21773672.552    48503176.124 8 -56790627.249 8
  24279844.086    24279849.310    86428197.115 7 -89860641.196 8
  24564165.583    24564167.590    -5405710.281 9  -8806995.029 9
 86  6 11  4 19 59.0800000  0  4G12G13G 9G 7
  21280120.947    21280125.990    20126024.835 7 -34743593.969 7
  21775284.260    21775288.575    48511664.877 8 -56784012.643 9
  24284568.659    24284572.911    86453017.528 8 -89841300.591 8
  24562392.909    24562397.377    -5415019.376 9  -8814248.886 9
 86  6 11  4 20  5.0800000  0  4G12G13G 9G 7
  21281956.844    21281961.784    20135675.553 8 -34736073.928 8
  21776899.249    21776904.221    48520155.960 9 -56777396.206 9
  24289292.197    24289296.575    86477838.940 7 -89821959.235 8
  24560624.989    24560630.287    -5424308.084 8  -8821486.826 9
 86  6 11  4 20 11.0800000  0  4G12G13G 9G 7
  21283797.520    21283803.694    20145349.703 9 -34728535.637 7
  21778515.638    21778519.908    48528649.515 9 -56770777.848 8
  24294015.224    24294019.267    86502661.166 9 -89802617.235 7
                  24558866.151                    -8828703.789 8
 86  6 11  4 20 17.0800000  0  4G12G13G 9G 7
  21285643.404    21285649.292    20155047.157 8 -34720979.172 8
  21780132.473    21780136.774    48537145.410 8 -56764157.678 8
  24298737.665    24298743.847    86527484.234 8 -89783274.602 7
  24557107.451    24557114.502    -5469901.657 8  -8835894.675 8
 86  6 11  4 20 23.0800000  0  4G12G13G 9G 7
  21287493.128    21287497.253    20164768.070 9 -34713404.439 7
  21781749.819    21781753.395    48545643.750 9 -56757535.589 9
  24303462.389    24303466.109    86552308.188 7 -89763931.245 8
  24555356.945    24555361.687    -5479094.817 9  -8843058.160 8
 86  6 11  4 20 29.0800000  0  4G12G13G 9G 7
  21289347.112    21289351.497    20174512.422 7 -34705811.445 7
  21783367.154    21783371.463    48554144.385 9 -56750911.704 8
  24308185.533    24308192.266    86577133.156 7 -89744587.116 7
  24553613.683    24553618.205    -5488255.541 9  -8850196.775 7
 86  6 11  4 20 35.0800000  0  4G12G13G 9G 7
  21291205.645    21291211.245    20184280.211 7 -34698200.168 8
  21784985.419    21784989.190    48562647.322 8 -56744286.038 9
  24312910.906    24312915.393    86601958.850 7 -89725242.425 8
  24551875.984    24551879.693    -5497389.369 9  -8857314.038 9
 86  6 11  4 20 41.0800000  0  4G12G13G 9G 7
  21293069.159    21293074.302    20194071.410 8 -34690570.665 8
  21786603.682    21786607.729    48571152.736 9 -56737658.431 8
  24317636.239    24317640.732    86626785.289 6 -89705897.147 7
  24550141.805    24550145.566    -5506499.776 9  -8864413.050 8
 86  6 11  4 20 47.0800000  0  4G12G13G 9G 7
  21294937.797    21294941.508    20203885.923 7 -34682922.992 8
  21788222.496    21788227.633    48579660.420 9 -56731029.072 9
  24322358.751    24322363.873    86651612.528 7 -89686551.254 8
  24548412.689    24548416.882    -5515589.536 9  -8871495.971 7
 86  6 11  4 20 53.0800000  0  4G12G13G 9G 7
  21296809.782    21296814.767    20213723.735 9 -34675257.163 8
  21789843.164    21789846.029    48588170.373 8 -56724397.954 8
  24327084.890    24327089.612    86676440.375 8 -89667204.885 8
  24546685.219    24546690.924    -5524660.699 8  -8878564.407 8
 86  6 11  4 20 59.0800000  0  4G12G13G 9G 7
  21298685.861    21298691.159    20223584.754 8 -34667573.263 8
  21791462.719    21791466.402    48596682.582 8 -56717765.043 8
  24331808.205    24331813.286    86701268.921 7 -89647857.958 8
  24544962.638    24544968.613    -5533713.825 9  -8885618.781 8
 86  6 11  4 21  5.0800000  0  4G12G13G 9G 7
  21300566.688    21300571.601    20233469.004 8 -34659871.257 8
  21793082.176    21793086.418    48605197.124 8 -56711130.340 9
  24336533.216    24336537.658    86726098.034 7 -89628510.608 8
  24543244.820    24543248.875    -5542746.160 9  -8892656.967 8
 86  6 11  4 21 11.0800000  0  4G12G13G 9G 7
  21302452.068    21302456.251    20243376.391 9 -34652151.215 8
  21794703.236    21794706.898    48613713.873 8 -56704493.912 9
  24341257.224    24341262.825    86750927.766 8 -89609162.765 8
                  24541535.507                    -8899673.790 8
 86  6 11  4 21 17.0800000  0  4G12G13G 9G 7
  21304342.482    21304347.499    20253307.070 7 -34644413.020 8
  21796324.019    21796328.181    48622232.958 9 -56697855.657 9
  24345983.405    24345988.449    86775758.142 7 -89589814.429 8
  24539824.418    24539828.732    -5588086.676 9  -8906664.228 8
 86  6 11  4 21 23.0800000  0  4G12G13G 9G 7
  21306235.303    21306240.274    20263260.954 9 -34636656.750 8
  21797945.594    21797949.746    48630754.424 9 -56691215.561 9
  24350707.863    24350713.639    86800589.158 8 -89570465.586 8
  24538123.883    24538127.862    -5597022.456 8  -8913627.169 8
 86  6 11  4 21 29.0800000  0  4G12G13G 9G 7
  21308134.476    21308140.247    20273238.065 8 -34628882.383 8
  21799566.940    21799571.974    48639278.243 8 -56684573.617 7
  24355433.496    24355437.474    86825420.726 7 -89551116.324 7
  24536429.875    24536433.731    -5605926.699 8  -8920565.146 8
 86  6 11  4 21 35.0800000  0  4G12G13G 9G 7
  21310037.684    21310041.683    20283238.423 8 -34621089.896 8
  21801189.642    21801194.803    48647804.399 8 -56677929.857 8
  24360160.088    24360163.162    86850252.918 7 -89531766.551 8
  24534741.098    24534744.478    -5614803.129 8  -8927481.837 8
 86  6 11  4 21 41.0800000  0  4G12G13G 9G 7
  21311944.642    21311950.013    20293262.014 8 -34613279.310 7
  21802813.319    21802816.862    48656332.866 7 -56671284.297 8
  24364885.377    24364889.349    86875085.552 7 -89512416.455 8
  24533056.182    24533059.890    -5623656.293 9  -8934380.398 8
 86  6 11  4 21 47.0800000  0  4G12G13G 9G 7
  21313856.778    21313861.806    20303308.759 7 -34605450.674 8
  21804435.768    21804440.409    48664863.584 8 -56664636.980 8
  24369610.772    24369616.294    86899918.740 7 -89493065.916 7
  24531374.730    24531379.207    -5632488.798 9  -8941262.865 8
 86  6 11  4 21 53.0800000  0  4G12G13G 9G 7
  21315773.037    21315778.178    20313378.698 8 -34597603.985 7
  21806060.050    21806064.133    48673396.641 8 -56657987.848 7
  24374335.918    24374341.392    86924752.409 7 -89473715.001 7
  24529697.375    24529701.032    -5641302.564 9  -8948130.731 8
 86  6 11  4 21 59.0800000  0  4G12G13G 9G 7
  21317693.557    21317698.114    20323471.759 8 -34589739.250 8
  21807683.911    21807688.299    48681932.053 9 -56651336.870 9
  24379061.432    24379065.794    86949586.597 7 -89454363.672 7
  24528024.230    24528027.618    -5650097.989 9  -8954984.290 8
 86  6 11  4 22  5.0800000  0  4G12G13G 9G 7
  21319618.488    21319624.074    20333587.962 7 -34581856.506 8
  21809308.388    21809312.892    48690469.723 8 -56644684.136 8
  24383786.476    24383791.927    86974421.132 7 -89435012.107 6
  24526355.022    24526358.710    -5658872.267 9  -8961821.397 9
 86  6 11  4 22 11.0800000  0  4G12G13G 9G 7
  21321547.767    21321553.153    20343727.358 8 -34573955.676 9
  21810933.626    21810938.749    48699009.787 8 -56638029.541 8
  24388511.626    24388517.119    86999256.213 7 -89415660.096 7
                  24524694.387                    -8968636.560 8
 86  6 11  4 22 17.0800000  0  4G12G13G 9G 7
  21323482.684    21323487.097    20353889.924 8 -34566036.793 8
  21812558.610    21812563.872    48707552.201 8 -56631373.120 8
  24393239.713    24393243.140    87024091.802 7 -89396307.702 7
  24523033.694    24523036.359    -5703950.728 9  -8975424.987 8
 86  6 11  4 22 23.0800000  0  4G12G13G 9G 7
  21325419.635    21325425.376    20364075.689 8 -34558099.838 7
  21814184.890    21814188.819    48716096.884 8 -56624714.919 8
  24397965.046    24397968.838    87048927.828 8 -89376954.955 8
  24521381.797    24521385.424    -5712627.169 9  -8982185.855 8
 86  6 11  4 22 29.0800000  0  4G12G13G 9G 7
  21327363.309    21327368.149    20374284.517 8 -34550144.907 9
  21815811.910    21815815.763    48724643.935 8 -56618054.889 8
  24402691.467    24402696.443    87073764.170 7 -89357601.975 7
  24519737.017    24519740.754    -5721271.207 9  -8988921.841 9
 86  6 11  4 22 35.0800000  0  4G12G13G 9G 7
  21329310.590    21329315.805    20384516.473 9 -34542171.956 8
  21817438.462    21817443.062    48733193.260 8 -56611393.069 9
  24407417.992    24407422.817    87098600.855 7 -89338248.718 8
  24518096.591    24518100.401    -5729888.495 9  -8995636.606 9
 86  6 11  4 22 41.0800000  0  4G12G13G 9G 7
  21331262.104    21331266.133    20394771.374 9 -34534181.120 8
  21819065.613    21819070.345    48741744.901 9 -56604729.449 9
  24412144.626    24412150.076    87123437.816 7 -89318895.269 7
  24516460.150    24516465.164    -5738482.420 8  -9002333.165 9
 86  6 11  4 22 47.0800000  0  4G12G13G 9G 7
  21333216.970    21333221.955    20405049.323 9 -34526172.329 7
  21820693.329    21820698.716    48750298.792 9 -56598064.083 8
  24416869.534    24416875.959    87148275.090 7 -89299541.548 7
  24514830.235    24514833.562    -5747055.601 9  -9009013.546 9
 86  6 11  4 22 53.0800000  0  4G12G13G 9G 7
  21335177.930    21335182.499    20415350.321 8 -34518145.580 9
  21822321.617    21822325.611    48758854.884 8 -56591396.993 8
  24421597.541    24421602.364    87173112.515 7 -89280187.696 8
  24513200.870    24513206.012    -5755609.960 9  -9015679.271 9
 86  6 11  4 22 59.0800000  0  4G12G13G 9G 7
  21337141.866    21337146.951    20425674.291 8 -34510100.933 7
  21823951.156    21823955.335    48767413.230 8 -56584728.147 8
  24426324.849    24426329.556    87197950.218 7 -89260833.652 8
  24511578.081    24511581.093    -5764145.759 9  -9022330.534 8
 86  6 11  4 23  5.0800000  0  4G12G13G 9G 7
  21339112.127    21339115.940    20436021.247 8 -34502038.377 7
  21825579.469    21825583.988    48775973.798 8 -56578057.568 8
  24431049.810    24431055.903    87222788.064 7 -89241479.506 7
  24509956.213    24509960.698    -5772659.904 9  -9028964.932 8
 86  6 11  4 23 11.0800000  0  4G12G13G 9G 7
  21341085.392    21341089.219    20446391.140 9 -34493957.940 9
  21827208.893    21827213.147    48784536.592 8 -56571385.270 9
  24435776.679    24435781.906    87247626.060 7 -89222125.219 8
                  24508346.638                    -9035577.121 8
 86  6 11  4 23 17.0800000  0  4G12G13G 9G 7
  21343062.695    21343066.506    20456783.950 7 -34485859.648 8
  21828839.659    21828844.020    48793101.687 7 -56564711.164 8
  24440503.069    24440506.661    87272464.174 8 -89202770.835 8
  24506736.028    24506736.803    -5817486.168 9  -9042162.411 9
 86  6 11  4 23 23.0800000  0  4G12G13G 9G 7
  21345043.830    21345049.044    20467199.691 9 -34477743.489 7
  21830468.716    21830472.511    48801669.011 8 -56558035.321 8
  24445231.053    24445234.323    87297302.449 6 -89183416.345 9
  24505133.280    24505136.577    -5825901.907 8  -9048720.110 8
 86  6 11  4 23 29.0800000  0  4G12G13G 9G 7
  21347031.033    21347036.203    20477638.225 8 -34469609.561 8
  21832099.930    21832104.107    48810238.565 7 -56551357.743 8
  24449957.609    24449961.974    87322140.789 7 -89164061.803 8
  24503537.290    24503541.001    -5834286.289 8  -9055252.990 8
 86  6 11  4 23 35.0800000  0  4G12G13G 9G 7
  21349021.900    21349026.355    20488099.617 8 -34461457.842 8
  21833730.924    21833735.852    48818810.337 9 -56544678.439 8
  24454684.680    24454687.212    87346979.171 7 -89144707.218 8
  24501947.138    24501952.152    -5842642.932 8  -9061764.660 9
 86  6 11  4 23 41.0800000  0  4G12G13G 9G 7
  21351016.658    21351021.056    20498583.872 8 -34453288.277 8
  21835362.214    21835367.191    48827384.236 8 -56537997.478 7
  24459411.464    24459415.828    87371817.588 7 -89125352.619 8
  24500361.546    24500365.871    -5850976.310 9  -9068258.193 9
 86  6 11  4 23 47.0800000  0  4G12G13G 9G 7
  21353016.480    21353019.593    20509090.989 8 -34445100.923 8
  21836996.131    21836998.210    48835960.324 9 -56531314.800 8
  24464137.616    24464141.139    87396655.873 6 -89105998.122 7
  24498779.500    24498784.005    -5859288.822 9  -9074735.465 9
 86  6 11  4 23 53.0800000  0  4G12G13G 9G 7
  21355019.855    21355024.796    20519620.908 9 -34436895.794 8
  21838625.931    21838631.102    48844538.594 9 -56524630.439 8
  24468863.329    24468866.569    87421494.121 7 -89086643.640 7
  24497201.886    24497205.170    -5867582.467 9  -9081198.042 9
 86  6 11  4 23 59.0800000  0  4G12G13G 9G 7
  21357028.407    21357032.117    20530173.575 8 -34428672.939 8
  21840259.666    21840264.046    48853119.018 9 -56517944.391 7
  24473589.042    24473593.311    87446332.288 6 -89067289.218 8
  24495627.430    24495630.393    -5875857.382 8  -9087646.019 9
 86  6 11  4 24  5.0800000  0  4G12G13G 9G 7
  21359040.306    21359045.492    20540749.058 8 -34420432.307 8
  21841893.204    21841896.725    48861701.685 8 -56511256.583 8
  24478316.591    24478322.100    87471170.470 7 -89047934.808 7
  24494056.439    24494059.151    -5884110.306 8  -9094076.859 8
 86  6 11  4 24 11.0800000  0  4G12G13G 9G 7
  21361058.189    21361062.200    20551347.359 8 -34412173.901 8
  21843525.927    21843530.309    48870286.588 9 -56504567.055 7
  24483042.680    24483047.217    87496008.544 7 -89028580.458 6
                  24492494.516                    -9100485.102 8
 86  6 11  4 24 17.0800000  0  4G12G13G 9G 7
  21363078.102    21363083.730    20561968.437 9 -34403897.737 8
  21845160.084    21845164.908    48878873.601 8 -56497875.861 8
  24487769.398    24487773.449    87520846.481 7 -89009226.234 8
  24490930.877    24490936.744    -5928674.375 9  -9106866.264 8
 86  6 11  4 24 23.0800000  0  4G12G13G 9G 7
  21365103.941    21365108.469    20572612.245 9 -34395603.850 8
  21846794.371    21846799.837    48887462.835 8 -56491182.938 8
  24492495.425    24492499.953    87545684.278 7 -88989872.091 7
  24489380.588    24489385.832    -5936828.286 8  -9113219.950 8
 86  6 11  4 24 29.0800000  0  4G12G13G 9G 7
  21367132.753    21367137.814    20583278.830 8 -34387292.234 8
  21848430.059    21848434.049    48896054.276 9 -56484488.310 8
  24497222.052    24497227.548    87570521.918 6 -88970518.109 8
  24487835.670    24487839.759    -5944950.386 9  -9119548.850 9
 86  6 11  4 24 35.0800000  0  4G12G13G 9G 7
  21369167.351    21369171.477    20593968.072 8 -34378962.957 9
  21850065.706    21850069.485    48904647.893 8 -56477791.981 8
  24501948.119    24501952.514    87595359.357 8 -88951164.260 7
  24486295.289    24486297.996    -5953045.406 8  -9125856.647 8
 86  6 11  4 24 41.0800000  0  4G12G13G 9G 7
  21371206.695    21371210.592    20604679.989 8 -34370616.004 8
  21851700.552    21851704.207    48913243.642 9 -56471093.999 8
  24506674.912    24506678.404    87620196.523 7 -88931810.622 7
  24484759.413    24484763.445    -5961117.061 9  -9132146.247 9
 86  6 11  4 24 47.0800000  0  4G12G13G 9G 7
  21373249.247    21373254.261    20615414.451 9 -34362251.494 8
  21853337.617    21853340.546    48921841.539 7 -56464394.335 8
  24511401.031    24511404.594    87645033.427 7 -88912457.193 8
  24483226.746    24483230.517    -5969167.914 8  -9138419.642 9
 86  6 11  4 24 53.0800000  0  4G12G13G 9G 7
  21375297.007    21375299.873    20626171.447 8 -34353869.427 8
  21854973.755    21854977.080    48930441.535 9 -56457693.034 8
  24516126.791    24516132.558    87669869.967 7 -88893104.045 7
  24481697.883    24481702.692    -5977199.898 9  -9144678.319 9
 86  6 11  4 24 59.0800000  0  4G12G13G 9G 7
  21377347.742    21377350.208    20636950.998 9 -34345469.771 8
  21856610.092    21856613.318    48939043.640 9 -56450990.103 8
  24520854.562    24520858.153    87694706.143 6 -88873751.183 8
  24480173.174    24480177.992    -5985213.094 9  -9150922.368 8
 86  6 11  4 25  5.0800000  0  4G12G13G 9G 7
  21379403.258    21379407.627    20647753.147 9 -34337052.500 8
  21858247.490    21858251.588    48947647.919 8 -56444285.455 8
  24525580.824    24525583.557    87719541.997 8 -88854398.579 9
  24478652.257    24478657.678    -5993203.870 8  -9157148.932 8
 86  6 11  4 25 11.0800000  0  4G12G13G 9G 7
  21381462.894    21381466.935    20658577.970 9 -34328617.597 7
  21859886.007    21859889.496    48956254.300 8 -56437579.179 7
  24530305.046    24530309.740    87744377.442 6 -88835046.296 8
                  24477142.477                    -9163352.587 8
 86  6 11  4 25 17.0800000  0  4G12G13G 9G 7
  21383527.221    21383531.521    20669425.357 8 -34320165.069 8
  21861523.460    21861526.658    48964862.818 8 -56430871.242 8
  24535031.937    24535035.616    87769212.559 7 -88815694.253 7
  24475629.622    24475634.162    -6037505.502 9  -9169528.906 8
 86  6 11  4 25 23.0800000  0  4G12G13G 9G 7
  21385595.187    21385599.943    20680295.235 9 -34311695.050 8
  21863161.544    21863165.763    48973473.465 8 -56424161.659 8
  24539758.344    24539762.440    87794047.233 7 -88796342.581 7
  24474127.869    24474131.785    -6045396.333 9  -9175677.593 9
 86  6 11  4 25 29.0800000  0  4G12G13G 9G 7
  21387667.732    21387672.785    20691187.577 8 -34303207.502 8
  21864800.952    21864804.962    48982086.218 9 -56417450.404 8
  24544484.374    24544489.636    87818881.358 7 -88776991.314 8
  24472631.232    24472637.392    -6053255.578 8  -9181801.677 9
 86  6 11  4 25 35.0800000  0  4G12G13G 9G 7
  21389745.194    21389750.109    20702102.307 8 -34294702.516 8
  21866441.109    21866444.896    48990701.017 9 -56410737.577 8
  24549208.019    24549214.280    87843715.033 7 -88757640.404 8
  24471142.323    24471146.366    -6061087.860 8  -9187904.739 8
 86  6 11  4 25 41.0800000  0  4G12G13G 9G 7
  21391826.213    21391829.506    20713039.420 8 -34286180.091 7
  21868079.602    21868083.296    48999317.872 8 -56404023.129 8
  24553934.347    24553940.025    87868548.108 6 -88738289.970 8
  24469656.307    24469660.356    -6068896.716 9  -9193989.563 9
 86  6 11  4 25 47.0800000  0  4G12G13G 9G 7
  21393912.519    21393916.131    20723998.992 8 -34277640.164 8
  21869720.015    21869723.528    49007936.837 8 -56397307.056 8
  24558659.197    24558665.357    87893380.709 7 -88718939.893 8
  24468174.040    24468178.434    -6076684.731 8  -9200058.137 8
 86  6 11  4 25 53.0800000  0  4G12G13G 9G 7
  21396002.232    21396005.373    20734981.128 8 -34269082.667 7
  21871360.642    21871364.675    49016557.934 8 -56390589.325 7
  24563385.526    24563390.503    87918212.849 8 -88699590.183 7
  24466694.584    24466700.040    -6084453.596 9  -9206111.791 8
 86  6 11  4 25 59.0800000  0  4G12G13G 9G 7
  21398095.868    21398099.479    20745985.819 8 -34260507.572 8
  21873001.588    21873005.060    49025181.224 9 -56383869.862 7
  24568111.222    24568116.500    87943044.443 7 -88680240.899 8
  24465220.359    24465224.828    -6092203.260 9  -9212150.485 9
 86  6 11  4 26  5.0800000  0  4G12G13G 9G 7
  21400194.083    21400199.210    20757012.966 9 -34251914.996 9
  21874643.203    21874646.842    49033806.581 8 -56377148.813 7
  24572836.202    24572840.330    87967875.448 7 -88660892.060 8
                  24463755.789                    -9218171.501 8
 86  6 11  4 26 11.0800000  0  4G12G13G 9G 7
  21402296.560    21402300.873    20768062.564 9 -34243304.927 9
  21876284.779    21876287.862    49042434.077 8 -56370426.079 8
  24577561.248    24577566.771    87992705.935 7 -88641543.633 8
  24462274.861    24462289.528    -6136303.096 9  -9224169.229 9
 86  6 11  4 26 17.0800000  0  4G12G13G 9G 7
  21404404.102    21404407.872    20779134.551 8 -34234677.397 8
  21877927.363    21877929.545    49051063.720 8 -56363701.682 8
  24582286.407    24582290.949    88017535.763 8 -88622195.707 8
  24460827.582    24460831.875    -6143964.866 9  -9230139.256 8
 86  6 11  4 26 23.0800000  0  4G12G13G 9G 7
  21406515.480    21406519.821    20790228.981 9 -34226032.379 8
  21879569.335    21879573.817    49059695.431 8 -56356975.669 8
  24587010.953    24587015.073    88042364.972 7 -88602848.278 8
  24459376.121    24459380.447    -6151590.969 8  -9236081.667 8
 86  6 11  4 26 29.0800000  0  4G12G13G 9G 7
  21408630.952    21408634.561    20801345.832 8 -34217369.903 7
  21881212.946    21881216.189    49068329.270 8 -56350248.000 8
  24591737.014    24591739.876    88067193.656 8 -88583501.264 9
  24457930.890    24457935.329    -6159185.311 8  -9241999.326 9
 86  6 11  4 26 35.0800000  0  4G12G13G 9G 7
  21410751.030    21410754.842    20812485.008 8 -34208690.030 8
  21882856.025    21882859.436    49076965.249 8 -56343518.672 7
  24596461.928    24596465.844    88092021.584 8 -88564154.840 8
  24456490.858    24456496.060    -6166752.567 8  -9247895.880 8
 86  6 11  4 26 41.0800000  0  4G12G13G 9G 7
  21412874.773    21412879.127    20823646.488 8 -34199992.784 7
  21884500.087    21884502.134    49085603.294 8 -56336787.711 8
  24601185.311    24601189.293    88116848.807 7 -88544808.943 7
  24455056.403    24455059.989    -6174296.668 9  -9253774.411 8
 86  6 11  4 26 47.0800000  0  4G12G13G 9G 7
  21415003.006    21415006.931    20834830.305 8 -34191278.116 8
  21886144.451    21886147.764    49094243.505 7 -56330055.080 8
  24605908.853    24605914.455    88141675.381 7 -88525463.585 7
  24453624.329    24453628.909    -6181819.750 9  -9259636.546 7
 86  6 11  4 26 53.0800000  0  4G12G13G 9G 7
  21417135.048    21417138.631    20846036.493 9 -34182546.017 8
  21887788.552    21887791.578    49102885.914 8 -56323320.728 8
  24610633.038    24610638.413    88166501.202 7 -88506118.784 9
  24452196.055    24452201.129    -6189323.516 9  -9265483.627 8
 86  6 11  4 26 59.0800000  0  4G12G13G 9G 7
  21419271.580    21419275.550    20857264.913 9 -34173796.603 8
  21889433.291    21889436.620    49111530.491 8 -56316584.700 9
  24615357.189    24615360.982    88191326.272 7 -88486774.587 8
  24450771.610    24450776.938    -6196808.061 9  -9271315.724 7
 86  6 11  4 27  5.0800000  0  4G12G13G 9G 7
  21421411.836    21421417.607    20868515.537 8 -34165029.869 8
  21891079.388    21891082.154    49120177.014 9 -56309847.142 8
  24620080.826    24620085.521    88216150.416 8 -88467431.111 8
  24449351.601    24449356.572    -6204269.581 9  -9277129.896 9
 86  6 11  4 27 11.0800000  0  4G12G13G 9G 7
  21423557.698    21423561.798    20879788.310 8 -34156245.904 8
  21892725.027    21892728.413    49128825.478 9 -56303108.078 8
  24624803.812    24624810.879    88240973.674 8 -88448088.320 8
                  24447942.434                    -9282920.449 8
 86  6 11  4 27 17.0800000  0  4G12G13G 9G 7
  21425706.767    21425711.853    20891083.130 9 -34147444.756 8
  21894370.697    21894372.919    49137475.838 8 -56296367.512 8
  24629528.647    24629533.036    88265795.893 7 -88428746.338 7
  24446531.290    24446536.384    -6248047.575 9  -9288683.377 8
 86  6 11  4 27 23.0800000  0  4G12G13G 9G 7
  21427860.844    21427865.472    20902399.928 8 -34138626.472 7
  21896018.267    21896020.943    49146128.147 8 -56289625.461 7
  24634250.946    24634255.920    88290617.068 7 -88409405.181 8
  24445131.381    24445133.322    -6255407.966 9  -9294418.745 8
 86  6 11  4 27 29.0800000  0  4G12G13G 9G 7
  21430017.840    21430023.182    20913738.762 9 -34129791.010 8
  21897665.280    21897667.759    49154782.319 9 -56282881.947 8
  24638974.828    24638979.090    88315437.202 7 -88390064.814 8
  24443736.053    24443740.524    -6262736.817 8  -9300129.528 8
 86  6 11  4 27 35.0800000  0  4G12G13G 9G 7
  21432180.131    21432184.672    20925099.720 9 -34120938.333 8
  21899312.161    21899315.468    49163438.454 9 -56276136.906 7
  24643698.878    24643702.770    88340256.310 6 -88370725.262 8
  24442346.147    24442350.305    -6270038.787 9  -9305819.375 7
 86  6 11  4 27 41.0800000  0  4G12G13G 9G 7
  21434347.513    21434351.813    20936482.774 9 -34112068.415 8
  21900959.660    21900961.670    49172096.541 9 -56269390.330 8
  24648419.595    24648425.246    88365074.335 8 -88351386.552 8
  24440960.477    24440964.043    -6277317.457 9  -9311491.061 8
 86  6 11  4 27 47.0800000  0  4G12G13G 9G 7
  21436517.905    21436520.341    20947887.870 8 -34103181.330 8
  21902607.179    21902609.917    49180756.688 9 -56262642.161 7
  24653142.865    24653147.924    88389891.356 8 -88332048.614 8
  24439580.009    24439582.828    -6284575.330 9  -9317146.540 8
 86  6 11  4 27 53.0800000  0  4G12G13G 9G 7
  21438691.353    21438695.197    20959315.093 9 -34094276.992 8
  21904256.336    21904257.590    49189418.911 9 -56255892.373 8
  24657865.509    24657869.786    88414707.403 8 -88312711.426 8
  24438202.756    24438206.103    -6291813.838 8  -9322786.930 9
 86  6 11  4 27 59.0800000  0  4G12G13G 9G 7
  21440869.901    21440873.754    20970764.449 9 -34085355.423 8
  21905905.056    21905906.344    49198083.286 9 -56249140.899 7
  24662588.024    24662592.514    88439522.471 8 -88293375.011 8
  24436828.514    24436833.297    -6299032.690 8  -9328412.003 9
 86  6 11  4 28  5.0800000  0  4G12G13G 9G 7
  21443052.370    21443057.410    20982235.882 8 -34076416.647 8
  21907553.872    21907556.152    49206749.786 9 -56242387.781 7
  24667309.224    24667314.368    88464336.584 7 -88274039.354 8
                  24435463.055                    -9334018.567 8
 86  6 11  4 28 11.0800000  0  4G12G13G 9G 7
  21445239.813    21445244.295    20993729.382 8 -34067460.670 7
  21909203.079    21909205.995    49215418.357 9 -56235633.043 8
  24672032.565    24672035.672    88489149.545 7 -88254704.578 8
  24434129.450    24434100.074    -6342610.364 9  -9339601.374 8
 86  6 11  4 28 17.0800000  0  4G12G13G 9G 7
  21447431.064    21447435.950    21005244.878 8 -34058487.544 8
  21910853.347    21910856.906    49224089.002 9 -56228876.697 8
  24676752.323    24676756.953    88513961.411 8 -88235370.686 8
  24432740.194    24432743.679    -6349739.088 9  -9345156.176 8
 86  6 11  4 28 23.0800000  0  4G12G13G 9G 7
  21449626.610    21449630.536    21016782.315 9 -34049497.336 9
  21912503.778    21912506.691    49232761.622 8 -56222118.800 8
  24681475.080    24681479.045    88538772.142 7 -88216037.645 8
  24431390.643    24431393.693    -6356832.426 9  -9350683.446 9
 86  6 11  4 28 29.0800000  0  4G12G13G 9G 7
  21451827.079    21451830.974    21028341.696 8 -34040490.039 7
  21914154.517    21914157.784    49241436.171 9 -56215359.404 7
  24686194.526    24686199.560    88563581.596 7 -88196705.610 7
  24430046.253    24430050.473    -6363894.277 8  -9356186.179 8
 86  6 11  4 28 35.0800000  0  4G12G13G 9G 7
  21454029.289    21454034.947    21039923.004 8 -34031465.632 8
  21915805.831    21915808.656    49250112.760 9 -56208598.421 8
  24690916.465    24690921.723    88588389.919 7 -88177374.458 8
  24428707.632    24428710.487    -6370929.280 9  -9361667.985 8
 86  6 11  4 28 41.0800000  0  4G12G13G 9G 7
  21456239.173    21456242.913    21051526.282 8 -34022424.126 9
  21917456.728    21917459.808    49258791.427 8 -56201835.809 8
  24695636.308    24695642.970    88613196.998 7 -88158044.278 8
  24427372.962    24427377.659    -6377940.857 9  -9367131.550 8
 86  6 11  4 28 47.0800000  0  4G12G13G 9G 7
  21458449.427    21458454.185    21063151.597 8 -34013365.443 8
  21919109.048    21919112.194    49267472.111 9 -56195071.634 7
  24700356.310    24700361.905    88638002.892 7 -88138715.004 7
  24426042.310    24426045.524    -6384931.423 9  -9372578.740 9
 86  6 11  4 28 53.0800000  0  4G12G13G 9G 7
  21460667.124    21460671.006    21074798.858 8 -34004289.659 8
  21920761.661    21920763.157    49276154.836 9 -56188305.871 8
  24705078.208    24705080.892    88662807.577 7 -88119386.697 8
  24424716.490    24424720.248    -6391902.585 9  -9378010.806 9
 86  6 11  4 28 59.0800000  0  4G12G13G 9G 7
  21462886.422    21462891.795    21086467.980 8 -33995196.838 7
  21922412.957    21922415.346    49284839.533 8 -56181538.580 7
  24709796.450    24709801.522    88687610.980 7 -88100059.373 8
  24423394.727    24423396.648    -6398853.985 9  -9383427.468 9
 86  6 11  4 29  5.0800000  0  4G12G13G 9G 7
  21465110.672    21465117.672    21098158.969 7 -33986086.979 8
  21924067.485    21924069.999    49293526.259 9 -56174769.682 8
  24714515.913    24714520.973    88712413.106 7 -88080733.060 8
                  24422080.168                    -9388825.400 7
 86  6 11  4 29 11.0800000  0  4G12G13G 9G 7
  21467340.815    21467345.186    21109871.693 7 -33976960.198 8
  21925720.435    21925722.104    49302214.927 9 -56167999.294 8
  24719236.245    24719240.701    88737213.739 8 -88061407.896 8
  24420766.285    24420766.256    -6442165.609 9  -9394199.226 8
 86  6 11  4 29 17.0800000  0  4G12G13G 9G 7
  21469574.938    21469578.520    21121606.120 8 -33967816.468 9
  21927374.086    21927377.409    49310905.440 9 -56161227.452 8
  24723955.580    24723960.326    88762012.933 7 -88042083.849 7
  24419457.322    24419461.364    -6449026.157 9  -9399544.995 9
 86  6 11  4 29 23.0800000  0  4G12G13G 9G 7
  21471810.892    21471815.950    21133362.302 9 -33958655.815 8
  21929027.852    21929030.678    49319597.866 9 -56154454.134 8
  24728675.363    24728679.052    88786810.622 7 -88022760.982 8
  24418158.664    24418161.772    -6455851.217 8  -9404863.213 8
 86  6 11  4 29 29.0800000  0  4G12G13G 9G 7
  21474052.114    21474057.426    21145140.181 9 -33949478.238 8
  21930682.523    21930686.067    49328292.189 8 -56147679.343 7
  24733393.273    24733397.066    88811606.873 8 -88003439.241 8
  24416866.366    24416869.980    -6462644.845 9  -9410156.949 9
 86  6 11  4 29 35.0800000  0  4G12G13G 9G 7
  21476297.166    21476303.039    21156939.811 8 -33940283.727 8
  21932337.082    21932339.905    49336988.444 9 -56140903.028 8
  24738110.642    24738116.702    88836401.591 7 -87984118.687 8
  24415578.790    24415581.600    -6469411.689 9  -9415429.807 7
 86  6 11  4 29 41.0800000  0  4G12G13G 9G 7
  21478547.059    21478551.957    21168761.144 8 -33931072.301 8
  21933992.755    21933995.135    49345686.613 9 -56134125.230 9
  24742828.562    24742832.983    88861194.870 8 -87964799.247 8
  24414295.141    24414299.483    -6476155.161 8  -9420684.455 8
 86  6 11  4 29 47.0800000  0  4G12G13G 9G 7
  21480800.698    21480805.598    21180604.128 8 -33921844.005 7
  21935648.414    21935651.330    49354386.749 8 -56127345.909 8
  24747546.446    24747550.988    88885986.619 7 -87945481.024 7
  24413015.855    24413019.154    -6482877.684 9  -9425922.785 8
 86  6 11  4 29 53.0800000  0  4G12G13G 9G 7
  21483058.661    21483063.030    21192468.886 7 -33912598.735 8
  21937302.694    21937306.860    49363088.882 9 -56120565.020 7
  24752265.159    24752268.135    88910776.853 7 -87926163.964 9
  24411740.989    24411744.068    -6489580.839 8  -9431146.013 8
 86  6 11  4 29 59.0800000  0  4G12G13G 9G 7
  21485319.882    21485324.711    21204355.276 8 -33903336.622 8
  21938960.044    21938964.218    49371792.799 9 -56113782.743 8
  24756981.173    24756986.284    88935565.468 7 -87906848.163 8
  24410468.234    24410472.241    -6496264.125 9  -9436353.758 8
 86  6 11  4 30  5.0800000  0  4G12G13G 9G 7
  21487586.489    21487590.472    21216263.213 8 -33894057.705 9
  21940617.016    21940619.776    49380498.574 8 -56106999.013 7
  24761698.042    24761703.581    88960352.458 7 -87887533.635 8
                  24409205.323                    -9441542.601 8
 86  6 11  4 30 11.0800000  0  4G12G13G 9G 7
  21489855.725    21489861.084    21228192.675 9 -33884762.009 8
  21942274.118    21942276.229    49389206.194 8 -56100213.851 7
  24766414.496    24766419.369    88985137.703 7 -87868220.460 8
  24407929.351    24407944.018    -6539310.059 9  -9446707.024 8
 86  6 11  4 30 17.0800000  0  4G12G13G 9G 7
  21492130.343    21492135.629    21240143.643 8 -33875449.574 8
  21943931.526    21943934.750    49397915.745 9 -56093427.181 8
  24771130.991    24771136.431    89009921.364 7 -87848908.529 8
  24406685.116    24406688.930    -6545901.575 9  -9451843.054 8
 86  6 11  4 30 23.0800000  0  4G12G13G 9G 7
  21494408.910    21494414.438    21252116.130 8 -33866120.364 8
  21945589.161    21945592.486    49406627.247 9 -56086638.996 8
  24775845.655    24775852.181    89034703.267 7 -87829597.968 8
  24405437.040    24405442.353    -6552457.014 9  -9456951.575 8
 86  6 11  4 30 29.0800000  0  4G12G13G 9G 7
  21496691.741    21496695.596    21264110.207 8 -33856774.331 8
  21947247.939    21947250.318    49415340.629 8 -56079849.341 8
  24780562.517    24780566.736    89059483.422 7 -87810288.764 8
  24404196.636    24404200.134    -6558981.618 9  -9462035.674 9
 86  6 11  4 30 35.0800000  0  4G12G13G 9G 7
  21498977.834    21498982.934    21276125.855 8 -33847411.492 8
  21948905.091    21948909.328    49424055.933 8 -56073058.194 8
  24785277.610    24785282.361    89084261.935 6 -87790980.856 8
  24402959.432    24402963.675    -6565479.444 9  -9467098.915 9
 86  6 11  4 30 41.0800000  0  4G12G13G 9G 7
  21501268.277    21501273.264    21288163.028 8 -33838031.875 7
  21950564.631    21950567.763    49432773.179 9 -56066265.537 8
  24789990.486    24789996.947    89109038.690 7 -87771674.297 7
  24401725.808    24401732.120    -6571953.885 9  -9472143.927 9
 86  6 11  4 30 47.0800000  0  4G12G13G 9G 7
  21503562.813    21503568.602    21300221.752 8 -33828635.459 8
  21952224.501    21952227.039    49441492.367 9 -56059471.348 8
  24794706.438    24794711.261    89133813.693 7 -87752369.105 7
  24400499.116    24400503.872    -6578407.369 8  -9477172.604 8
 86  6 11  4 30 53.0800000  0  4G12G13G 9G 7
  21505861.356    21505867.000    21312302.090 8 -33819222.204 7
  21953883.223    21953886.135    49450213.563 8 -56052675.610 8
  24799419.993    24799426.223    89158587.069 8 -87733065.194 7
  24399274.026    24399279.754    -6584841.263 9  -9482186.025 9
 86  6 11  4 30 59.0800000  0  4G12G13G 9G 7
  21508163.992    21508170.379    21324403.999 8 -33809792.159 8
  21955543.154    21955546.438    49458936.835 8 -56045878.262 8
  24804135.087    24804139.509    89183358.720 7 -87713762.604 7
  24398054.954    24398058.259    -6591254.992 8  -9487183.735 8
 86  6 11  4 31  5.0800000  0  4G12G13G 9G 7
  21510471.721    21510476.863    21336527.437 8 -33800345.330 8
  21957203.821    21957207.278    49467661.982 8 -56039079.439 7
  24808848.256    24808852.790    89208128.631 8 -87694461.380 7
                  24396841.653                    -9492162.116 8
 86  6 11  4 31 11.0800000  0  4G12G13G 9G 7
  21512782.598    21512787.054    21348672.323 8 -33790881.783 8
  21958863.499    21958867.058    49476389.034 8 -56032279.132 8
  24813562.168    24813566.640    89232896.630 8 -87675161.650 7
  24395596.670    24395633.369    -6634033.063 9  -9497115.747 8
 86  6 11  4 31 17.0800000  0  4G12G13G 9G 7
  21515098.169    21515104.098    21360838.643 8 -33781401.528 8
  21960525.598    21960530.452    49485118.058 8 -56025477.292 8
  24818274.680    24818277.627    89257662.842 8 -87655863.274 7
  24394425.962    24394429.515    -6640353.558 9  -9502040.775 8
 86  6 11  4 31 23.0800000  0  4G12G13G 9G 7
  21517418.089    21517420.814    21373026.312 7 -33771904.647 8
  21962186.053    21962190.261    49493848.998 9 -56018673.973 8
  24822987.590    24822992.456    89282427.135 8 -87636566.459 7
  24393229.828    24393234.744    -6646638.669 8  -9506938.251 9
 86  6 11  4 31 29.0800000  0  4G12G13G 9G 7
  21519740.756    21519745.770    21385235.282 8 -33762391.151 7
  21963848.081    21963852.323    49502581.757 9 -56011869.208 8
  24827699.472    24827702.863    89307189.494 7 -87617271.118 8
  24392040.061    24392043.521    -6652892.620 9  -9511811.459 9
 86  6 11  4 31 35.0800000  0  4G12G13G 9G 7
  21522066.686    21522072.101    21397465.483 7 -33752861.131 8
  21965509.878    21965514.854    49511316.285 9 -56005063.079 7
  24832411.223    24832414.986    89331949.766 7 -87597977.403 7
  24390855.488    24390860.323    -6659119.932 9  -9516663.902 8
 86  6 11  4 31 41.0800000  0  4G12G13G 9G 7
  21524398.999    21524405.585    21409716.920 8 -33743314.555 7
  21967172.606    21967176.469    49520052.614 8 -55998255.548 7
  24837122.731    24837126.351    89356707.992 8 -87578685.275 7
  24389673.984    24389678.478    -6665324.099 8  -9521498.307 8
 86  6 11  4 31 47.0800000  0  4G12G13G 9G 7
  21526735.232    21526740.144    21421989.464 8 -33733751.533 8
  21968834.737    21968841.640    49528790.746 9 -55991446.614 8
  24841834.035    24841837.418    89381464.144 7 -87559394.789 8
  24388498.310    24388501.630    -6671507.296 8  -9526316.368 8
 86  6 11  4 31 53.0800000  0  4G12G13G 9G 7
  21529074.214    21529078.282    21434283.258 8 -33724171.969 7
  21970498.315    21970503.090    49537530.724 8 -55984636.235 9
  24846545.227    24846548.290    89406218.218 7 -87540105.890 7
  24387324.991    24387328.627    -6677671.049 8  -9531119.294 9
 86  6 11  4 31 59.0800000  0  4G12G13G 9G 7
  21531417.487    21531423.615    21446598.335 8 -33714575.796 8
  21972161.659    21972165.798    49546272.540 9 -55977824.425 8
  24851253.727    24851258.269    89430970.291 7 -87520818.574 8
  24386156.185    24386160.695    -6683814.571 9  -9535906.448 8
 86  6 11  4 32  5.0800000  0  4G12G13G 9G 7
  21533765.766    21533771.079    21458934.709 8 -33704963.038 8
  21973826.732    21973829.247    49555016.303 9 -55971011.103 9
  24855964.561    24855968.798    89455720.372 7 -87501532.826 8
                  24384996.821                    -9540673.927 8
 86  6 11  4 32 11.0800000  0  4G12G13G 9G 7
  21536116.850    21536121.979    21471292.377 8 -33695333.695 8
  21975489.290    21975493.905    49563762.050 9 -55964196.230 9
  24860672.944    24860677.231    89480468.336 7 -87482248.694 7
  24383765.174    24383838.495    -6726323.232 9  -9545416.255 8
 86  6 11  4 32 17.0800000  0  4G12G13G 9G 7
  21538471.974    21538477.361    21483671.291 8 -33685687.787 8
  21977154.874    21977160.104    49572509.759 8 -55957379.828 7
  24865380.843    24865385.341    89505214.250 7 -87462966.172 7
  24382682.846    24382686.264    -6732372.489 9  -9550129.861 9
 86  6 11  4 32 23.0800000  0  4G12G13G 9G 7
  21540832.677    21540836.545    21496071.435 8 -33676025.336 8
  21978820.825    21978824.684    49581259.287 9 -55950562.005 9
  24870090.384    24870094.953    89529957.998 7 -87443685.326 7
  24381537.814    24381542.409    -6738386.871 9  -9554816.008 9
 86  6 11  4 32 29.0800000  0  4G12G13G 9G 7
  21543195.637    21543198.834    21508492.723 7 -33666346.415 8
  21980485.552    21980489.463    49590010.691 9 -55943742.739 8
  24874798.686    24874803.531    89554699.587 7 -87424406.186 8
  24380399.001    24380402.886    -6744369.607 9  -9559477.868 8
 86  6 11  4 32 35.0800000  0  4G12G13G 9G 7
  21545562.751    21545568.737    21520935.206 8 -33656650.973 7
  21982150.785    21982155.833    49598763.898 8 -55936922.055 9
  24879506.768    24879510.538    89579438.997 8 -87405128.741 7
  24379266.266    24379269.354    -6750325.737 9  -9564119.006 8
 86  6 11  4 32 41.0800000  0  4G12G13G 9G 7
  21547934.270    21547939.655    21533398.822 8 -33646939.048 8
  21983816.629    21983822.399    49607518.985 9 -55930099.905 7
  24884214.293    24884218.785    89604176.266 8 -87385852.962 8
  24378137.751    24378140.306    -6756258.584 9  -9568741.987 8
 86  6 11  4 32 47.0800000  0  4G12G13G 9G 7
  21550310.225    21550315.680    21545883.593 8 -33637210.679 7
  21985483.925    21985488.340    49616275.879 9 -55923276.340 8
  24888921.465    24888925.630    89628911.319 8 -87366578.896 7
  24377012.565    24377015.623    -6762170.331 9  -9573348.548 8
 86  6 11  4 32 53.0800000  0  4G12G13G 9G 7
  21552689.557    21552695.457    21558389.343 8 -33627465.927 9
  21987150.724    21987154.406    49625034.684 9 -55916451.302 8
  24893627.788    24893632.035    89653643.993 8 -87347306.700 8
  24375891.097    24375894.544    -6768062.554 9  -9577939.889 8
 86  6 11  4 32 59.0800000  0  4G12G13G 9G 7
  21555073.839    21555079.670    21570916.155 8 -33617704.785 8
  21988817.263    21988821.934    49633795.344 8 -55909624.809 8
  24898333.593    24898337.651    89678374.423 9 -87328036.251 7
  24374773.473    24374778.231    -6773934.207 9  -9582515.181 8
 86  6 11  4 33  5.0800000  0  4G12G13G 9G 7
  21557461.871    21557467.286    21583463.925 8 -33607927.303 7
  21990484.211    21990488.817    49642557.842 9 -55902796.873 8
  24903040.726    24903044.523    89703102.449 8 -87308767.660 8
                  24373665.383                    -9587070.674 8
 86  6 11  4 33 11.0800000  0  4G12G13G 9G 7
  21559852.736    21559858.265    21596032.727 8 -33598133.421 8
  21992152.041    21992157.475    49651322.293 8 -55895967.437 8
  24907742.339    24907749.696    89727828.164 7 -87289500.875 8
  24372507.372    24372558.642    -6816175.725 9  -9591600.776 8
 86  6 11  4 33 17.0800000  0  4G12G13G 9G 7
  21562249.756    21562253.838    21608622.447 7 -33588323.251 7
  21993821.572    21993825.601    49660088.538 9 -55889136.589 8
  24912449.077    24912453.404    89752551.428 8 -87270236.012 8
  24371456.655    24371459.337    -6821952.740 9  -9596102.075 7
 86  6 11  4 33 23.0800000  0  4G12G13G 9G 7
  21564649.035    21564654.993    21621233.132 8 -33578496.750 8
  21995488.290    21995494.568    49668856.585 9 -55882304.336 9
  24917152.529    24917158.168    89777272.388 7 -87250972.926 8
  24370363.999    24370367.260    -6827694.122 9  -9600575.868 9
 86  6 11  4 33 29.0800000  0  4G12G13G 9G 7
  21567050.919    21567057.821    21633864.695 7 -33568653.972 8
  21997159.172    21997163.532    49677626.410 9 -55875470.713 8
  24921857.182    24921861.084    89801990.868 8 -87231711.791 7
  24369275.823    24369279.853    -6833404.363 9  -9605025.399 9
 86  6 11  4 33 35.0800000  0  4G12G13G 9G 7
  21569459.527    21569465.885    21646517.139 8 -33558794.926 8
  21998827.594    21998831.610    49686398.026 8 -55868635.687 8
  24926559.728    24926565.178    89826706.841 9 -87212452.584 7
  24368194.605    24368198.417    -6839088.195 9  -9609454.349 9
 86  6 11  4 33 41.0800000  0  4G12G13G 9G 7
  21571872.772    21571877.099    21659190.471 8 -33548919.601 8
  22000497.108    22000501.719    49695171.406 8 -55861799.280 8
  24931262.645    24931266.822    89851420.318 8 -87193195.355 7
  24367117.956    24367122.190    -6844748.759 9  -9613865.161 8
 86  6 11  4 33 47.0800000  0  4G12G13G 9G 7
  21574288.278    21574293.263    21671884.728 8 -33539027.978 8
  22002165.642    22002170.990    49703946.559 9 -55854961.498 9
  24935966.498    24935970.718    89876131.332 8 -87173939.999 7
  24366045.828    24366048.039    -6850388.286 9  -9618259.593 8
 86  6 11  4 33 53.0800000  0  4G12G13G 9G 7
  21576707.333    21576712.289    21684599.873 8 -33529120.075 8
  22003836.441    22003841.791    49712723.493 8 -55848122.323 9
  24940667.940    24940671.275    89900839.900 9 -87154686.601 7
  24364975.243    24364979.177    -6856008.056 9  -9622638.623 8
 86  6 11  4 33 59.0800000  0  4G12G13G 9G 7
  21579131.881    21579135.408    21697335.870 8 -33519195.915 8
  22005506.888    22005512.701    49721502.253 8 -55841281.727 8
  24945369.548    24945374.268    89925545.936 8 -87135435.140 7
  24363910.335    24363912.902    -6861607.149 9  -9627001.546 8
 86  6 11  4 34  5.0800000  0  4G12G13G 9G 7
  21581558.950    21581563.262    21710092.752 8 -33509255.497 8
  22007178.070    22007183.328    49730282.870 9 -55834439.673 9
  24950070.117    24950074.194    89950249.512 9 -87116185.603 8
                  24362853.301                    -9631344.319 8
 86  6 11  4 34 11.0800000  0  4G12G13G 9G 7
  21583990.942    21583994.923    21722870.468 8 -33499298.847 8
  22008849.517    22008853.534    49739065.347 8 -55827596.189 8
  24954770.867    24954775.759    89974950.459 8 -87096938.120 7
  24361798.176    24361798.276    -6903575.248 9  -9635661.522 8
 86  6 11  4 34 17.0800000  0  4G12G13G 9G 7
  21586425.563    21586430.848    21735668.855 7 -33489326.069 8
  22010521.422    22010525.076    49747849.563 9 -55820751.338 8
  24959470.977    24959475.521    89999648.794 8 -87077692.654 8
  24360747.976    24360750.953    -6909078.659 9  -9639949.839 9
 86  6 11  4 34 23.0800000  0  4G12G13G 9G 7
  21588864.420    21588869.576    21748487.983 8 -33479337.143 8
  22012193.463    22012197.652    49756635.594 9 -55813905.077 9
  24964170.594    24964173.671    90024344.497 8 -87058449.262 8
  24359707.294    24359711.423    -6914546.341 8  -9644210.751 8
 86  6 11  4 34 29.0800000  0  4G12G13G 9G 7
  21591308.776    21591314.574    21761327.839 8 -33469332.061 8
  22013864.801    22013869.902    49765423.416 8 -55807057.421 8
  24968869.291    24968874.176    90049037.484 8 -87039207.972 8
  24358672.006    24358676.596    -6919983.424 8  -9648447.431 8
 86  6 11  4 34 35.0800000  0  4G12G13G 9G 7
  21593755.703    21593761.074    21774188.436 8 -33459310.807 8
  22015536.817    22015542.943    49774213.046 8 -55800208.360 9
  24973567.269    24973571.521    90073727.909 8 -87019968.691 8
  24357642.710    24357646.433    -6925394.012 9  -9652663.475 9
 86  6 11  4 34 41.0800000  0  4G12G13G 9G 7
  21596207.154    21596213.185    21787069.771 8 -33449273.421 8
  22017211.019    22017216.089    49783004.440 9 -55793357.914 8
  24978265.558    24978269.463    90098415.524 8 -87000731.587 8
  24356617.530    24356620.871    -6930781.164 8  -9656861.234 9
 86  6 11  4 34 47.0800000  0  3G12G13G 7
  21598662.814    21598668.111    21799971.794 8 -33439219.890 7
  22018884.667    22018888.572    49791797.638 8 -55786506.058 8
  24355596.580    24355599.701    -6936147.322 8  -9661042.653 7
 86  6 11  4 34 53.0800000  0  3G12G13G 7
  21601120.967    21601126.090    21812894.493 8 -33429150.259 8
  22020556.954    22020561.490    49800592.629 8 -55779652.824 8
  24354579.054    24354582.758    -6941493.754 9  -9665208.699 8
 86  6 11  4 34 59.0800000  0  3G12G13G 7
  21603584.619    21603589.711    21825837.666 8 -33419064.668 8
  22022232.044    22022236.353    49809389.290 8 -55772798.278 8
  24353565.861    24353568.647    -6946819.337 9  -9669358.498 8
 86  6 11  4 35  5.0800000  0  3G12G13G 7
  21606050.474    21606056.736    21838801.326 9 -33408963.109 9
  22023907.365    22023910.499    49818187.657 8 -55765942.394 9
                  24352560.669                    -9673487.984 8
 86  6 11  4 35 11.0800000  0  3G12G13G 7
  21608520.981    21608527.004    21851785.440 8 -33398845.622 8
  22025580.711    22025584.517    49826987.766 9 -55759085.169 8
  24351554.703    24351559.720    -6988515.126 8  -9677591.569 8
 86  6 11  4 35 17.0800000  0  3G12G13G 7
  21610996.482    21611003.328    21864790.074 8 -33388712.149 8
  22027255.799    22027260.495    49835789.611 8 -55752226.584 7
  24350560.523    24350563.015    -6993744.352 9  -9681666.284 7
 86  6 11  4 35 23.0800000  0  3G12G13G 7
  21613475.882    21613480.530    21877815.199 9 -33378562.694 8
  22028930.464    22028934.371    49844593.152 9 -55745366.669 8
  24349571.684    24349574.013    -6998938.437 9  -9685713.618 7
 86  6 11  4 35 29.0800000  0  3G12G13G 7
  21615958.466    21615962.847    21890860.812 8 -33368397.296 9
  22030606.183    22030610.463    49853398.443 9 -55738505.402 8
  24348588.839    24348591.871    -7004101.701 9  -9689736.931 8
 86  6 11  4 35 35.0800000  0  3G12G13G 7
  21618444.825    21618449.594    21903926.831 8 -33358215.962 8
  22032281.191    22032286.642    49862205.400 8 -55731642.845 8
  24347610.804    24347615.403    -7009238.545 8  -9693739.665 7
 86  6 11  4 35 41.0800000  0  3G12G13G 7
  21620935.014    21620940.453    21917013.311 8 -33348018.718 7
  22033958.656    22033960.933    49871014.057 8 -55724778.949 8
  24346637.599    24346641.785    -7014352.170 9  -9697724.287 7
 86  6 11  4 35 47.0800000  0  3G12G13G 7
  21623429.283    21623434.225    21930120.259 8 -33337805.515 7
  22035634.977    22035639.457    49879824.402 9 -55717913.745 7
  24345668.866    24345672.571    -7019444.753 9  -9701692.541 8
 86  6 11  4 35 53.0800000  0  3G12G13G 7
  21625927.357    21625932.087    21943247.673 8 -33327576.354 8
  22037311.100    22037316.052    49888636.490 8 -55711047.173 8
  24344703.689    24344707.622    -7024517.630 9  -9705645.428 7
 86  6 11  4 35 59.0800000  0  3G12G13G 7
  21628428.829    21628434.083    21956395.499 9 -33317331.305 8
  22038989.024    22038993.290    49897450.423 8 -55704179.179 8
  24343743.091    24343745.869    -7029569.396 9  -9709581.870 7
 86  6 11  4 36  5.0800000  0  3G12G13G 7
  21630934.160    21630940.455    21969563.687 9 -33307070.381 9
  22040665.918    22040671.898    49906266.117 8 -55697309.801 9
                  24342789.312                    -9713497.536 7
 86  6 11  4 36 11.0800000  0  3G12G13G 7
  21633443.768    21633449.923    21982752.212 7 -33296793.605 8
  22042344.787    22042349.122    49915083.600 8 -55690439.017 8
  24341834.899    24341841.557    -7070992.911 8  -9717386.911 8
 86  6 11  4 36 17.0800000  0  3G12G13G 7
  21635958.351    21635962.685    21995961.179 8 -33286500.907 8
  22044022.225    22044026.246    49923902.904 8 -55683566.840 8
  24340893.809    24340898.300    -7075947.136 9  -9721247.350 7
 86  6 11  4 36 23.0800000  0  3G12G13G 7
  21638475.261    21638479.266    22009190.537 9 -33276192.325 7
  22045701.179    22045704.742    49932723.915 8 -55676693.327 9
  24339957.071    24339960.327    -7080866.167 9  -9725080.374 8
 86  6 11  4 36 29.0800000  0  3G12G13G 7
  21640997.023    21641001.897    22022440.174 8 -33265867.926 8
  22047379.477    22047384.056    49941546.693 8 -55669818.415 8
  24339027.560    24339030.572    -7085754.349 9  -9728889.334 7
 86  6 11  4 36 35.0800000  0  3G12G13G 7
  21643520.915    21643527.021    22035710.054 8 -33255527.754 7
  22049058.573    22049063.596    49950371.279 9 -55662942.125 8
  24338101.654    24338104.696    -7090616.283 9  -9732677.847 9
 86  6 11  4 36 41.0800000  0  3G12G13G 7
  21646051.271    21646055.736    22049000.160 9 -33245171.833 8
  22050739.046    22050742.337    49959197.649 8 -55656064.417 8
  24337182.253    24337185.456    -7095454.939 9  -9736448.231 8
 86  6 11  4 36 47.0800000  0  3G12G13G 7
  21648584.461    21648588.667    22062310.568 9 -33234800.090 8
  22052419.631    22052423.209    49968025.742 9 -55649185.391 8
  24336264.975    24336268.459    -7100272.485 9  -9740202.154 8
 86  6 11  4 36 53.0800000  0  3G12G13G 7
  21651120.380    21651125.697    22075641.103 8 -33224412.654 7
  22054098.557    22054103.450    49976855.520 8 -55642305.031 8
  24335351.620    24335355.326    -7105070.126 9  -9743940.569 8
 86  6 11  4 36 59.0800000  0  3G12G13G 7
  21653661.653    21653665.597    22088991.787 9 -33214009.532 7
  22055779.858    22055784.795    49985687.070 9 -55635423.300 6
  24334442.700    24334446.077    -7109846.412 9  -9747662.344 8
 86  6 11  4 37  5.0800000  0  3G12G13G 7
  21656205.586    21656209.953    22102362.696 8 -33203590.633 8
  22057460.816    22057464.797    49994520.338 9 -55628540.226 7
                  24333541.648                    -9751363.102 8
 86  6 11  4 37 11.0800000  0  3G12G13G 7
  21658753.104    21658758.784    22115753.766 8 -33193156.028 8
  22059143.120    22059145.525    50003355.359 8 -55621655.792 8
  24332641.939    24332647.065    -7150994.477 9  -9755037.336 7
 86  6 11  4 37 17.0800000  0  3G12G13G 7
  21661306.016    21661310.160    22129164.992 8 -33182705.724 7
  22060823.275    22060829.472    50012192.119 8 -55614770.005 7
  24331751.534    24331755.083    -7155672.427 8  -9758682.462 8
 86  6 11  4 37 23.0800000  0  3G12G13G 7
  21663862.557    21663865.499    22142596.311 8 -33172239.758 7
  22062505.636    22062508.629    50021030.492 9 -55607882.956 8
  24330867.833    24330871.297    -7160315.902 9  -9762300.358 7
 86  6 11  4 37 29.0800000  0  3G12G13G 7
  21666421.005    21666426.878    22156047.729 8 -33161758.134 8
  22064187.711    22064192.104    50029870.648 9 -55600994.515 7
  24329990.499    24329993.976    -7164928.198 9  -9765894.359 7
 86  6 11  4 37 35.0800000  0  3G12G13G 7
  21668985.830    21668990.052    22169519.166 9 -33151260.918 8
  22065871.072    22065874.305    50038712.524 9 -55594104.750 8
  24329117.896    24329121.326    -7169514.241 9  -9769467.892 8
 86  6 11  4 37 41.0800000  0  3G12G13G 7
  21671552.269    21671556.679    22183010.562 9 -33140748.131 8
  22067554.148    22067557.725    50047556.067 9 -55587213.664 8
  24328249.186    24328252.220    -7174077.001 9  -9773023.290 8
 86  6 11  4 37 47.0800000  0  3G12G13G 7
  21674124.118    21674128.675    22196521.926 9 -33130219.794 8
  22069235.623    22069239.973    50056401.246 9 -55580321.302 7
  24327385.376    24327388.603    -7178618.749 9  -9776562.306 8
 86  6 11  4 37 53.0800000  0  3G12G13G 7
  21676699.253    21676702.832    22210053.259 8 -33119675.908 8
  22070919.871    22070923.220    50065248.057 8 -55573427.688 8
  24326524.969    24326527.768    -7183140.550 9  -9780085.784 7
 86  6 11  4 37 59.0800000  0  3G12G13G 7
  21679277.435    21679281.036    22223604.511 9 -33109116.496 8
  22072603.349    22072607.585    50074096.508 8 -55566532.781 7
  24325668.715    24325672.452    -7187640.977 9  -9783592.610 7
 86  6 11  4 38  5.0800000  0  3G12G13G 7
  21681859.459    21681865.502    22237175.659 8 -33098541.563 8
  22074288.627    22074291.861    50082946.662 8 -55559636.563 8
                  24324820.983                    -9787078.215 8
 86  6 11  4 38 11.0800000  0  3G12G13G 7
  21684445.408    21684451.785    22250766.683 9 -33087951.156 8
  22075973.276    22075976.081    50091798.481 9 -55552739.031 8
  24323973.158    24323977.832    -7228515.063 9  -9790537.081 8
 86  6 11  4 38 17.0800000  0  3G12G13G 7
  21687035.815    21687040.593    22264377.577 8 -33077345.270 8
  22077657.670    22077660.961    50100652.030 8 -55545840.148 8
  24323135.463    24323137.625    -7232916.574 9  -9793966.821 8
 86  6 11  4 38 23.0800000  0  3G12G13G 7
  21689631.221    21689635.339    22278008.391 9 -33066723.859 8
  22079343.121    22079345.840    50109507.313 9 -55538939.926 6
  24322304.213    24322307.520    -7237283.170 9  -9797369.367 8
 86  6 11  4 38 29.0800000  0  3G12G13G 7
  21692227.569    21692232.127    22291659.035 8 -33056086.983 9
  22081028.371    22081031.176    50118364.251 8 -55532038.414 8
  24321478.774    24321482.329    -7241619.290 9  -9800748.160 8
 86  6 11  4 38 35.0800000  0  3G12G13G 7
  21694828.507    21694832.547    22305329.466 8 -33045434.708 8
  22082713.336    22082717.887    50127222.886 8 -55525135.575 8
  24320659.408    24320663.277    -7245929.225 9  -9804106.540 7
 86  6 11  4 38 41.0800000  0  3G12G13G 7
  21697433.516    21697438.581    22319019.635 8 -33034767.043 8
  22084399.559    22084403.210    50136083.087 9 -55518231.519 8
  24319842.680    24319846.645    -7250215.890 9  -9807446.793 8
 86  6 11  4 38 47.0800000  0  3G12G13G 7
  21700042.769    21700046.749    22332729.612 8 -33024083.949 8
  22086085.984    22086089.005    50144944.916 8 -55511326.191 8
  24319031.343    24319035.049    -7254481.456 9  -9810770.608 8
 86  6 11  4 38 53.0800000  0  3G12G13G 7
  21702655.377    21702661.585    22346459.305 8 -33013385.481 9
  22087772.838    22087775.742    50153808.367 9 -55504419.603 7
  24318223.775    24318227.966    -7258727.090 9  -9814078.907 8
 86  6 11  4 38 59.0800000  0  3G12G13G 7
  21705271.788    21705277.516    22360208.674 9 -33002671.692 7
  22089460.235    22089462.624    50162673.394 8 -55497511.784 7
  24317419.425    24317423.484    -7262951.143 9  -9817370.363 8
 86  6 11  4 39  5.0800000  0  3G12G13G 7
  21707891.954    21707897.841    22373977.702 8 -32991942.574 8
  22091146.801    22091151.137    50171540.044 9 -55490602.695 8
                  24316624.915                    -9820640.329 8
 86  6 11  4 39 11.0800000  0  3G12G13G 7
  21710516.170    21710520.243    22387766.275 8 -32981198.243 7
  22092834.515    22092838.777    50180408.376 8 -55483692.310 7
  24315829.157    24315831.405    -7303550.553 9  -9823883.384 8
 86  6 11  4 39 17.0800000  0  3G12G13G 7
  21713143.834    21713149.521    22401574.424 8 -32970438.636 7
  22094522.740    22094524.416    50189278.344 9 -55476780.624 7
  24315044.435    24315048.056    -7307675.114 8  -9827097.327 8
 86  6 11  4 39 23.0800000  0  3G12G13G 7
  21715775.413    21715779.665    22415402.172 8 -32959663.764 8
  22096210.224    22096212.942    50198149.914 9 -55469867.706 8
  24314265.884    24314269.070    -7311764.994 9  -9830284.244 7
 86  6 11  4 39 29.0800000  0  3G12G13G 7
  21718409.002    21718415.371    22429249.499 8 -32948873.658 7
  22097898.739    22097901.928    50207023.147 8 -55462953.506 7
  24313493.310    24313497.446    -7315824.398 9  -9833447.415 7
 86  6 11  4 39 35.0800000  0  3G12G13G 7
  21721047.947    21721053.104    22443116.399 8 -32938068.274 8
  22099587.996    22099590.984    50215898.057 9 -55456037.992 7
  24312725.273    24312729.657    -7319857.745 8  -9836590.276 7
 86  6 11  4 39 41.0800000  0  3G12G13G 7
  21723691.568    21723697.037    22457002.916 8 -32927247.607 7
  22101277.623    22101279.326    50224774.730 8 -55449121.102 8
  24311961.999    24311966.468    -7323867.869 9  -9839715.048 8
 86  6 11  4 39 47.0800000  0  3G12G13G 7
  21726337.376    21726343.171    22470909.086 9 -32916411.641 8
  22102966.081    22102969.543    50233653.137 8 -55442202.854 8
  24311203.331    24311207.291    -7327856.815 9  -9842823.323 6
 86  6 11  4 39 53.0800000  0  3G12G13G 7
  21728987.999    21728993.218    22484834.982 8 -32905560.290 8
  22104657.512    22104659.086    50242533.226 8 -55435283.306 7
  24310448.792    24310452.778    -7331825.601 9  -9845915.865 7
 86  6 11  4 39 59.0800000  0  3G12G13G 7
  21731641.555    21731646.683    22498780.463 9 -32894693.681 8
  22106346.254    22106350.148    50251415.055 9 -55428362.399 8
  24309696.910    24309700.221    -7335772.275 9  -9848991.193 8
 86  6 11  4 40  5.0800000  0  3G12G13G 7
  21734298.225    21734303.757    22512745.426 8 -32883811.887 8
  22108036.341    22108041.577    50260298.606 8 -55421440.143 8
                  24308954.573                    -9852044.705 7
 86  6 11  4 40 11.0800000  0  3G12G13G 7
  21736959.431    21736964.364    22526729.757 9 -32872915.010 7
  22109726.773    22109730.452    50269183.743 9 -55414516.640 8
  24308209.853    24308216.595    -7376102.820 9  -9855071.133 7
 86  6 11  4 40 17.0800000  0  3G12G13G 7
  21739625.100    21739630.005    22540733.441 9 -32862003.036 7
  22111418.232    22111421.325    50278070.488 8 -55407591.908 7
  24307480.735    24307485.006    -7379949.364 8  -9858068.388 7
 86  6 11  4 40 23.0800000  0  3G12G13G 7
  21742293.158    21742297.457    22554756.476 8 -32851076.017 8
  22113110.695    22113113.702    50286958.844 9 -55400665.915 7
  24306754.760    24306757.591    -7383761.211 9  -9861038.661 7
 86  6 11  4 40 29.0800000  0  3G12G13G 7
  21744964.931    21744968.916    22568798.815 8 -32840133.926 8
  22114802.299    22114805.747    50295848.816 8 -55393738.654 8
  24306035.013    24306038.334    -7387542.750 9  -9863985.311 8
 86  6 11  4 40 35.0800000  0  3G12G13G 7
  21747640.664    21747647.138    22582860.491 8 -32829176.781 7
  22116493.418    22116496.836    50304740.329 9 -55386810.207 7
  24305320.719    24305324.266    -7391298.221 8  -9866911.638 8
 86  6 11  4 40 41.0800000  0  3G12G13G 7
  21750320.740    21750326.522    22596941.491 8 -32818204.572 8
  22118186.022    22118189.185    50313633.435 8 -55379880.500 7
  24304610.691    24304614.016    -7395030.589 9  -9869819.985 7
 86  6 11  4 40 47.0800000  0  3G12G13G 7
  21753004.055    21753009.969    22611041.786 8 -32807217.328 8
  22119877.056    22119881.047    50322528.168 9 -55372949.539 7
  24303904.186    24303908.436    -7398741.897 9  -9872711.920 7
 86  6 11  4 40 53.0800000  0  3G12G13G 7
  21755690.718    21755696.190    22625161.419 8 -32796215.022 9
  22121570.034    22121574.898    50331424.567 9 -55366017.276 8
  24303202.192    24303204.897    -7402433.146 9  -9875588.202 8
 86  6 11  4 40 59.0800000  0  3G12G13G 7
  21758381.235    21758386.432    22639300.303 9 -32785197.707 8
  22123264.126    22123268.719    50340322.580 9 -55359083.759 8
  24302503.244    24302507.423    -7406102.217 9  -9878447.217 8
 86  6 11  4 41  5.0800000  0  3G12G13G 7
  21761076.077    21761080.244    22653458.352 9 -32774165.469 7
  22124957.734    22124960.425    50349222.191 8 -55352148.987 8
                  24301813.613                    -9881284.193 8
 86  6 11  4 41 11.0800000  0  3G12G13G 7
  21763773.605    21763778.271    22667635.598 8 -32763118.272 8
  22126652.428    22126655.463    50358123.336 8 -55345213.037 8
  24301124.144    24301128.496    -7446151.246 9  -9884093.856 9
 86  6 11  4 41 17.0800000  0  3G12G13G 7
  21766473.685    21766481.210    22681831.918 8 -32752056.197 9
  22128346.351    22128350.043    50367026.024 8 -55338275.878 8
  24300445.553    24300449.287    -7449719.548 8  -9886874.348 8
 86  6 11  4 41 23.0800000  0  3G12G13G 7
  21769180.190    21769185.246    22696047.328 9 -32740979.257 9
  22130039.043    22130043.349    50375930.296 9 -55331337.469 7
  24299773.522    24299776.835    -7453252.736 9  -9889627.848 8
 86  6 11  4 41 29.0800000  0  3G12G13G 7
  21771889.077    21771893.571    22710281.875 8 -32729887.411 7
  22131735.253    22131739.832    50384836.250 7 -55324397.772 7
  24299105.775    24299109.684    -7456756.241 9  -9892357.861 7
 86  6 11  4 41 35.0800000  0  3G12G13G 7
  21774601.115    21774605.954    22724535.558 9 -32718780.636 8
  22133429.633    22133434.528    50393743.918 8 -55317456.725 7
  24298444.283    24298447.889    -7460233.766 9  -9895067.607 8
 86  6 11  4 41 41.0800000  0  3G12G13G 7
  21777317.392    21777322.002    22738808.475 8 -32707658.872 8
  22135125.817    22135130.095    50402653.261 8 -55310514.380 8
  24297787.062    24297791.396    -7463688.072 9  -9897759.275 8
 86  6 11  4 41 47.0800000  0  3G12G13G 7
  21780037.467    21780041.797    22753100.511 8 -32696522.231 8
  22136821.141    22136826.251    50411564.224 8 -55303570.776 8
  24297134.226    24297137.116    -7467121.310 9  -9900434.511 8
 86  6 11  4 41 53.0800000  0  3G12G13G 7
  21782760.029    21782765.498    22767411.585 9 -32685370.734 8
  22138517.469    22138520.815    50420476.776 8 -55296625.924 7
  24296484.373    24296488.245    -7470534.385 9  -9903094.047 8
 86  6 11  4 41 59.0800000  0  3G12G13G 7
  21785486.178    21785492.267    22781741.709 9 -32674204.414 8
  22140213.679    22140217.142    50429390.805 8 -55289679.918 8
  24295839.701    24295843.229    -7473925.151 9  -9905736.193 8
 86  6 11  4 42  5.0800000  0  3G12G13G 7
  21788218.507    21788222.763    22796090.780 8 -32663023.329 8
  22141910.578    22141914.412    50438306.364 8 -55282732.729 8
                  24295202.211                    -9908356.089 7
 86  6 11  4 42 11.0800000  0  3G12G13G 7
  21790951.334    21790957.045    22810458.665 8 -32651827.569 8
  22143606.789    22143611.957    50447223.442 8 -55275784.357 8
  24294565.862    24294570.877    -7513699.723 9  -9910948.468 8
 86  6 11  4 42 17.0800000  0  3G12G13G 7
  21793689.415    21793695.080    22824845.520 8 -32640617.045 7
  22145304.290    22145307.511    50456142.123 9 -55268834.741 8
  24293940.341    24293944.418    -7516989.108 9  -9913511.605 8
 86  6 11  4 42 23.0800000  0  3G12G13G 7
  21796430.030    21796436.385    22839251.171 9 -32629391.861 8
  22147002.388    22147005.624    50465062.405 8 -55261883.863 7
  24293322.232    24293324.903    -7520244.533 9  -9916047.911 6
 86  6 11  4 42 29.0800000  0  3G12G13G 7
  21799176.532    21799181.445    22853675.719 8 -32618151.947 8
  22148699.887    22148702.809    50473984.273 9 -55254931.750 8
  24292707.853    24292710.585    -7523469.600 9  -9918560.939 8
 86  6 11  4 42 35.0800000  0  3G12G13G 7
  21801924.225    21801929.461    22868119.136 8 -32606897.349 8
  22150397.158    22150401.009    50482907.660 8 -55247978.458 7
  24292098.989    24292101.852    -7526668.799 9  -9921053.810 8
 86  6 11  4 42 41.0800000  0  3G12G13G 7
  21804675.347    21804681.199    22882581.381 9 -32595628.060 8
  22152095.171    22152099.781    50491832.609 8 -55241023.952 8
  24291494.276    24291497.624    -7529844.835 9  -9923528.635 8
 86  6 11  4 42 47.0800000  0  3G12G13G 7
  21807431.265    21807437.087    22897062.468 8 -32584344.102 8
  22153794.648    22153798.755    50500759.119 9 -55234068.234 7
  24290894.748    24290896.946    -7532999.936 9  -9925987.156 8
 86  6 11  4 42 53.0800000  0  3G12G13G 7
  21810191.352    21810195.863    22911562.323 8 -32573045.516 8
  22155493.378    22155497.270    50509687.256 8 -55227111.240 8
  24290297.211    24290301.166    -7536134.722 9  -9928429.838 9
 86  6 11  4 42 59.0800000  0  3G12G13G 7
  21812953.218    21812960.123    22926081.043 8 -32561732.239 7
  22157193.451    22157198.203    50518617.119 8 -55220152.903 7
  24289705.010    24289708.801    -7539246.977 9  -9930854.969 8
 86  6 11  4 43  5.0800000  0  3G12G13G 7
  21815720.196    21815725.767    22940618.668 8 -32550404.209 8
  22158892.353    22158895.403    50527548.591 8 -55213193.314 8
                  24289121.688                    -9933257.375 8
 86  6 11  4 43 11.0800000  0  3G12G13G 7
  21818490.051    21818495.642    22955175.145 7 -32539061.495 8
  22160591.943    22160596.263    50536481.738 8 -55206232.412 8
  24288538.424    24288542.804    -7578741.574 9  -9935632.030 9
 86  6 11  4 43 17.0800000  0  3G12G13G 7
  21821264.264    21821269.145    22969750.354 7 -32527704.198 8
  22162293.306    22162297.613    50545416.589 9 -55199270.196 8
  24287965.985    24287969.426    -7581751.490 9  -9937977.436 8
 86  6 11  4 43 23.0800000  0  3G12G13G 7
  21824040.522    21824045.644    22984344.304 8 -32516332.300 7
  22163993.151    22163997.344    50554353.074 8 -55192306.682 8
  24287400.486    24287404.113    -7584726.983 9  -9940295.989 8
 86  6 11  4 43 29.0800000  0  3G12G13G 7
  21826821.946    21826827.226    22998956.879 7 -32504945.876 7
  22165693.284    22165698.421    50563291.141 8 -55185341.965 8
  24286839.756    24286842.377    -7587672.652 8  -9942591.314 7
 86  6 11  4 43 35.0800000  0  3G12G13G 7
  21829606.103    21829611.457    23013588.036 7 -32493544.969 8
  22167394.591    22167400.229    50572230.796 7 -55178376.008 8
  24286282.995    24286287.602    -7590592.562 9  -9944866.555 7
 86  6 11  4 43 41.0800000  0  3G12G13G 7
  21832393.894    21832399.140    23028237.766 8 -32482129.603 8
  22169097.754    22169100.718    50581171.965 8 -55171408.838 8
  24285732.103    24285736.138    -7593489.353 9  -9947123.786 8
 86  6 11  4 43 47.0800000  0  3G12G13G 7
  21835184.975    21835188.972    23042906.068 8 -32470699.752 8
  22170798.375    22170802.812    50590114.653 7 -55164440.512 8
  24285184.455    24285187.495    -7596365.218 9  -9949364.718 8
 86  6 11  4 43 53.0800000  0  3G12G13G 7
  21837979.842    21837983.872    23057592.951 9 -32459255.433 8
  22172500.712    22172504.016    50599058.899 7 -55157470.971 7
  24284642.394    24284644.375    -7599220.750 9  -9951589.805 9
 86  6 11  4 43 59.0800000  0  3G12G13G 7
  21840778.472    21840782.677    23072298.336 8 -32447796.695 8
  22174201.846    22174206.838    50608004.745 9 -55150500.165 8
  24284102.128    24284105.672    -7602053.401 9  -9953797.068 7
 86  6 11  4 44  5.0800000  0  3G12G13G 7
  21843579.926    21843585.044    23087022.190 8 -32436323.555 7
  22175905.555    22175907.806    50616952.152 8 -55143528.160 7
                  24283572.209                    -9955981.414 8
 86  6 11  4 44 11.0800000  0  3G12G13G 7
  21846384.388    21846389.984    23101764.527 8 -32424836.029 8
  22177609.007    22177613.086    50625901.102 8 -55136554.964 8
  24283042.545    24283044.106    -7641275.229 8  -9958137.966 8
 86  6 11  4 44 17.0800000  0  3G12G13G 7
  21849194.986    21849199.435    23116525.316 7 -32413334.127 7
  22179312.229    22179315.449    50634851.570 8 -55129580.561 8
  24282522.349    24282526.843    -7644005.428 9  -9960265.378 7
 86  6 11  4 44 23.0800000  0  3G12G13G 7
  21852006.147    21852012.630    23131304.519 8 -32401817.863 7
  22181016.082    22181019.445    50643803.629 9 -55122604.932 7
  24282009.042    24282012.162    -7646701.317 8  -9962366.072 8
 86  6 11  4 44 29.0800000  0  3G12G13G 7
  21854822.719    21854828.068    23146102.212 9 -32390287.194 9
  22182718.189    22182723.041    50652757.251 8 -55115628.075 8
  24281502.031    24281505.094    -7649367.442 8  -9964443.569 8
 86  6 11  4 44 35.0800000  0  3G12G13G 7
  21857640.931    21857646.328    23160918.383 9 -32378742.114 8
  22184423.645    22184426.709    50661712.546 8 -55108649.918 7
  24280999.807    24281002.355    -7652007.878 9  -9966501.044 8
 86  6 11  4 44 41.0800000  0  3G12G13G 7
  21860465.844    21860470.783    23175752.972 8 -32367182.696 8
  22186127.267    22186130.090    50670669.430 8 -55101670.515 8
  24280501.311    24280504.587    -7654625.249 8  -9968540.551 7
 86  6 11  4 44 47.0800000  0  3G12G13G 7
  21863291.979    21863295.918    23190605.973 8 -32355608.943 9
  22187833.638    22187836.115    50679627.949 8 -55094689.843 8
  24280007.150    24280010.512    -7657221.641 9  -9970563.712 8
 86  6 11  4 44 53.0800000  0  3G12G13G 7
  21866118.967    21866125.225    23205477.314 8 -32344020.872 8
  22189537.122    22189541.614    50688588.127 8 -55087707.919 8
  24279517.710    24279521.123    -7659797.654 9  -9972570.984 7
 86  6 11  4 44 59.0800000  0  3G12G13G 7
  21868954.891    21868959.837    23220367.038 9 -32332418.501 7
  22191242.062    22191245.666    50697549.918 9 -55080724.683 8
  24279031.327    24279035.111    -7662350.527 8  -9974560.235 8
 86  6 11  4 45  5.0800000  0  3G12G13G 7
  21871792.705    21871796.176    23235275.058 9 -32320801.861 7
  22192949.062    22192952.252    50706513.332 8 -55073740.200 7
                  24278555.639                    -9976526.422 8
 86  6 11  4 45 11.0800000  0  3G12G13G 7
  21874632.252    21874636.686    23250201.303 8 -32309171.023 8
  22194654.946    22194658.509    50715478.258 8 -55066754.548 9
  24278078.362    24278082.202    -7701294.615 9  -9978464.583 7
 86  6 11  4 45 17.0800000  0  3G12G13G 7
  21877476.788    21877480.305    23265145.733 9 -32297526.014 7
  22196360.229    22196364.738    50724444.655 8 -55059767.737 8
  24277611.274    24277615.939    -7703744.511 9  -9980373.587 8
 86  6 11  4 45 23.0800000  0  3G12G13G 7
  21880323.725    21880328.612    23280108.263 9 -32285866.899 8
  22198065.572    22198071.782    50733412.597 8 -55052779.725 8
  24277151.883    24277157.229    -7706159.809 9  -9982256.023 8
 86  6 11  4 45 29.0800000  0  3G12G13G 7
  21883174.547    21883178.915    23295088.941 8 -32274193.636 8
  22199773.202    22199776.321    50742382.021 9 -55045790.558 8
  24276698.469    24276701.929    -7708546.164 9  -9984115.514 8
 86  6 11  4 45 35.0800000  0  3G12G13G 7
  21886028.980    21886032.180    23310087.732 7 -32262506.276 7
  22201481.860    22201484.609    50751352.923 9 -55038800.227 7
  24276248.430    24276253.411    -7710906.988 9  -9985955.111 8
 86  6 11  4 45 41.0800000  0  3G12G13G 7
  21888885.544    21888889.742    23325104.595 8 -32250804.811 7
  22203187.919    22203191.496    50760325.404 8 -55031808.698 8
  24275803.247    24275807.184    -7713244.867 9  -9987776.837 8
 86  6 11  4 45 47.0800000  0  3G12G13G 7
  21891746.749    21891751.014    23340139.531 9 -32239089.285 7
  22204896.179    22204900.070    50769299.317 7 -55024816.021 8
  24275362.875    24275366.705    -7715561.798 9  -9989582.228 7
 86  6 11  4 45 53.0800000  0  3G12G13G 7
  21894612.731    21894616.281    23355192.525 8 -32227359.684 7
  22206604.496    22206608.073    50778274.685 8 -55017822.233 9
  24274925.543    24274929.020    -7717858.313 8  -9991371.716 8
 86  6 11  4 45 59.0800000  0  3G12G13G 7
  21897478.431    21897483.099    23370263.548 9 -32215616.030 8
  22208313.184    22208316.060    50787251.608 8 -55010827.230 7
  24274492.991    24274497.762    -7720131.597 9  -9993143.103 8
 86  6 11  4 46  5.0800000  0  3G12G13G 7
  21900350.140    21900356.983    23385352.474 8 -32203858.427 7
  22210021.701    22210024.062    50796229.896 8 -55003831.144 8
                  24274069.974                    -9994891.193 8
 86  6 11  4 46 11.0800000  0  3G12G13G 7
  21903225.532    21903230.675    23400459.376 9 -32192086.810 7
  22211729.560    22211733.527    50805209.752 8 -54996833.859 9
  24273645.946    24273649.626    -7758800.185 8  -9996611.082 8
 86  6 11  4 46 17.0800000  0  3G12G13G 7
  21906103.478    21906107.595    23415584.267 8 -32180301.178 8
  22213437.936    22213442.169    50814191.237 8 -54989835.296 8
  24273233.080    24273237.042    -7760969.942 9  -9998301.792 8
 86  6 11  4 46 23.0800000  0  3G12G13G 7
  21908984.884    21908989.355    23430727.176 9 -32168501.517 7
  22215149.029    22215151.876    50823174.284 9 -54982835.523 8
  24272827.271    24272830.546    -7763105.618 9  -9999965.955 8
 86  6 11  4 46 29.0800000  0  3G12G13G 7
  21911870.414    21911875.665    23445888.089 9 -32156687.815 7
  22216858.891    22216861.210    50832158.973 8 -54975834.460 7
  24272426.998    24272429.703    -7765211.776 9 -10001607.120 8
 86  6 11  4 46 35.0800000  0  3G12G13G 7
  21914758.918    21914763.103    23461066.927 8 -32144860.141 7
  22218568.381    22218572.188    50841145.263 8 -54968832.153 8
  24272030.047    24272034.530    -7767292.534 9 -10003228.489 7
 86  6 11  4 46 41.0800000  0  3G12G13G 7
  21917651.282    21917654.622    23476263.696 9 -32133018.510 7
  22220277.244    22220282.981    50850133.141 8 -54961828.622 8
  24271639.199    24271641.917    -7769350.326 9 -10004831.957 8
 86  6 11  4 46 47.0800000  0  3G12G13G 7
  21920546.184    21920550.050    23491478.415 9 -32121162.883 8
  22221988.337    22221992.144    50859122.464 8 -54954823.947 8
  24271251.447    24271255.196    -7771387.157 9 -10006419.105 8
 86  6 11  4 46 53.0800000  0  3G12G13G 7
  21923444.261    21923449.686    23506711.023 9 -32109293.320 7
  22223700.344    22223703.723    50868113.413 8 -54947818.002 7
  24270867.566    24270871.959    -7773403.467 9 -10007990.235 8
 86  6 11  4 46 59.0800000  0  3G12G13G 7
  21926346.673    21926351.533    23521961.575 8 -32097409.772 7
  22225410.980    22225415.430    50877106.045 8 -54940810.755 8
  24270488.558    24270491.973    -7775396.225 9 -10009543.029 8
 86  6 11  4 47  5.0800000  0  3G12G13G 7
  21929251.349    21929257.116    23537229.978 9 -32085512.317 7
  22227122.216    22227126.624    50886100.322 8 -54933802.225 8
                  24270118.395                   -10011072.111 8
 86  6 11  4 47 11.0800000  0  3G12G13G 7
  21932161.000    21932166.023    23552516.163 9 -32073600.994 8
  22228833.968    22228838.078    50895096.206 8 -54926792.433 8
  24269749.397    24269753.431    -7813782.983 9 -10012572.839 8
 86  6 11  4 47 17.0800000  0  3G12G13G 7
  21935073.241    21935078.301    23567820.148 8 -32061675.809 7
  22230546.579    22230550.114    50904093.704 8 -54919781.404 7
  24269389.368    24269393.795    -7815671.719 8 -10014044.580 7
 86  6 11  4 47 23.0800000  0  3G12G13G 7
  21937987.476    21937994.332    23583141.857 8 -32049736.833 7
  22232258.074    22232262.724    50913092.751 8 -54912769.154 7
  24269036.740    24269038.843    -7817527.067 9 -10015489.907 8
 86  6 11  4 47 29.0800000  0  3G12G13G 7
  21940907.832    21940912.356    23598481.141 9 -32037784.138 8
  22233971.140    22233976.463    50922093.208 8 -54905755.808 7
  24268688.604    24268691.918    -7819352.607 9 -10016912.390 8
 86  6 11  4 47 35.0800000  0  3G12G13G 7
  21943829.911    21943833.567    23613837.991 9 -32025817.754 8
  22235684.666    22235688.399    50931095.106 8 -54898741.343 8
  24268347.065    24268349.862    -7821152.814 8 -10018315.150 7
 86  6 11  4 47 41.0800000  0  3G12G13G 7
  21946755.641    21946759.756    23629212.388 9 -32013837.705 8
  22237397.215    22237401.755    50940098.415 9 -54891725.760 9
  24268007.858    24268011.241    -7822930.187 9 -10019700.120 8
 86  6 11  4 47 47.0800000  0  3G12G13G 7
  21949684.645    21949689.448    23644604.239 9 -32001844.058 8
  22239111.402    22239114.608    50949103.207 9 -54884709.047 8
  24267674.010    24267677.436    -7824686.841 9 -10021068.927 8
 86  6 11  4 47 53.0800000  0  3G12G13G 7
  21952617.068    21952621.691    23660013.560 8 -31989836.784 7
  22240825.900    22240829.849    50958109.339 7 -54877691.278 8
  24267343.681    24267347.103    -7826423.053 9 -10022421.819 8
 86  6 11  4 47 59.0800000  0  3G12G13G 7
  21955551.780    21955556.196    23675440.358 9 -31977815.919 8
  22242539.772    22242544.077    50967116.880 9 -54870672.403 8
  24267017.360    24267020.837    -7828135.674 9 -10023756.328 7
 86  6 11  4 48  5.0800000  0  3G12G13G 7
  21958490.955    21958496.366    23690884.591 8 -31965781.429 8
  22244254.069    22244256.773    50976125.896 8 -54863652.383 8
                  24266700.490                   -10025067.061 7
 86  6 11  4 48 11.0800000  0  3G12G13G 7
  21961433.615    21961436.905    23706346.339 9 -31953733.318 8
  22245967.594    22245971.902    50985136.397 9 -54856631.215 7
  24266383.615    24266387.058    -7866246.406 9 -10026349.361 8
 86  6 11  4 48 17.0800000  0  3G12G13G 7
  21964378.436    21964382.824    23721825.561 9 -31941671.586 7
  22247683.983    22247687.545    50994148.480 9 -54849608.802 7
  24266078.090    24266082.032    -7867854.781 9 -10027602.629 8
 86  6 11  4 48 23.0800000  0  3G12G13G 7
  21967328.636    21967332.224    23737322.262 9 -31929596.234 8
  22249397.480    22249401.758    51003162.178 8 -54842585.147 8
  24265778.190    24265782.288    -7869429.356 9 -10028829.568 7
 86  6 11  4 48 29.0800000  0  3G12G13G 7
  21970280.397    21970284.836    23752836.443 9 -31917507.250 8
  22251113.669    22251117.159    51012177.461 9 -54835560.251 7
  24265484.516    24265487.135    -7870974.719 9 -10030033.742 8
 86  6 11  4 48 35.0800000  0  3G12G13G 7
  21973235.841    21973240.508    23768368.100 8 -31905404.675 8
  22252830.053    22252832.945    51021194.242 9 -54828534.175 7
  24265194.461    24265198.431    -7872494.828 8 -10031218.239 7
 86  6 11  4 48 41.0800000  0  3G12G13G 7
  21976194.346    21976199.774    23783917.120 9 -31893288.549 7
  22254545.040    22254549.676    51030212.491 9 -54821506.966 8
  24264909.921    24264913.565    -7873992.249 9 -10032385.064 8
 86  6 11  4 48 47.0800000  0  3G12G13G 7
  21979156.921    21979162.633    23799483.461 9 -31881158.926 7
  22256262.140    22256266.364    51039232.292 9 -54814478.548 8
  24264629.225    24264631.785    -7875468.847 9 -10033535.653 7
 86  6 11  4 48 53.0800000  0  3G12G13G 7
  21982123.213    21982127.196    23815067.027 8 -31869015.887 8
  22257979.904    22257983.225    51048253.582 9 -54807448.968 8
  24264351.954    24264355.505    -7876924.859 9 -10034670.194 8
 86  6 11  4 48 59.0800000  0  3G12G13G 7
  21985091.806    21985095.742    23830667.933 8 -31856859.327 8
  22259696.233    22259699.865    51057276.373 8 -54800418.235 8
  24264079.581    24264083.135    -7878356.889 9 -10035786.069 8
 86  6 11  4 49  5.0800000  0  3G12G13G 7
  21988063.968    21988068.169    23846286.121 8 -31844689.326 8
  22261413.938    22261417.129    51066300.686 8 -54793386.289 8
                  24263815.732                   -10036877.852 8
 86  6 11  4 49 11.0800000  0  3G12G13G 7
  21991037.868    21991044.362    23861921.581 8 -31832505.831 8
  22263130.868    22263133.387    51075326.596 9 -54786353.106 8
  24263553.151    24263557.265    -7916184.956 9 -10037941.049 7
 86  6 11  4 49 17.0800000  0  3G12G13G 7
  21994017.610    21994021.691    23877574.337 8 -31820308.885 7
  22264849.203    22264852.510    51084353.987 8 -54779318.772 8
  24263300.128    24263303.727    -7917512.085 9 -10038975.177 7
 86  6 11  4 49 23.0800000  0  3G12G13G 7
  21996999.360    21997003.285    23893244.317 8 -31808098.508 7
  22266566.993    22266570.784    51093382.987 9 -54772283.187 8
  24263054.396    24263058.487    -7918805.091 9 -10039983.102 7
 86  6 11  4 49 29.0800000  0  3G12G13G 7
  21999984.715    21999988.385    23908931.511 8 -31795874.725 7
  22268285.670    22268290.420    51102413.636 8 -54765246.309 7
  24262813.930    24262817.701    -7920069.506 9 -10040968.350 8
 86  6 11  4 49 35.0800000  0  3G12G13G 7
  22002973.428    22002977.905    23924635.920 9 -31783637.526 8
  22270004.806    22270008.225    51111445.923 9 -54758208.154 8
  24262577.427    24262581.075    -7921308.724 9 -10041933.984 8
 86  6 11  4 49 41.0800000  0  3G12G13G 7
  22005964.585    22005968.662    23940357.473 8 -31771386.947 7
  22271723.282    22271727.917    51120479.732 8 -54751168.825 7
  24262345.997    24262350.895    -7922525.285 9 -10042881.945 8
 86  6 11  4 49 47.0800000  0  3G12G13G 7
  22008959.339    22008963.105    23956096.104 8 -31759123.078 7
  22273442.902    22273446.495    51129514.991 8 -54744128.363 8
  24262119.675    24262123.525    -7923721.101 8 -10043813.754 8
 86  6 11  4 49 53.0800000  0  3G12G13G 7
  22011957.287    22011961.875    23971851.766 8 -31746845.941 8
  22275161.866    22275166.259    51138551.622 9 -54737086.812 7
  24261895.586    24261899.292    -7924896.333 9 -10044729.520 9
 86  6 11  4 49 59.0800000  0  3G12G13G 7
  22014959.237    22014962.874    23987624.369 8 -31734555.591 8
  22276882.346    22276886.598    51147589.621 9 -54730044.222 7
  24261675.646    24261679.025    -7926047.397 9 -10045626.448 8
 86  6 11  4 50  5.0800000  0  3G12G13G 7
  22017963.431    22017967.984    24003413.985 9 -31722251.994 8
  22278602.139    22278605.460    51156629.065 8 -54723000.486 8
                  24261467.031                   -10046499.169 8
 86  6 11  4 50 11.0800000  0  3G12G13G 7
  22020970.914    22020976.000    24019220.584 8 -31709935.164 7
  22280322.220    22280327.184    51165670.010 8 -54715955.596 7
  24261258.508    24261259.762    -7963605.088 8 -10047343.206 8
 86  6 11  4 50 17.0800000  0  3G12G13G 7
  22023982.426    22023987.734    24035044.156 8 -31697605.126 7
  22282043.729    22282046.376    51174712.518 9 -54708909.483 8
  24261058.675    24261062.651    -7964651.083 9 -10048158.272 7
 86  6 11  4 50 23.0800000  0  3G12G13G 7
  22026996.572    22027001.010    24050884.581 7 -31685261.921 8
  22283765.182    22283767.644    51183756.488 8 -54701862.231 7
  24260865.480    24260869.692    -7965664.139 9 -10048947.283 8
 86  6 11  4 50 29.0800000  0  3G12G13G 7
  22030014.274    22030018.611    24066741.777 9 -31672905.663 8
  22285486.179    22285489.542    51192801.939 9 -54694813.842 8
  24260677.801    24260681.927    -7966648.065 8 -10049713.965 8
 86  6 11  4 50 35.0800000  0  3G12G13G 7
  22033035.265    22033039.765    24082615.828 9 -31660536.264 7
  22287207.572    22287211.451    51201848.870 8 -54687764.263 7
  24260496.366    24260499.207    -7967607.037 9 -10050461.225 8
 86  6 11  4 50 41.0800000  0  3G12G13G 7
  22036058.350    22036063.453    24098506.739 8 -31648153.753 7
  22288928.483    22288933.076    51210897.276 8 -54680713.555 7
  24260317.586    24260319.876    -7968543.505 8 -10051190.937 7
 86  6 11  4 50 47.0800000  0  3G12G13G 7
  22039085.895    22039090.756    24114414.474 7 -31635758.107 8
  22290651.537    22290654.058    51219947.200 9 -54673661.672 8
  24260143.422    24260146.113    -7969459.296 9 -10051904.539 8
 86  6 11  4 50 53.0800000  0  3G12G13G 7
  22042115.760    22042119.733    24130339.008 8 -31623349.375 7
  22292373.163    22292377.971    51228998.577 8 -54666608.653 7
  24259973.249    24259977.534    -7970354.354 9 -10052601.983 7
 86  6 11  4 50 59.0800000  0  3G12G13G 7
  22045149.704    22045153.459    24146280.332 8 -31610927.571 8
  22294096.076    22294100.509    51238051.411 8 -54659554.493 7
  24259807.191    24259809.941    -7971225.071 9 -10053280.463 7
 86  6 11  4 51  5.0800000  0  3G12G13G 7
  22048187.343    22048191.387    24162238.494 8 -31598492.641 8
  22295819.388    22295822.681    51247105.777 8 -54652499.133 7
                  24259651.673                   -10053934.325 8
 86  6 11  4 51 11.0800000  0  3G12G13G 7
  22051227.176    22051230.867    24178213.476 8 -31586044.599 8
  22297542.989    22297546.923    51256161.709 8 -54645442.565 8
  24259494.349    24259498.533    -8008497.264 9 -10054559.301 8
 86  6 11  4 51 17.0800000  0  3G12G13G 7
  22054270.216    22054274.021    24194205.292 8 -31573583.461 6
  22299265.758    22299270.551    51265219.258 8 -54638384.726 8
  24259350.190    24259352.014    -8009262.310 9 -10055155.437 8
 86  6 11  4 51 23.0800000  0  3G12G13G 7
  22057316.660    22057321.359    24210213.794 8 -31561109.301 8
  22300989.301    22300995.109    51274278.319 9 -54631325.717 8
  24259210.175    24259213.523    -8009994.012 9 -10055725.598 8
 86  6 11  4 51 29.0800000  0  3G12G13G 7
  22060365.144    22060370.960    24226239.000 7 -31548622.134 7
  22302714.387    22302718.480    51283338.909 8 -54624265.511 8
  24259076.448    24259078.959    -8010697.088 9 -10056273.450 8
 86  6 11  4 51 35.0800000  0  3G12G13G 7
  22063418.293    22063423.103    24242280.802 8 -31536122.028 7
  22304438.959    22304442.065    51292401.053 8 -54617204.092 8
  24258947.634    24258950.904    -8011375.264 9 -10056801.893 7
 86  6 11  4 51 41.0800000  0  3G12G13G 7
  22066473.649    22066477.741    24258339.152 8 -31523609.013 7
  22306162.901    22306167.625    51301464.628 9 -54610141.577 8
  24258822.874    24258826.838    -8012030.989 8 -10057312.839 8
 86  6 11  4 51 47.0800000  0  3G12G13G 7
  22069533.110    22069536.416    24274414.151 7 -31511083.059 7
  22307888.791    22307891.839    51310529.709 9 -54603077.872 7
  24258701.647    24258705.121    -8012666.214 8 -10057807.821 7
 86  6 11  4 51 53.0800000  0  3G12G13G 7
  22072595.231    22072600.506    24290505.790 7 -31498544.121 8
  22309613.993    22309618.602    51319596.297 8 -54596012.997 7
  24258585.061    24258589.884    -8013280.695 9 -10058286.625 8
 86  6 11  4 51 59.0800000  0  3G12G13G 7
  22075659.970    22075664.703    24306613.942 8 -31485992.309 8
  22311340.026    22311342.387    51328664.478 9 -54588946.870 8
                  24258475.682                   -10058746.186 8
 86  6 11  4 52  5.0800000  0  3G12G13G 7
  22078729.214    22078733.671    24322738.606 8 -31473427.641 8
  22313065.915    22313069.934    51337734.180 8 -54581879.564 8
  24258398.676    24258369.399    -8050340.960 9 -10059181.097 8
 86  6 11  4 52 11.0800000  0  3G12G13G 7
  22081800.275    22081804.970    24338879.604 8 -31460850.241 8
  22314791.174    22314794.622    51346805.302 9 -54574811.146 8
  24258267.996    24258270.967    -8050862.110 9 -10059587.077 7
 86  6 11  4 52 17.0800000  0  3G12G13G 7
  22084874.856    22084879.429    24355037.071 8 -31448260.010 8
  22316518.981    22316523.429    51355877.946 8 -54567741.572 7
  24258174.642    24258178.006    -8051346.288 9 -10059964.350 8
 86  6 11  4 52 23.0800000  0  3G12G13G 7
  22087952.541    22087958.091    24371210.903 8 -31435657.024 8
  22318245.012    22318249.047    51364952.018 8 -54560670.868 7
  24258089.138    24258092.100    -8051796.879 8 -10060315.857 8
 86  6 11  4 52 29.0800000  0  3G12G13G 7
  22091034.188    22091040.070    24387401.196 8 -31423041.213 8
  22319971.557    22319975.539    51374027.676 8 -54553598.907 7
  24258009.766    24258011.682    -8052219.529 9 -10060645.185 8
 86  6 11  4 52 35.0800000  0  3G12G13G 7
  22094116.964    22094122.746    24403607.931 9 -31410412.588 8
  22321699.023    22321703.184    51383104.750 9 -54546525.873 8
  24257933.004    24257936.757    -8052617.330 9 -10060955.168 7
 86  6 11  4 52 41.0800000  0  3G12G13G 7
  22097204.533    22097209.608    24419831.066 7 -31397771.192 7
  22323427.429    22323431.050    51392183.315 9 -54539451.652 8
  24257862.795    24257865.686    -8052992.625 9 -10061247.599 8
 86  6 11  4 52 47.0800000  0  3G12G13G 7
  22100294.236    22100300.449    24436070.562 8 -31385117.039 8
  22325154.120    22325159.255    51401263.484 8 -54532376.201 7
  24257794.017    24257797.873    -8053347.297 8 -10061523.959 8
 86  6 11  4 52 53.0800000  0  3G12G13G 7
  22103387.338    22103393.289    24452326.303 8 -31372450.235 8
  22326882.583    22326887.290    51410345.137 8 -54525299.573 8
  24257730.906    24257734.090    -8053681.030 9 -10061784.011 9
 86  6 11  4 52 59.0800000  0  3G12G13G 7
  22106483.847    22106489.133    24468598.398 8 -31359770.681 9
  22328611.421    22328615.001    51419428.390 8 -54518221.708 8
  24257671.336    24257673.885    -8053989.966 8 -10062024.732 8
 86  6 11  4 53  5.0800000  0  3G12G13G 7
  22109584.560    22109588.782    24484886.771 8 -31347078.424 8
  22330338.969    22330344.021    51428513.095 8 -54511142.714 7
                  24257622.521                   -10062240.483 8
 86  6 11  4 53 11.0800000  0  3G12G13G 7
  22112686.596    22112692.249    24501191.413 8 -31334373.525 8
  22332069.035    22332072.915    51437599.290 8 -54504062.557 8
  24257574.461    24257577.520    -8090706.519 8 -10062427.237 8
 86  6 11  4 53 17.0800000  0  3G12G13G 7
  22115792.709    22115798.451    24517512.248 8 -31321655.989 7
  22333798.132    22333802.165    51446686.984 8 -54496981.233 8
  24257535.047    24257536.657    -8090909.380 8 -10062585.308 8
 86  6 11  4 53 23.0800000  0  3G12G13G 7
  22118902.036    22118907.306    24533849.188 8 -31308925.912 9
  22335528.026    22335531.559    51455776.124 9 -54489898.768 8
  24257503.530    24257506.607    -8091079.390 9 -10062717.787 8
 86  6 11  4 53 29.0800000  0  3G12G13G 7
  22122013.680    22122018.368    24550202.166 8 -31296183.329 7
  22337258.123    22337261.371    51464866.766 8 -54482815.169 8
  24257475.149    24257478.540    -8091221.132 8 -10062828.226 8
 86  6 11  4 53 35.0800000  0  3G12G13G 7
  22125127.370    22125133.969    24566571.196 8 -31283428.262 8
  22338987.161    22338991.925    51473958.877 9 -54475730.386 7
  24257452.475    24257455.944    -8091338.252 8 -10062919.485 8
 86  6 11  4 53 41.0800000  0  3G12G13G 7
  22128245.767    22128251.655    24582956.227 8 -31270660.687 8
  22340718.858    22340722.992    51483052.452 8 -54468644.477 8
  24257435.225    24257438.729    -8091433.210 8 -10062993.480 8
 86  6 11  4 53 47.0800000  0  3G12G13G 7
  22131367.248    22131371.767    24599357.290 8 -31257880.652 8
  22342449.413    22342453.033    51492147.519 9 -54461557.412 8
  24257420.558    24257423.699    -8091507.685 9 -10063051.512 8
 86  6 11  4 53 53.0800000  0  3G12G13G 7
  22134491.063    22134497.935    24615774.298 8 -31245088.172 8
  22344180.738    22344182.970    51501244.075 9 -54454469.192 8
  24257410.391    24257414.883    -8091561.353 9 -10063093.318 8
 86  6 11  4 53 59.0800000  0  3G12G13G 7
  22137619.144    22137624.234    24632207.251 8 -31232283.283 8
  22345911.576    22345915.785    51510342.014 9 -54447379.877 7
                  24257408.337                   -10063115.605 8
 86  6 11  4 54  5.0800000  0  3G12G13G 7
  22140748.724    22140754.822    24648656.150 8 -31219465.969 8
  22347643.590    22347645.866    51519441.394 9 -54440289.437 8
  24257358.532    24257409.902    -8128062.869 9 -10063112.914 8
 86  6 11  4 54 11.0800000  0  3G12G13G 7
  22143881.144    22143887.864    24665120.939 8 -31206636.268 9
  22349374.431    22349378.523    51528542.240 9 -54433197.875 8
  24257412.992    24257416.242    -8128022.210 8 -10063081.138 8
 86  6 11  4 54 17.0800000  0  3G12G13G 7
  22147018.120    22147024.080    24681601.671 8 -31193794.142 8
  22351106.386    22351110.621    51537644.508 8 -54426105.182 7
  24257427.203    24257431.810    -8127945.322 8 -10063020.838 8
 86  6 11  4 54 23.0800000  0  3G12G13G 7
  22150157.497    22150162.539    24698098.350 8 -31180939.590 8
  22352840.059    22352843.279    51546748.391 9 -54419011.253 8
  24257448.158    24257452.931    -8127835.209 9 -10062935.024 8
 86  6 11  4 54 29.0800000  0  3G12G13G 7
  22153300.366    22153303.869    24714611.024 8 -31168072.585 8
  22354573.360    22354576.293    51555853.937 9 -54411916.018 8
  24257474.639    24257480.052    -8127696.931 9 -10062827.278 8
 86  6 11  4 54 35.0800000  0  3G12G13G 7
  22156444.191    22156449.727    24731139.651 8 -31155193.133 8
  22356305.746    22356310.011    51564961.049 9 -54404819.562 7
  24257506.253    24257510.161    -8127533.978 9 -10062700.299 7
 86  6 11  4 54 41.0800000  0  3G12G13G 7
  22159594.165    22159598.290    24747684.216 8 -31142301.269 8
  22358037.987    22358042.796    51574069.726 9 -54397721.882 8
  24257541.023    24257546.260    -8127348.719 8 -10062555.953 8
 86  6 11  4 54 47.0800000  0  3G12G13G 7
  22162744.456    22162750.260    24764244.614 8 -31129397.065 8
  22359772.893    22359775.969    51583179.987 8 -54390622.969 8
  24257581.682    24257584.639    -8127142.933 9 -10062395.589 8
 86  6 11  4 54 53.0800000  0  3G12G13G 7
  22165899.517    22165903.220    24780820.805 7 -31116480.550 8
  22361507.538    22361509.912    51592291.764 9 -54383522.878 8
  24257624.131    24257627.158    -8126916.173 9 -10062218.884 8
 86  6 11  4 54 59.0800000  0  3G12G13G 7
  22169056.450    22169061.082    24797412.711 8 -31103551.794 8
  22363241.069    22363244.143    51601405.107 9 -54376421.565 8
                  24257675.836                   -10062022.406 9
 86  6 11  4 55  5.0800000  0  2G12G13
  22172216.175    22172221.675    24814020.215 7 -31090610.886 7
  22364974.369    22364979.092    51610519.917 9 -54369319.119 9
 86  6 11  4 55 11.0800000  0  3G12G13G 7
  22175380.846    22175384.696    24830643.371 7 -31077657.784 8
  22366711.647    22366712.578    51619636.114 9 -54362215.588 8
  24257786.718    24257790.610    -8162826.176 9 -10061550.332 7
 86  6 11  4 55 17.0800000  0  3G12G13G 7
  22178546.663    22178551.484    24847282.157 9 -31064692.498 7
  22368445.206    22368448.084    51628753.731 8 -54355110.948 7
  24257856.117    24257859.752    -8162468.139 9 -10061271.316 8
 86  6 11  4 55 23.0800000  0  3G12G13G 7
  22181715.735    22181720.281    24863936.455 8 -31051715.137 7
  22370180.167    22370182.770    51637872.764 8 -54348005.207 8
  24257930.561    24257934.673    -8162077.725 9 -10060967.103 8
 86  6 11  4 55 29.0800000  0  3G12G13G 7
  22184887.568    22184893.040    24880606.383 8 -31038725.577 8
  22371915.186    22371918.805    51646993.201 8 -54340898.377 7
  24258009.555    24258014.003    -8161659.425 9 -10060641.144 8
 86  6 11  4 55 35.0800000  0  3G12G13G 7
  22188063.125    22188068.422    24897291.890 8 -31025723.889 9
  22373652.150    22373654.497    51656115.155 8 -54333790.345 8
  24258093.536    24258098.278    -8161216.681 9 -10060296.148 8
 86  6 11  4 55 41.0800000  0  3G12G13G 7
  22191241.818    22191246.631    24913993.014 8 -31012710.042 7
  22375387.484    22375390.917    51665238.688 8 -54326681.097 7
  24258182.551    24258185.685    -8160751.885 9 -10059933.977 7
 86  6 11  4 55 47.0800000  0  3G12G13G 7
  22194422.609    22194426.943    24930709.708 8 -30999684.038 8
  22377124.559    22377127.364    51674363.675 8 -54319570.712 7
  24258274.430    24258278.801    -8160266.600 9 -10059555.814 6
 86  6 11  4 55 53.0800000  0  3G12G13G 7
  22197605.946    22197610.098    24947441.885 8 -30986645.996 8
  22378861.298    22378864.744    51683490.191 8 -54312459.149 8
  24258370.159    24258375.073    -8159760.283 9 -10059161.293 8
 86  6 11  4 55 59.0800000  0  3G12G13G 7
  22200792.991    22200797.496    24964189.521 8 -30973595.869 8
  22380597.574    22380600.965    51692618.235 8 -54305346.364 8
                  24258475.279                   -10058746.813 7
 86  6 11  4 56  5.0800000  0  3G12G13G 7
  22203983.292    22203988.332    24980952.572 8 -30960533.775 9
  22382335.510    22382339.103    51701747.852 8 -54298232.399 8
  24258561.423    24258583.331    -8195710.534 8 -10058307.018 7
 86  6 11  4 56 11.0800000  0  3G12G13G 7
  22207176.027    22207180.357    24997731.034 9 -30947459.643 8
  22384072.875    22384076.927    51710878.927 8 -54291117.257 8
  24258693.817    24258697.430    -8195108.666 9 -10057838.075 8
 86  6 11  4 56 17.0800000  0  3G12G13G 7
  22210372.220    22210376.911    25014524.828 8 -30934373.570 8
  22385810.670    22385814.235    51720011.431 8 -54284001.027 7
  24258814.965    24258817.605    -8194470.056 9 -10057340.830 8
 86  6 11  4 56 23.0800000  0  3G12G13G 7
  22213569.571    22213574.781    25031334.001 9 -30921275.527 8
  22387549.066    22387553.031    51729145.390 8 -54276883.648 7
  24258942.052    24258947.109    -8193799.660 9 -10056818.453 8
 86  6 11  4 56 29.0800000  0  3G12G13G 7
  22216771.749    22216776.723    25048158.527 8 -30908165.503 8
  22389287.003    22389290.495    51738280.852 8 -54269765.094 8
  24259076.121    24259079.141    -8193101.537 9 -10056274.458 8
 86  6 11  4 56 35.0800000  0  3G12G13G 7
  22219976.248    22219981.513    25064998.374 8 -30895043.556 7
  22391026.199    22391029.748    51747417.841 8 -54262645.370 7
  24259213.367    24259216.059    -8192379.087 9 -10055711.493 7
 86  6 11  4 56 41.0800000  0  3G12G13G 7
  22223183.281    22223188.760    25081853.558 8 -30881909.655 7
  22392764.938    22392767.657    51756556.386 9 -54255524.423 7
  24259355.350    24259359.063    -8191634.594 9 -10055131.361 8
 86  6 11  4 56 47.0800000  0  3G12G13G 7
  22226394.603    22226399.777    25098724.045 8 -30868763.820 7
  22394505.048    22394508.215    51765696.456 8 -54248402.285 8
  24259501.619    24259504.223    -8190869.681 9 -10054535.336 8
 86  6 11  4 56 53.0800000  0  3G12G13G 7
  22229608.881    22229612.211    25115609.759 9 -30855606.112 8
  22396243.701    22396247.836    51774838.067 8 -54241278.944 8
  24259650.377    24259655.269    -8190083.636 9 -10053922.832 8
 86  6 11  4 56 59.0800000  0  3G12G13G 7
  22232823.216    22232828.673    25132510.733 8 -30842436.523 8
  22397983.414    22397986.291    51783981.289 8 -54234154.355 8
                  24259809.234                   -10053290.191 8
 86  6 11  4 57  5.0800000  0  3G12G13G 7
  22236041.647    22236048.031    25149427.013 9 -30829255.022 8
  22399723.640    22399726.745    51793126.051 7 -54227028.570 8
  24259968.794    24259968.157    -8225750.421 9 -10052631.879 7
 86  6 11  4 57 11.0800000  0  3G12G13G 7
  22239264.852    22239269.516    25166358.474 8 -30816061.670 7
  22401463.324    22401468.246    51802272.318 8 -54219901.606 8
  24260132.974    24260136.751    -8224868.327 9 -10051944.539 8
 86  6 11  4 57 17.0800000  0  3G12G13G 7
  22242489.763    22242494.389    25183305.127 9 -30802856.495 7
  22403204.865    22403208.559    51811420.101 8 -54212773.471 7
  24260308.490    24260312.353    -8223950.458 9 -10051228.913 7
 86  6 11  4 57 23.0800000  0  3G12G13G 7
  22245717.970    22245722.091    25200266.919 9 -30789639.516 8
  22404946.008    22404950.573    51820569.396 9 -54205644.138 7
  24260489.414    24260491.405    -8223000.000 9 -10050488.299 7
 86  6 11  4 57 29.0800000  0  3G12G13G 7
  22248948.115    22248952.695    25217243.673 9 -30776410.882 7
  22406686.038    22406690.487    51829720.197 8 -54198513.637 7
  24260675.284    24260677.575    -8222022.001 9 -10049726.217 8
 86  6 11  4 57 35.0800000  0  3G12G13G 7
  22252181.138    22252185.818    25234235.375 8 -30763170.588 8
  22408429.410    22408432.874    51838872.393 8 -54191382.062 8
  24260865.538    24260868.881    -8221020.024 9 -10048945.451 8
 86  6 11  4 57 41.0800000  0  3G12G13G 7
  22255417.370    22255422.115    25251242.052 8 -30749918.648 7
  22410170.409    22410175.220    51848026.050 8 -54184249.334 8
  24261059.959    24261064.079    -8219996.286 9 -10048147.740 7
 86  6 11  4 57 47.0800000  0  3G12G13G 7
  22258656.776    22258661.768    25268263.622 8 -30736655.073 7
  22411912.440    22411915.444    51857181.213 7 -54177115.444 7
  24261259.106    24261262.074    -8218952.148 9 -10047334.120 7
 86  6 11  4 57 53.0800000  0  3G12G13G 7
  22261898.842    22261904.210    25285300.051 8 -30723379.950 7
  22413654.554    22413657.976    51866337.918 9 -54169980.356 8
  24261461.480    24261465.429    -8217887.053 9 -10046504.175 7
 86  6 11  4 57 59.0800000  0  3G12G13G 7
  22265142.335    22265148.003    25302351.339 8 -30710093.229 8
  22415398.386    22415401.021    51875495.979 8 -54162844.177 7
                  24261673.528                   -10045653.859 7
 86  6 11  4 58  5.0800000  0  3G12G13G 7
  22268391.054    22268395.950    25319417.566 9 -30696794.869 7
  22417140.790    22417144.281    51884655.479 8 -54155706.922 8
  24261884.454    24261886.645    -8253278.565 9 -10044777.815 7
 86  6 11  4 58 11.0800000  0  3G12G13G 7
  22271640.740    22271646.436    25336498.727 8 -30683484.889 7
  22418885.192    22418887.383    51893816.605 8 -54148568.353 8
  24262104.806    24262108.541    -8252116.785 8 -10043872.526 7
 86  6 11  4 58 17.0800000  0  3G12G13G 7
  22274895.551    22274898.679    25353594.804 9 -30670163.255 7
  22420628.168    22420631.016    51902979.231 8 -54141428.643 8
  24262331.543    24262335.177    -8250918.925 9 -10042939.130 7
 86  6 11  4 58 23.0800000  0  3G12G13G 7
  22278150.446    22278154.884    25370705.768 8 -30656830.032 7
  22422372.515    22422375.292    51912143.343 8 -54134287.772 8
  24262565.606    24262569.352    -8249689.172 9 -10041980.884 8
 86  6 11  4 58 29.0800000  0  3G12G13G 7
  22281409.767    22281415.723    25387831.508 8 -30643485.318 8
  22424115.948    22424119.511    51921308.916 7 -54127145.763 7
  24262805.849    24262808.381    -8248432.076 9 -10041001.316 7
 86  6 11  4 58 35.0800000  0  3G12G13G 7
  22284671.066    22284676.595    25404971.943 9 -30630129.116 8
  22425861.126    22425863.673    51930476.050 8 -54120002.542 8
  24263049.397    24263053.383    -8247150.914 9 -10040003.012 7
 86  6 11  4 58 41.0800000  0  3G12G13G 7
  22287936.178    22287941.121    25422127.192 9 -30616761.403 7
  22427605.158    22427608.235    51939644.788 8 -54112858.058 7
  24263298.529    24263299.922    -8245848.100 9 -10038987.832 8
 86  6 11  4 58 47.0800000  0  3G12G13G 7
  22291203.672    22291208.034    25439297.220 9 -30603382.164 8
  22429349.822    22429354.256    51948815.185 9 -54105712.306 8
  24263548.851    24263552.996    -8244524.943 9 -10037956.803 7
 86  6 11  4 58 53.0800000  0  3G12G13G 7
  22294473.338    22294477.570    25456482.035 9 -30589991.408 8
  22431095.943    22431097.403    51957987.079 9 -54098565.362 8
  24263804.993    24263808.248    -8243180.550 9 -10036909.226 7
 86  6 11  4 58 59.0800000  0  3G12G13G 7
  22297745.766    22297751.141    25473681.542 8 -30576589.187 7
  22432841.006    22432844.926    51967160.571 9 -54091417.189 8
                  24264069.461                   -10035841.199 8
 86  6 11  4 59  5.0800000  0  3G12G13G 7
  22301023.605    22301025.831    25490895.803 8 -30563175.471 8
  22434585.669    22434590.263    51976335.589 9 -54084267.816 7
  24264263.122    24264336.456    -8278299.870 8 -10034747.199 7
 86  6 11  4 59 11.0800000  0  3G12G13G 7
  22304301.217    22304305.147    25508124.616 9 -30549750.425 8
  22436334.223    22436336.771    51985512.152 9 -54077117.257 8
  24264607.422    24264610.757    -8276858.252 8 -10033623.796 7
 86  6 11  4 59 17.0800000  0  3G12G13G 7
  22307581.262    22307586.991    25525368.048 8 -30536313.991 7
  22438079.687    22438082.607    51994690.247 8 -54069965.485 8
  24264889.314    24264892.545    -8275380.829 8 -10032472.548 7
 86  6 11  4 59 23.0800000  0  3G12G13G 7
  22310866.212    22310870.134    25542626.080 8 -30522866.169 7
  22439825.982    22439830.660    52003869.904 8 -54062812.503 8
  24265175.182    24265178.830    -8273871.569 9 -10031296.504 7
 86  6 11  4 59 29.0800000  0  3G12G13G 7
  22314153.659    22314157.296    25559898.694 9 -30509406.992 7
  22441573.763    22441577.755    52013051.073 8 -54055658.341 8
  24265467.390    24265472.090    -8272335.131 9 -10030099.283 8
 86  6 11  4 59 35.0800000  0  3G12G13G 7
  22317443.922    22317446.277    25577185.795 9 -30495936.533 7
  22443321.831    22443325.095    52022233.731 8 -54048503.009 8
  24265765.565    24265768.626    -8270774.891 8 -10028883.502 7
 86  6 11  4 59 41.0800000  0  3G12G13G 7
  22320735.662    22320739.178    25594487.241 9 -30482454.886 7
  22445069.727    22445073.006    52031417.802 8 -54041346.598 7
  24266065.914    24266069.143    -8269193.131 9 -10027650.962 7
 86  6 11  4 59 47.0800000  0  3G12G13G 7
  22324029.871    22324034.312    25611802.992 9 -30468962.097 7
  22446817.280    22446820.586    52040603.352 8 -54034189.005 7
  24266370.692    24266374.226    -8267591.369 8 -10026402.830 8
 86  6 11  4 59 53.0800000  0  3G12G13G 7
  22327327.172    22327332.747    25629133.077 8 -30455458.130 7
  22448565.063    22448568.397    52049790.273 8 -54027030.368 7
  24266679.492    24266684.057    -8265968.547 9 -10025138.298 7
